<?xml version="1.0" encoding="UTF-8" standalone="no" ?>
<gpx xmlns="http://www.topografix.com/GPX/1/1" xmlns:xsi="http://www.w3.org/2001/XMLSchema-instance" xsi:schemaLocation="http://www.topografix.com/GPX/1/1 http://www.topografix.com/GPX/1/1/gpx.xsd" version="1.1" creator="VisuGPX - https://www.visugpx.com">
  <metadata>
    <name>rando la Marcéenne</name>
    <desc><![CDATA[petite rando sympas dans les sous bois de Jarzé]]></desc>
  </metadata>
  <trk>
    <name><![CDATA[13-AVR-14 12:31:10]]></name>
    <trkseg>
      <trkpt lat="47.57535" lon="-0.32539">
        <ele>-34.47</ele>
        <time>2014-04-13T06:38:34Z</time>
      </trkpt>
      <trkpt lat="47.57535" lon="-0.32539">
        <ele>-33.99</ele>
        <time>2014-04-13T06:38:35Z</time>
      </trkpt>
      <trkpt lat="47.57535" lon="-0.32538">
        <ele>-31.11</ele>
        <time>2014-04-13T06:38:37Z</time>
      </trkpt>
      <trkpt lat="47.57535" lon="-0.32537">
        <ele>-25.34</ele>
        <time>2014-04-13T06:38:39Z</time>
      </trkpt>
      <trkpt lat="47.57535" lon="-0.32537">
        <ele>-21.97</ele>
        <time>2014-04-13T06:38:40Z</time>
      </trkpt>
      <trkpt lat="47.57535" lon="-0.32537">
        <ele>-16.69</ele>
        <time>2014-04-13T06:38:42Z</time>
      </trkpt>
      <trkpt lat="47.57535" lon="-0.32537">
        <ele>-11.4</ele>
        <time>2014-04-13T06:38:44Z</time>
      </trkpt>
      <trkpt lat="47.57535" lon="-0.32537">
        <ele>-6.59</ele>
        <time>2014-04-13T06:38:46Z</time>
      </trkpt>
      <trkpt lat="47.57535" lon="-0.32537">
        <ele>-1.79</ele>
        <time>2014-04-13T06:38:48Z</time>
      </trkpt>
      <trkpt lat="47.57535" lon="-0.32536">
        <ele>1.58</ele>
        <time>2014-04-13T06:38:50Z</time>
      </trkpt>
      <trkpt lat="47.57534" lon="-0.32537">
        <ele>5.91</ele>
        <time>2014-04-13T06:38:52Z</time>
      </trkpt>
      <trkpt lat="47.57534" lon="-0.32537">
        <ele>9.27</ele>
        <time>2014-04-13T06:38:54Z</time>
      </trkpt>
      <trkpt lat="47.57534" lon="-0.32537">
        <ele>12.63</ele>
        <time>2014-04-13T06:38:56Z</time>
      </trkpt>
      <trkpt lat="47.57534" lon="-0.32537">
        <ele>16</ele>
        <time>2014-04-13T06:38:58Z</time>
      </trkpt>
      <trkpt lat="47.57534" lon="-0.32537">
        <ele>19.84</ele>
        <time>2014-04-13T06:39:01Z</time>
      </trkpt>
      <trkpt lat="47.57534" lon="-0.32537">
        <ele>24.17</ele>
        <time>2014-04-13T06:39:04Z</time>
      </trkpt>
      <trkpt lat="47.57534" lon="-0.32537">
        <ele>27.05</ele>
        <time>2014-04-13T06:39:07Z</time>
      </trkpt>
      <trkpt lat="47.57534" lon="-0.32536">
        <ele>30.42</ele>
        <time>2014-04-13T06:39:10Z</time>
      </trkpt>
      <trkpt lat="47.57534" lon="-0.32537">
        <ele>33.78</ele>
        <time>2014-04-13T06:39:13Z</time>
      </trkpt>
      <trkpt lat="47.57534" lon="-0.32536">
        <ele>36.67</ele>
        <time>2014-04-13T06:39:17Z</time>
      </trkpt>
      <trkpt lat="47.57534" lon="-0.32536">
        <ele>40.03</ele>
        <time>2014-04-13T06:39:22Z</time>
      </trkpt>
      <trkpt lat="47.57535" lon="-0.32535">
        <ele>42.92</ele>
        <time>2014-04-13T06:39:27Z</time>
      </trkpt>
      <trkpt lat="47.57535" lon="-0.32535">
        <ele>43.88</ele>
        <time>2014-04-13T06:39:29Z</time>
      </trkpt>
      <trkpt lat="47.57535" lon="-0.32535">
        <ele>45.32</ele>
        <time>2014-04-13T06:39:31Z</time>
      </trkpt>
      <trkpt lat="47.57534" lon="-0.32534">
        <ele>47.72</ele>
        <time>2014-04-13T06:39:37Z</time>
      </trkpt>
      <trkpt lat="47.57534" lon="-0.32535">
        <ele>50.61</ele>
        <time>2014-04-13T06:39:46Z</time>
      </trkpt>
      <trkpt lat="47.57534" lon="-0.32536">
        <ele>53.97</ele>
        <time>2014-04-13T06:39:57Z</time>
      </trkpt>
      <trkpt lat="47.57534" lon="-0.32535">
        <ele>57.34</ele>
        <time>2014-04-13T06:40:14Z</time>
      </trkpt>
      <trkpt lat="47.57534" lon="-0.32535">
        <ele>58.78</ele>
        <time>2014-04-13T06:40:37Z</time>
      </trkpt>
      <trkpt lat="47.57534" lon="-0.32536">
        <ele>58.78</ele>
        <time>2014-04-13T06:40:56Z</time>
      </trkpt>
      <trkpt lat="47.57534" lon="-0.32536">
        <ele>58.78</ele>
        <time>2014-04-13T06:41:19Z</time>
      </trkpt>
      <trkpt lat="47.57534" lon="-0.32536">
        <ele>58.3</ele>
        <time>2014-04-13T06:41:43Z</time>
      </trkpt>
      <trkpt lat="47.57534" lon="-0.32536">
        <ele>58.78</ele>
        <time>2014-04-13T06:42:04Z</time>
      </trkpt>
      <trkpt lat="47.57534" lon="-0.32536">
        <ele>58.78</ele>
        <time>2014-04-13T06:42:15Z</time>
      </trkpt>
      <trkpt lat="47.57534" lon="-0.32536">
        <ele>58.78</ele>
        <time>2014-04-13T06:42:32Z</time>
      </trkpt>
      <trkpt lat="47.57534" lon="-0.32536">
        <ele>58.78</ele>
        <time>2014-04-13T06:42:51Z</time>
      </trkpt>
      <trkpt lat="47.57533" lon="-0.32537">
        <ele>55.89</ele>
        <time>2014-04-13T06:43:00Z</time>
      </trkpt>
      <trkpt lat="47.57533" lon="-0.32537">
        <ele>62.62</ele>
        <time>2014-04-13T06:43:01Z</time>
      </trkpt>
      <trkpt lat="47.57532" lon="-0.32537">
        <ele>59.74</ele>
        <time>2014-04-13T06:43:03Z</time>
      </trkpt>
      <trkpt lat="47.57532" lon="-0.32537">
        <ele>58.3</ele>
        <time>2014-04-13T06:43:05Z</time>
      </trkpt>
      <trkpt lat="47.57532" lon="-0.32537">
        <ele>58.78</ele>
        <time>2014-04-13T06:43:24Z</time>
      </trkpt>
      <trkpt lat="47.57532" lon="-0.32537">
        <ele>58.3</ele>
        <time>2014-04-13T06:43:42Z</time>
      </trkpt>
      <trkpt lat="47.57532" lon="-0.32537">
        <ele>57.82</ele>
        <time>2014-04-13T06:43:51Z</time>
      </trkpt>
      <trkpt lat="47.57532" lon="-0.32537">
        <ele>58.3</ele>
        <time>2014-04-13T06:44:12Z</time>
      </trkpt>
      <trkpt lat="47.57532" lon="-0.32536">
        <ele>58.3</ele>
        <time>2014-04-13T06:44:30Z</time>
      </trkpt>
      <trkpt lat="47.57532" lon="-0.32536">
        <ele>58.3</ele>
        <time>2014-04-13T06:44:50Z</time>
      </trkpt>
      <trkpt lat="47.57533" lon="-0.32536">
        <ele>57.34</ele>
        <time>2014-04-13T06:45:15Z</time>
      </trkpt>
      <trkpt lat="47.57533" lon="-0.32536">
        <ele>57.34</ele>
        <time>2014-04-13T06:45:38Z</time>
      </trkpt>
      <trkpt lat="47.57533" lon="-0.32536">
        <ele>57.82</ele>
        <time>2014-04-13T06:45:53Z</time>
      </trkpt>
      <trkpt lat="47.57533" lon="-0.32536">
        <ele>57.82</ele>
        <time>2014-04-13T06:46:00Z</time>
      </trkpt>
      <trkpt lat="47.57534" lon="-0.3254">
        <ele>57.34</ele>
        <time>2014-04-13T06:46:04Z</time>
      </trkpt>
      <trkpt lat="47.57548" lon="-0.32542">
        <ele>58.3</ele>
        <time>2014-04-13T06:46:11Z</time>
      </trkpt>
      <trkpt lat="47.57565" lon="-0.32545">
        <ele>58.3</ele>
        <time>2014-04-13T06:46:17Z</time>
      </trkpt>
      <trkpt lat="47.57584" lon="-0.32544">
        <ele>57.82</ele>
        <time>2014-04-13T06:46:22Z</time>
      </trkpt>
      <trkpt lat="47.57607" lon="-0.32538">
        <ele>57.82</ele>
        <time>2014-04-13T06:46:27Z</time>
      </trkpt>
      <trkpt lat="47.57625" lon="-0.32537">
        <ele>56.86</ele>
        <time>2014-04-13T06:46:31Z</time>
      </trkpt>
      <trkpt lat="47.57634" lon="-0.32539">
        <ele>57.34</ele>
        <time>2014-04-13T06:46:33Z</time>
      </trkpt>
      <trkpt lat="47.57643" lon="-0.32543">
        <ele>56.86</ele>
        <time>2014-04-13T06:46:35Z</time>
      </trkpt>
      <trkpt lat="47.57682" lon="-0.3257">
        <ele>56.86</ele>
        <time>2014-04-13T06:46:44Z</time>
      </trkpt>
      <trkpt lat="47.577" lon="-0.32584">
        <ele>55.89</ele>
        <time>2014-04-13T06:46:50Z</time>
      </trkpt>
      <trkpt lat="47.57709" lon="-0.32593">
        <ele>56.86</ele>
        <time>2014-04-13T06:46:53Z</time>
      </trkpt>
      <trkpt lat="47.57726" lon="-0.32613">
        <ele>56.37</ele>
        <time>2014-04-13T06:46:58Z</time>
      </trkpt>
      <trkpt lat="47.57748" lon="-0.32634">
        <ele>56.86</ele>
        <time>2014-04-13T06:47:04Z</time>
      </trkpt>
      <trkpt lat="47.57775" lon="-0.32659">
        <ele>55.89</ele>
        <time>2014-04-13T06:47:12Z</time>
      </trkpt>
      <trkpt lat="47.57787" lon="-0.32666">
        <ele>54.93</ele>
        <time>2014-04-13T06:47:16Z</time>
      </trkpt>
      <trkpt lat="47.5779" lon="-0.3268">
        <ele>54.93</ele>
        <time>2014-04-13T06:47:20Z</time>
      </trkpt>
      <trkpt lat="47.57787" lon="-0.32708">
        <ele>54.45</ele>
        <time>2014-04-13T06:47:26Z</time>
      </trkpt>
      <trkpt lat="47.57783" lon="-0.3271">
        <ele>53.97</ele>
        <time>2014-04-13T06:47:31Z</time>
      </trkpt>
      <trkpt lat="47.57782" lon="-0.32711">
        <ele>54.45</ele>
        <time>2014-04-13T06:47:38Z</time>
      </trkpt>
      <trkpt lat="47.57782" lon="-0.32711">
        <ele>53.97</ele>
        <time>2014-04-13T06:47:50Z</time>
      </trkpt>
      <trkpt lat="47.57782" lon="-0.32711">
        <ele>53.49</ele>
        <time>2014-04-13T06:48:08Z</time>
      </trkpt>
      <trkpt lat="47.57782" lon="-0.32711">
        <ele>53.97</ele>
        <time>2014-04-13T06:48:24Z</time>
      </trkpt>
      <trkpt lat="47.57782" lon="-0.32711">
        <ele>53.97</ele>
        <time>2014-04-13T06:48:44Z</time>
      </trkpt>
      <trkpt lat="47.57782" lon="-0.32712">
        <ele>53.49</ele>
        <time>2014-04-13T06:49:05Z</time>
      </trkpt>
      <trkpt lat="47.57782" lon="-0.32712">
        <ele>53.49</ele>
        <time>2014-04-13T06:49:25Z</time>
      </trkpt>
      <trkpt lat="47.57782" lon="-0.32712">
        <ele>53.97</ele>
        <time>2014-04-13T06:49:46Z</time>
      </trkpt>
      <trkpt lat="47.57782" lon="-0.32712">
        <ele>53.49</ele>
        <time>2014-04-13T06:50:07Z</time>
      </trkpt>
      <trkpt lat="47.57783" lon="-0.32712">
        <ele>53.97</ele>
        <time>2014-04-13T06:50:30Z</time>
      </trkpt>
      <trkpt lat="47.57783" lon="-0.32709">
        <ele>53.49</ele>
        <time>2014-04-13T06:50:40Z</time>
      </trkpt>
      <trkpt lat="47.57783" lon="-0.32709">
        <ele>53.97</ele>
        <time>2014-04-13T06:50:54Z</time>
      </trkpt>
      <trkpt lat="47.57783" lon="-0.32709">
        <ele>52.05</ele>
        <time>2014-04-13T06:50:59Z</time>
      </trkpt>
      <trkpt lat="47.57783" lon="-0.32707">
        <ele>53.97</ele>
        <time>2014-04-13T06:51:01Z</time>
      </trkpt>
      <trkpt lat="47.57788" lon="-0.3269">
        <ele>53.97</ele>
        <time>2014-04-13T06:51:05Z</time>
      </trkpt>
      <trkpt lat="47.57782" lon="-0.32666">
        <ele>55.41</ele>
        <time>2014-04-13T06:51:10Z</time>
      </trkpt>
      <trkpt lat="47.57779" lon="-0.32663">
        <ele>54.93</ele>
        <time>2014-04-13T06:51:11Z</time>
      </trkpt>
      <trkpt lat="47.5776" lon="-0.32648">
        <ele>55.89</ele>
        <time>2014-04-13T06:51:16Z</time>
      </trkpt>
      <trkpt lat="47.57739" lon="-0.32625">
        <ele>55.89</ele>
        <time>2014-04-13T06:51:22Z</time>
      </trkpt>
      <trkpt lat="47.57718" lon="-0.326">
        <ele>56.37</ele>
        <time>2014-04-13T06:51:28Z</time>
      </trkpt>
      <trkpt lat="47.57711" lon="-0.32591">
        <ele>56.86</ele>
        <time>2014-04-13T06:51:30Z</time>
      </trkpt>
      <trkpt lat="47.57677" lon="-0.32564">
        <ele>56.37</ele>
        <time>2014-04-13T06:51:38Z</time>
      </trkpt>
      <trkpt lat="47.57636" lon="-0.3254">
        <ele>56.86</ele>
        <time>2014-04-13T06:51:47Z</time>
      </trkpt>
      <trkpt lat="47.57631" lon="-0.32538">
        <ele>56.37</ele>
        <time>2014-04-13T06:51:48Z</time>
      </trkpt>
      <trkpt lat="47.57613" lon="-0.32537">
        <ele>57.34</ele>
        <time>2014-04-13T06:51:52Z</time>
      </trkpt>
      <trkpt lat="47.57578" lon="-0.32547">
        <ele>57.82</ele>
        <time>2014-04-13T06:52:00Z</time>
      </trkpt>
      <trkpt lat="47.57562" lon="-0.32544">
        <ele>58.3</ele>
        <time>2014-04-13T06:52:04Z</time>
      </trkpt>
      <trkpt lat="47.57539" lon="-0.32538">
        <ele>57.34</ele>
        <time>2014-04-13T06:52:11Z</time>
      </trkpt>
      <trkpt lat="47.57533" lon="-0.32536">
        <ele>57.82</ele>
        <time>2014-04-13T06:52:17Z</time>
      </trkpt>
      <trkpt lat="47.57533" lon="-0.32536">
        <ele>57.34</ele>
        <time>2014-04-13T06:52:24Z</time>
      </trkpt>
      <trkpt lat="47.57533" lon="-0.32536">
        <ele>56.86</ele>
        <time>2014-04-13T06:52:44Z</time>
      </trkpt>
      <trkpt lat="47.57533" lon="-0.32536">
        <ele>57.34</ele>
        <time>2014-04-13T06:53:07Z</time>
      </trkpt>
      <trkpt lat="47.57533" lon="-0.32536">
        <ele>57.34</ele>
        <time>2014-04-13T06:53:28Z</time>
      </trkpt>
      <trkpt lat="47.57533" lon="-0.32536">
        <ele>57.34</ele>
        <time>2014-04-13T06:53:46Z</time>
      </trkpt>
      <trkpt lat="47.57533" lon="-0.32537">
        <ele>56.86</ele>
        <time>2014-04-13T06:53:58Z</time>
      </trkpt>
      <trkpt lat="47.57533" lon="-0.32537">
        <ele>57.34</ele>
        <time>2014-04-13T06:54:05Z</time>
      </trkpt>
      <trkpt lat="47.57546" lon="-0.32542">
        <ele>57.82</ele>
        <time>2014-04-13T06:54:12Z</time>
      </trkpt>
      <trkpt lat="47.57549" lon="-0.32541">
        <ele>56.86</ele>
        <time>2014-04-13T06:54:13Z</time>
      </trkpt>
      <trkpt lat="47.57558" lon="-0.32549">
        <ele>57.34</ele>
        <time>2014-04-13T06:54:19Z</time>
      </trkpt>
      <trkpt lat="47.57554" lon="-0.32551">
        <ele>57.34</ele>
        <time>2014-04-13T06:54:21Z</time>
      </trkpt>
      <trkpt lat="47.57525" lon="-0.32558">
        <ele>56.86</ele>
        <time>2014-04-13T06:54:28Z</time>
      </trkpt>
      <trkpt lat="47.57485" lon="-0.32562">
        <ele>56.86</ele>
        <time>2014-04-13T06:54:36Z</time>
      </trkpt>
      <trkpt lat="47.5743" lon="-0.32564">
        <ele>56.37</ele>
        <time>2014-04-13T06:54:46Z</time>
      </trkpt>
      <trkpt lat="47.57379" lon="-0.32564">
        <ele>54.45</ele>
        <time>2014-04-13T06:54:54Z</time>
      </trkpt>
      <trkpt lat="47.57311" lon="-0.3256">
        <ele>52.53</ele>
        <time>2014-04-13T06:55:04Z</time>
      </trkpt>
      <trkpt lat="47.57246" lon="-0.32561">
        <ele>50.13</ele>
        <time>2014-04-13T06:55:13Z</time>
      </trkpt>
      <trkpt lat="47.57181" lon="-0.3256">
        <ele>47.72</ele>
        <time>2014-04-13T06:55:22Z</time>
      </trkpt>
      <trkpt lat="47.57175" lon="-0.32561">
        <ele>47.24</ele>
        <time>2014-04-13T06:55:23Z</time>
      </trkpt>
      <trkpt lat="47.5717" lon="-0.32546">
        <ele>46.76</ele>
        <time>2014-04-13T06:55:27Z</time>
      </trkpt>
      <trkpt lat="47.57172" lon="-0.32541">
        <ele>46.76</ele>
        <time>2014-04-13T06:55:28Z</time>
      </trkpt>
      <trkpt lat="47.57197" lon="-0.32484">
        <ele>46.76</ele>
        <time>2014-04-13T06:55:36Z</time>
      </trkpt>
      <trkpt lat="47.57226" lon="-0.3242">
        <ele>47.72</ele>
        <time>2014-04-13T06:55:45Z</time>
      </trkpt>
      <trkpt lat="47.57253" lon="-0.32356">
        <ele>48.68</ele>
        <time>2014-04-13T06:55:54Z</time>
      </trkpt>
      <trkpt lat="47.57277" lon="-0.32296">
        <ele>49.65</ele>
        <time>2014-04-13T06:56:03Z</time>
      </trkpt>
      <trkpt lat="47.57294" lon="-0.32253">
        <ele>50.61</ele>
        <time>2014-04-13T06:56:10Z</time>
      </trkpt>
      <trkpt lat="47.57287" lon="-0.32236">
        <ele>51.09</ele>
        <time>2014-04-13T06:56:14Z</time>
      </trkpt>
      <trkpt lat="47.57252" lon="-0.32182">
        <ele>52.05</ele>
        <time>2014-04-13T06:56:25Z</time>
      </trkpt>
      <trkpt lat="47.5722" lon="-0.32132">
        <ele>53.49</ele>
        <time>2014-04-13T06:56:35Z</time>
      </trkpt>
      <trkpt lat="47.57191" lon="-0.32084">
        <ele>54.93</ele>
        <time>2014-04-13T06:56:45Z</time>
      </trkpt>
      <trkpt lat="47.57171" lon="-0.32048">
        <ele>56.37</ele>
        <time>2014-04-13T06:56:53Z</time>
      </trkpt>
      <trkpt lat="47.57157" lon="-0.32024">
        <ele>58.3</ele>
        <time>2014-04-13T06:56:59Z</time>
      </trkpt>
      <trkpt lat="47.57139" lon="-0.3199">
        <ele>60.22</ele>
        <time>2014-04-13T06:57:07Z</time>
      </trkpt>
      <trkpt lat="47.57123" lon="-0.31962">
        <ele>62.62</ele>
        <time>2014-04-13T06:57:14Z</time>
      </trkpt>
      <trkpt lat="47.57108" lon="-0.31937">
        <ele>65.03</ele>
        <time>2014-04-13T06:57:21Z</time>
      </trkpt>
      <trkpt lat="47.5709" lon="-0.31908">
        <ele>66.95</ele>
        <time>2014-04-13T06:57:30Z</time>
      </trkpt>
      <trkpt lat="47.57073" lon="-0.31875">
        <ele>67.91</ele>
        <time>2014-04-13T06:57:39Z</time>
      </trkpt>
      <trkpt lat="47.57058" lon="-0.31841">
        <ele>69.35</ele>
        <time>2014-04-13T06:57:48Z</time>
      </trkpt>
      <trkpt lat="47.57045" lon="-0.31807">
        <ele>70.31</ele>
        <time>2014-04-13T06:57:56Z</time>
      </trkpt>
      <trkpt lat="47.57036" lon="-0.31755">
        <ele>70.31</ele>
        <time>2014-04-13T06:58:04Z</time>
      </trkpt>
      <trkpt lat="47.57029" lon="-0.31706">
        <ele>69.83</ele>
        <time>2014-04-13T06:58:11Z</time>
      </trkpt>
      <trkpt lat="47.57023" lon="-0.31678">
        <ele>69.35</ele>
        <time>2014-04-13T06:58:15Z</time>
      </trkpt>
      <trkpt lat="47.57005" lon="-0.31633">
        <ele>68.87</ele>
        <time>2014-04-13T06:58:22Z</time>
      </trkpt>
      <trkpt lat="47.56979" lon="-0.31591">
        <ele>68.87</ele>
        <time>2014-04-13T06:58:29Z</time>
      </trkpt>
      <trkpt lat="47.56963" lon="-0.31555">
        <ele>67.91</ele>
        <time>2014-04-13T06:58:34Z</time>
      </trkpt>
      <trkpt lat="47.56958" lon="-0.31541">
        <ele>67.91</ele>
        <time>2014-04-13T06:58:36Z</time>
      </trkpt>
      <trkpt lat="47.56953" lon="-0.31513">
        <ele>68.39</ele>
        <time>2014-04-13T06:58:40Z</time>
      </trkpt>
      <trkpt lat="47.56931" lon="-0.31454">
        <ele>65.99</ele>
        <time>2014-04-13T06:58:47Z</time>
      </trkpt>
      <trkpt lat="47.56922" lon="-0.31391">
        <ele>64.07</ele>
        <time>2014-04-13T06:58:53Z</time>
      </trkpt>
      <trkpt lat="47.56931" lon="-0.31371">
        <ele>63.58</ele>
        <time>2014-04-13T06:58:57Z</time>
      </trkpt>
      <trkpt lat="47.5694" lon="-0.31371">
        <ele>63.58</ele>
        <time>2014-04-13T06:58:59Z</time>
      </trkpt>
      <trkpt lat="47.56967" lon="-0.31363">
        <ele>64.07</ele>
        <time>2014-04-13T06:59:06Z</time>
      </trkpt>
      <trkpt lat="47.56993" lon="-0.31341">
        <ele>63.58</ele>
        <time>2014-04-13T06:59:12Z</time>
      </trkpt>
      <trkpt lat="47.57001" lon="-0.31333">
        <ele>63.1</ele>
        <time>2014-04-13T06:59:14Z</time>
      </trkpt>
      <trkpt lat="47.57018" lon="-0.3132">
        <ele>62.14</ele>
        <time>2014-04-13T06:59:18Z</time>
      </trkpt>
      <trkpt lat="47.57033" lon="-0.31311">
        <ele>61.18</ele>
        <time>2014-04-13T06:59:21Z</time>
      </trkpt>
      <trkpt lat="47.5706" lon="-0.31295">
        <ele>59.74</ele>
        <time>2014-04-13T06:59:26Z</time>
      </trkpt>
      <trkpt lat="47.57086" lon="-0.31281">
        <ele>59.26</ele>
        <time>2014-04-13T06:59:30Z</time>
      </trkpt>
      <trkpt lat="47.57129" lon="-0.31258">
        <ele>58.3</ele>
        <time>2014-04-13T06:59:37Z</time>
      </trkpt>
      <trkpt lat="47.57148" lon="-0.31248">
        <ele>56.86</ele>
        <time>2014-04-13T06:59:40Z</time>
      </trkpt>
      <trkpt lat="47.57154" lon="-0.31244">
        <ele>57.34</ele>
        <time>2014-04-13T06:59:41Z</time>
      </trkpt>
      <trkpt lat="47.57198" lon="-0.31222">
        <ele>56.37</ele>
        <time>2014-04-13T06:59:48Z</time>
      </trkpt>
      <trkpt lat="47.57204" lon="-0.31219">
        <ele>55.89</ele>
        <time>2014-04-13T06:59:49Z</time>
      </trkpt>
      <trkpt lat="47.57252" lon="-0.31204">
        <ele>55.41</ele>
        <time>2014-04-13T06:59:56Z</time>
      </trkpt>
      <trkpt lat="47.57298" lon="-0.31186">
        <ele>53.97</ele>
        <time>2014-04-13T07:00:03Z</time>
      </trkpt>
      <trkpt lat="47.57337" lon="-0.31165">
        <ele>53.01</ele>
        <time>2014-04-13T07:00:09Z</time>
      </trkpt>
      <trkpt lat="47.57373" lon="-0.3114">
        <ele>53.01</ele>
        <time>2014-04-13T07:00:15Z</time>
      </trkpt>
      <trkpt lat="47.57435" lon="-0.31121">
        <ele>51.57</ele>
        <time>2014-04-13T07:00:25Z</time>
      </trkpt>
      <trkpt lat="47.57499" lon="-0.31112">
        <ele>49.16</ele>
        <time>2014-04-13T07:00:34Z</time>
      </trkpt>
      <trkpt lat="47.5756" lon="-0.31097">
        <ele>47.72</ele>
        <time>2014-04-13T07:00:43Z</time>
      </trkpt>
      <trkpt lat="47.57615" lon="-0.31088">
        <ele>47.72</ele>
        <time>2014-04-13T07:00:52Z</time>
      </trkpt>
      <trkpt lat="47.57632" lon="-0.31087">
        <ele>48.68</ele>
        <time>2014-04-13T07:00:55Z</time>
      </trkpt>
      <trkpt lat="47.57668" lon="-0.31075">
        <ele>49.65</ele>
        <time>2014-04-13T07:01:03Z</time>
      </trkpt>
      <trkpt lat="47.57672" lon="-0.31053">
        <ele>49.65</ele>
        <time>2014-04-13T07:01:08Z</time>
      </trkpt>
      <trkpt lat="47.57661" lon="-0.31004">
        <ele>50.61</ele>
        <time>2014-04-13T07:01:16Z</time>
      </trkpt>
      <trkpt lat="47.57647" lon="-0.30944">
        <ele>51.57</ele>
        <time>2014-04-13T07:01:25Z</time>
      </trkpt>
      <trkpt lat="47.57642" lon="-0.30891">
        <ele>52.05</ele>
        <time>2014-04-13T07:01:33Z</time>
      </trkpt>
      <trkpt lat="47.57637" lon="-0.30827">
        <ele>53.49</ele>
        <time>2014-04-13T07:01:43Z</time>
      </trkpt>
      <trkpt lat="47.57633" lon="-0.3076">
        <ele>54.45</ele>
        <time>2014-04-13T07:01:53Z</time>
      </trkpt>
      <trkpt lat="47.57637" lon="-0.30684">
        <ele>54.45</ele>
        <time>2014-04-13T07:02:03Z</time>
      </trkpt>
      <trkpt lat="47.57633" lon="-0.30616">
        <ele>54.45</ele>
        <time>2014-04-13T07:02:12Z</time>
      </trkpt>
      <trkpt lat="47.57617" lon="-0.30545">
        <ele>55.89</ele>
        <time>2014-04-13T07:02:22Z</time>
      </trkpt>
      <trkpt lat="47.57591" lon="-0.30492">
        <ele>56.37</ele>
        <time>2014-04-13T07:02:31Z</time>
      </trkpt>
      <trkpt lat="47.57578" lon="-0.30462">
        <ele>57.34</ele>
        <time>2014-04-13T07:02:36Z</time>
      </trkpt>
      <trkpt lat="47.57577" lon="-0.30436">
        <ele>57.82</ele>
        <time>2014-04-13T07:02:40Z</time>
      </trkpt>
      <trkpt lat="47.57594" lon="-0.30381">
        <ele>59.26</ele>
        <time>2014-04-13T07:02:49Z</time>
      </trkpt>
      <trkpt lat="47.57602" lon="-0.30353">
        <ele>60.7</ele>
        <time>2014-04-13T07:02:54Z</time>
      </trkpt>
      <trkpt lat="47.57604" lon="-0.30342">
        <ele>61.18</ele>
        <time>2014-04-13T07:02:56Z</time>
      </trkpt>
      <trkpt lat="47.57598" lon="-0.30288">
        <ele>63.58</ele>
        <time>2014-04-13T07:03:05Z</time>
      </trkpt>
      <trkpt lat="47.57595" lon="-0.3024">
        <ele>65.03</ele>
        <time>2014-04-13T07:03:14Z</time>
      </trkpt>
      <trkpt lat="47.57596" lon="-0.30197">
        <ele>66.47</ele>
        <time>2014-04-13T07:03:23Z</time>
      </trkpt>
      <trkpt lat="47.57602" lon="-0.30179">
        <ele>67.91</ele>
        <time>2014-04-13T07:03:28Z</time>
      </trkpt>
      <trkpt lat="47.57608" lon="-0.30162">
        <ele>68.39</ele>
        <time>2014-04-13T07:03:32Z</time>
      </trkpt>
      <trkpt lat="47.57616" lon="-0.30138">
        <ele>69.83</ele>
        <time>2014-04-13T07:03:39Z</time>
      </trkpt>
      <trkpt lat="47.5762" lon="-0.3013">
        <ele>69.83</ele>
        <time>2014-04-13T07:03:41Z</time>
      </trkpt>
      <trkpt lat="47.57627" lon="-0.30119">
        <ele>69.35</ele>
        <time>2014-04-13T07:03:43Z</time>
      </trkpt>
      <trkpt lat="47.57642" lon="-0.30085">
        <ele>68.39</ele>
        <time>2014-04-13T07:03:48Z</time>
      </trkpt>
      <trkpt lat="47.57644" lon="-0.30078">
        <ele>67.91</ele>
        <time>2014-04-13T07:03:49Z</time>
      </trkpt>
      <trkpt lat="47.57642" lon="-0.30054">
        <ele>66.95</ele>
        <time>2014-04-13T07:03:53Z</time>
      </trkpt>
      <trkpt lat="47.57633" lon="-0.3005">
        <ele>66.95</ele>
        <time>2014-04-13T07:03:55Z</time>
      </trkpt>
      <trkpt lat="47.57624" lon="-0.30049">
        <ele>67.43</ele>
        <time>2014-04-13T07:03:57Z</time>
      </trkpt>
      <trkpt lat="47.57576" lon="-0.30035">
        <ele>68.39</ele>
        <time>2014-04-13T07:04:09Z</time>
      </trkpt>
      <trkpt lat="47.57546" lon="-0.30041">
        <ele>69.35</ele>
        <time>2014-04-13T07:04:17Z</time>
      </trkpt>
      <trkpt lat="47.57519" lon="-0.3005">
        <ele>71.27</ele>
        <time>2014-04-13T07:04:25Z</time>
      </trkpt>
      <trkpt lat="47.5749" lon="-0.30053">
        <ele>71.76</ele>
        <time>2014-04-13T07:04:33Z</time>
      </trkpt>
      <trkpt lat="47.57455" lon="-0.30058">
        <ele>72.72</ele>
        <time>2014-04-13T07:04:42Z</time>
      </trkpt>
      <trkpt lat="47.57442" lon="-0.30062">
        <ele>72.72</ele>
        <time>2014-04-13T07:04:45Z</time>
      </trkpt>
      <trkpt lat="47.57426" lon="-0.30067">
        <ele>72.72</ele>
        <time>2014-04-13T07:04:49Z</time>
      </trkpt>
      <trkpt lat="47.57413" lon="-0.30046">
        <ele>71.76</ele>
        <time>2014-04-13T07:04:54Z</time>
      </trkpt>
      <trkpt lat="47.57404" lon="-0.29976">
        <ele>69.83</ele>
        <time>2014-04-13T07:05:02Z</time>
      </trkpt>
      <trkpt lat="47.5739" lon="-0.29937">
        <ele>68.87</ele>
        <time>2014-04-13T07:05:07Z</time>
      </trkpt>
      <trkpt lat="47.57374" lon="-0.29898">
        <ele>71.27</ele>
        <time>2014-04-13T07:05:12Z</time>
      </trkpt>
      <trkpt lat="47.57371" lon="-0.29889">
        <ele>71.27</ele>
        <time>2014-04-13T07:05:13Z</time>
      </trkpt>
      <trkpt lat="47.57364" lon="-0.29866">
        <ele>72.24</ele>
        <time>2014-04-13T07:05:16Z</time>
      </trkpt>
      <trkpt lat="47.57353" lon="-0.29816">
        <ele>73.68</ele>
        <time>2014-04-13T07:05:23Z</time>
      </trkpt>
      <trkpt lat="47.57352" lon="-0.29801">
        <ele>73.68</ele>
        <time>2014-04-13T07:05:25Z</time>
      </trkpt>
      <trkpt lat="47.57353" lon="-0.29765">
        <ele>73.2</ele>
        <time>2014-04-13T07:05:30Z</time>
      </trkpt>
      <trkpt lat="47.57362" lon="-0.29715">
        <ele>73.2</ele>
        <time>2014-04-13T07:05:37Z</time>
      </trkpt>
      <trkpt lat="47.57366" lon="-0.29683">
        <ele>73.68</ele>
        <time>2014-04-13T07:05:41Z</time>
      </trkpt>
      <trkpt lat="47.57367" lon="-0.29603">
        <ele>71.76</ele>
        <time>2014-04-13T07:05:50Z</time>
      </trkpt>
      <trkpt lat="47.57364" lon="-0.29571">
        <ele>70.31</ele>
        <time>2014-04-13T07:05:53Z</time>
      </trkpt>
      <trkpt lat="47.57358" lon="-0.29524">
        <ele>68.87</ele>
        <time>2014-04-13T07:05:57Z</time>
      </trkpt>
      <trkpt lat="47.57352" lon="-0.2947">
        <ele>66.47</ele>
        <time>2014-04-13T07:06:01Z</time>
      </trkpt>
      <trkpt lat="47.57349" lon="-0.29376">
        <ele>64.55</ele>
        <time>2014-04-13T07:06:08Z</time>
      </trkpt>
      <trkpt lat="47.5735" lon="-0.29336">
        <ele>63.58</ele>
        <time>2014-04-13T07:06:12Z</time>
      </trkpt>
      <trkpt lat="47.57351" lon="-0.29323">
        <ele>62.62</ele>
        <time>2014-04-13T07:06:16Z</time>
      </trkpt>
      <trkpt lat="47.57351" lon="-0.29317">
        <ele>63.1</ele>
        <time>2014-04-13T07:06:19Z</time>
      </trkpt>
      <trkpt lat="47.5736" lon="-0.29307">
        <ele>62.62</ele>
        <time>2014-04-13T07:06:24Z</time>
      </trkpt>
      <trkpt lat="47.57391" lon="-0.29299">
        <ele>63.1</ele>
        <time>2014-04-13T07:06:32Z</time>
      </trkpt>
      <trkpt lat="47.5743" lon="-0.2929">
        <ele>63.58</ele>
        <time>2014-04-13T07:06:40Z</time>
      </trkpt>
      <trkpt lat="47.57482" lon="-0.29276">
        <ele>63.58</ele>
        <time>2014-04-13T07:06:50Z</time>
      </trkpt>
      <trkpt lat="47.57533" lon="-0.29265">
        <ele>62.62</ele>
        <time>2014-04-13T07:06:59Z</time>
      </trkpt>
      <trkpt lat="47.5758" lon="-0.29266">
        <ele>61.18</ele>
        <time>2014-04-13T07:07:06Z</time>
      </trkpt>
      <trkpt lat="47.57638" lon="-0.29259">
        <ele>59.74</ele>
        <time>2014-04-13T07:07:14Z</time>
      </trkpt>
      <trkpt lat="47.57686" lon="-0.29236">
        <ele>60.22</ele>
        <time>2014-04-13T07:07:21Z</time>
      </trkpt>
      <trkpt lat="47.5774" lon="-0.29207">
        <ele>60.7</ele>
        <time>2014-04-13T07:07:30Z</time>
      </trkpt>
      <trkpt lat="47.57772" lon="-0.29189">
        <ele>60.7</ele>
        <time>2014-04-13T07:07:36Z</time>
      </trkpt>
      <trkpt lat="47.57783" lon="-0.29166">
        <ele>60.7</ele>
        <time>2014-04-13T07:07:40Z</time>
      </trkpt>
      <trkpt lat="47.57784" lon="-0.2916">
        <ele>61.18</ele>
        <time>2014-04-13T07:07:41Z</time>
      </trkpt>
      <trkpt lat="47.57787" lon="-0.29146">
        <ele>61.18</ele>
        <time>2014-04-13T07:07:43Z</time>
      </trkpt>
      <trkpt lat="47.57785" lon="-0.29104">
        <ele>62.14</ele>
        <time>2014-04-13T07:07:49Z</time>
      </trkpt>
      <trkpt lat="47.57779" lon="-0.2907">
        <ele>61.66</ele>
        <time>2014-04-13T07:07:54Z</time>
      </trkpt>
      <trkpt lat="47.57775" lon="-0.29046">
        <ele>61.18</ele>
        <time>2014-04-13T07:07:57Z</time>
      </trkpt>
      <trkpt lat="47.57774" lon="-0.28968">
        <ele>60.22</ele>
        <time>2014-04-13T07:08:06Z</time>
      </trkpt>
      <trkpt lat="47.57777" lon="-0.28859">
        <ele>57.82</ele>
        <time>2014-04-13T07:08:17Z</time>
      </trkpt>
      <trkpt lat="47.57775" lon="-0.28783">
        <ele>56.37</ele>
        <time>2014-04-13T07:08:24Z</time>
      </trkpt>
      <trkpt lat="47.57778" lon="-0.28721">
        <ele>54.93</ele>
        <time>2014-04-13T07:08:30Z</time>
      </trkpt>
      <trkpt lat="47.57791" lon="-0.28685">
        <ele>54.45</ele>
        <time>2014-04-13T07:08:35Z</time>
      </trkpt>
      <trkpt lat="47.57796" lon="-0.28684">
        <ele>54.45</ele>
        <time>2014-04-13T07:08:36Z</time>
      </trkpt>
      <trkpt lat="47.57835" lon="-0.28677">
        <ele>53.97</ele>
        <time>2014-04-13T07:08:43Z</time>
      </trkpt>
      <trkpt lat="47.57851" lon="-0.28657">
        <ele>53.97</ele>
        <time>2014-04-13T07:08:47Z</time>
      </trkpt>
      <trkpt lat="47.5787" lon="-0.28636">
        <ele>53.97</ele>
        <time>2014-04-13T07:08:52Z</time>
      </trkpt>
      <trkpt lat="47.57875" lon="-0.28617">
        <ele>54.45</ele>
        <time>2014-04-13T07:08:55Z</time>
      </trkpt>
      <trkpt lat="47.57875" lon="-0.2861">
        <ele>53.97</ele>
        <time>2014-04-13T07:08:56Z</time>
      </trkpt>
      <trkpt lat="47.57874" lon="-0.28589">
        <ele>54.45</ele>
        <time>2014-04-13T07:08:59Z</time>
      </trkpt>
      <trkpt lat="47.57875" lon="-0.28567">
        <ele>54.45</ele>
        <time>2014-04-13T07:09:02Z</time>
      </trkpt>
      <trkpt lat="47.57866" lon="-0.28502">
        <ele>54.93</ele>
        <time>2014-04-13T07:09:11Z</time>
      </trkpt>
      <trkpt lat="47.57854" lon="-0.28456">
        <ele>54.45</ele>
        <time>2014-04-13T07:09:18Z</time>
      </trkpt>
      <trkpt lat="47.57843" lon="-0.28405">
        <ele>53.01</ele>
        <time>2014-04-13T07:09:25Z</time>
      </trkpt>
      <trkpt lat="47.57839" lon="-0.28382">
        <ele>52.53</ele>
        <time>2014-04-13T07:09:30Z</time>
      </trkpt>
      <trkpt lat="47.57839" lon="-0.28382">
        <ele>51.57</ele>
        <time>2014-04-13T07:09:46Z</time>
      </trkpt>
      <trkpt lat="47.57839" lon="-0.28382">
        <ele>52.05</ele>
        <time>2014-04-13T07:10:01Z</time>
      </trkpt>
      <trkpt lat="47.57839" lon="-0.28382">
        <ele>52.05</ele>
        <time>2014-04-13T07:10:14Z</time>
      </trkpt>
      <trkpt lat="47.5784" lon="-0.28382">
        <ele>52.05</ele>
        <time>2014-04-13T07:10:20Z</time>
      </trkpt>
      <trkpt lat="47.5784" lon="-0.28382">
        <ele>52.05</ele>
        <time>2014-04-13T07:10:45Z</time>
      </trkpt>
      <trkpt lat="47.57839" lon="-0.28383">
        <ele>52.05</ele>
        <time>2014-04-13T07:10:56Z</time>
      </trkpt>
      <trkpt lat="47.57839" lon="-0.28384">
        <ele>52.53</ele>
        <time>2014-04-13T07:11:05Z</time>
      </trkpt>
      <trkpt lat="47.57839" lon="-0.28383">
        <ele>52.05</ele>
        <time>2014-04-13T07:11:13Z</time>
      </trkpt>
      <trkpt lat="47.57838" lon="-0.28383">
        <ele>52.53</ele>
        <time>2014-04-13T07:11:18Z</time>
      </trkpt>
      <trkpt lat="47.57838" lon="-0.28383">
        <ele>47.24</ele>
        <time>2014-04-13T07:11:25Z</time>
      </trkpt>
      <trkpt lat="47.57838" lon="-0.28383">
        <ele>57.34</ele>
        <time>2014-04-13T07:11:26Z</time>
      </trkpt>
      <trkpt lat="47.57838" lon="-0.28383">
        <ele>53.01</ele>
        <time>2014-04-13T07:11:27Z</time>
      </trkpt>
      <trkpt lat="47.57838" lon="-0.28383">
        <ele>52.05</ele>
        <time>2014-04-13T07:11:29Z</time>
      </trkpt>
      <trkpt lat="47.57838" lon="-0.28383">
        <ele>52.05</ele>
        <time>2014-04-13T07:11:35Z</time>
      </trkpt>
      <trkpt lat="47.57838" lon="-0.28383">
        <ele>52.53</ele>
        <time>2014-04-13T07:11:52Z</time>
      </trkpt>
      <trkpt lat="47.57837" lon="-0.28383">
        <ele>52.05</ele>
        <time>2014-04-13T07:11:59Z</time>
      </trkpt>
      <trkpt lat="47.57837" lon="-0.28383">
        <ele>46.28</ele>
        <time>2014-04-13T07:12:08Z</time>
      </trkpt>
      <trkpt lat="47.57837" lon="-0.28383">
        <ele>56.86</ele>
        <time>2014-04-13T07:12:09Z</time>
      </trkpt>
      <trkpt lat="47.57837" lon="-0.28383">
        <ele>52.53</ele>
        <time>2014-04-13T07:12:10Z</time>
      </trkpt>
      <trkpt lat="47.57837" lon="-0.28382">
        <ele>52.53</ele>
        <time>2014-04-13T07:12:21Z</time>
      </trkpt>
      <trkpt lat="47.57837" lon="-0.28381">
        <ele>52.53</ele>
        <time>2014-04-13T07:12:30Z</time>
      </trkpt>
      <trkpt lat="47.57837" lon="-0.28381">
        <ele>52.53</ele>
        <time>2014-04-13T07:12:40Z</time>
      </trkpt>
      <trkpt lat="47.57837" lon="-0.28381">
        <ele>52.05</ele>
        <time>2014-04-13T07:12:55Z</time>
      </trkpt>
      <trkpt lat="47.57837" lon="-0.28382">
        <ele>52.05</ele>
        <time>2014-04-13T07:13:15Z</time>
      </trkpt>
      <trkpt lat="47.57837" lon="-0.28382">
        <ele>48.68</ele>
        <time>2014-04-13T07:13:24Z</time>
      </trkpt>
      <trkpt lat="47.57837" lon="-0.28382">
        <ele>52.53</ele>
        <time>2014-04-13T07:13:25Z</time>
      </trkpt>
      <trkpt lat="47.57837" lon="-0.28382">
        <ele>53.01</ele>
        <time>2014-04-13T07:13:26Z</time>
      </trkpt>
      <trkpt lat="47.57837" lon="-0.28382">
        <ele>43.4</ele>
        <time>2014-04-13T07:13:27Z</time>
      </trkpt>
      <trkpt lat="47.57837" lon="-0.28382">
        <ele>47.24</ele>
        <time>2014-04-13T07:13:28Z</time>
      </trkpt>
      <trkpt lat="47.57837" lon="-0.28382">
        <ele>61.66</ele>
        <time>2014-04-13T07:13:29Z</time>
      </trkpt>
      <trkpt lat="47.57837" lon="-0.28382">
        <ele>53.01</ele>
        <time>2014-04-13T07:13:30Z</time>
      </trkpt>
      <trkpt lat="47.57837" lon="-0.28382">
        <ele>56.86</ele>
        <time>2014-04-13T07:13:31Z</time>
      </trkpt>
      <trkpt lat="47.57837" lon="-0.28382">
        <ele>52.05</ele>
        <time>2014-04-13T07:13:34Z</time>
      </trkpt>
      <trkpt lat="47.57837" lon="-0.28382">
        <ele>52.05</ele>
        <time>2014-04-13T07:13:55Z</time>
      </trkpt>
      <trkpt lat="47.57838" lon="-0.28382">
        <ele>53.01</ele>
        <time>2014-04-13T07:14:00Z</time>
      </trkpt>
      <trkpt lat="47.57837" lon="-0.28378">
        <ele>52.53</ele>
        <time>2014-04-13T07:14:06Z</time>
      </trkpt>
      <trkpt lat="47.57837" lon="-0.28376">
        <ele>52.53</ele>
        <time>2014-04-13T07:14:14Z</time>
      </trkpt>
      <trkpt lat="47.57833" lon="-0.28355">
        <ele>44.84</ele>
        <time>2014-04-13T07:14:20Z</time>
      </trkpt>
      <trkpt lat="47.57832" lon="-0.2835">
        <ele>57.34</ele>
        <time>2014-04-13T07:14:21Z</time>
      </trkpt>
      <trkpt lat="47.57831" lon="-0.28345">
        <ele>52.53</ele>
        <time>2014-04-13T07:14:22Z</time>
      </trkpt>
      <trkpt lat="47.5783" lon="-0.28336">
        <ele>53.01</ele>
        <time>2014-04-13T07:14:24Z</time>
      </trkpt>
      <trkpt lat="47.57842" lon="-0.28325">
        <ele>53.49</ele>
        <time>2014-04-13T07:14:29Z</time>
      </trkpt>
      <trkpt lat="47.57867" lon="-0.28313">
        <ele>53.49</ele>
        <time>2014-04-13T07:14:35Z</time>
      </trkpt>
      <trkpt lat="47.57895" lon="-0.28302">
        <ele>53.01</ele>
        <time>2014-04-13T07:14:41Z</time>
      </trkpt>
      <trkpt lat="47.57916" lon="-0.28294">
        <ele>52.53</ele>
        <time>2014-04-13T07:14:46Z</time>
      </trkpt>
      <trkpt lat="47.57933" lon="-0.28286">
        <ele>52.53</ele>
        <time>2014-04-13T07:14:50Z</time>
      </trkpt>
      <trkpt lat="47.57968" lon="-0.28277">
        <ele>52.53</ele>
        <time>2014-04-13T07:14:59Z</time>
      </trkpt>
      <trkpt lat="47.57996" lon="-0.28265">
        <ele>52.53</ele>
        <time>2014-04-13T07:15:06Z</time>
      </trkpt>
      <trkpt lat="47.58018" lon="-0.28246">
        <ele>52.05</ele>
        <time>2014-04-13T07:15:12Z</time>
      </trkpt>
      <trkpt lat="47.58012" lon="-0.28216">
        <ele>52.05</ele>
        <time>2014-04-13T07:15:17Z</time>
      </trkpt>
      <trkpt lat="47.5801" lon="-0.28209">
        <ele>52.05</ele>
        <time>2014-04-13T07:15:18Z</time>
      </trkpt>
      <trkpt lat="47.57996" lon="-0.28182">
        <ele>52.05</ele>
        <time>2014-04-13T07:15:23Z</time>
      </trkpt>
      <trkpt lat="47.57988" lon="-0.28166">
        <ele>52.05</ele>
        <time>2014-04-13T07:15:26Z</time>
      </trkpt>
      <trkpt lat="47.57972" lon="-0.28134">
        <ele>51.57</ele>
        <time>2014-04-13T07:15:32Z</time>
      </trkpt>
      <trkpt lat="47.57974" lon="-0.28117">
        <ele>51.57</ele>
        <time>2014-04-13T07:15:35Z</time>
      </trkpt>
      <trkpt lat="47.57978" lon="-0.28114">
        <ele>52.05</ele>
        <time>2014-04-13T07:15:36Z</time>
      </trkpt>
      <trkpt lat="47.57989" lon="-0.28104">
        <ele>52.53</ele>
        <time>2014-04-13T07:15:39Z</time>
      </trkpt>
      <trkpt lat="47.58005" lon="-0.28092">
        <ele>53.01</ele>
        <time>2014-04-13T07:15:43Z</time>
      </trkpt>
      <trkpt lat="47.58034" lon="-0.28066">
        <ele>53.49</ele>
        <time>2014-04-13T07:15:51Z</time>
      </trkpt>
      <trkpt lat="47.58042" lon="-0.2806">
        <ele>53.49</ele>
        <time>2014-04-13T07:15:53Z</time>
      </trkpt>
      <trkpt lat="47.58072" lon="-0.28038">
        <ele>54.45</ele>
        <time>2014-04-13T07:16:01Z</time>
      </trkpt>
      <trkpt lat="47.58103" lon="-0.28016">
        <ele>56.37</ele>
        <time>2014-04-13T07:16:10Z</time>
      </trkpt>
      <trkpt lat="47.58124" lon="-0.27998">
        <ele>56.86</ele>
        <time>2014-04-13T07:16:17Z</time>
      </trkpt>
      <trkpt lat="47.58146" lon="-0.27984">
        <ele>57.82</ele>
        <time>2014-04-13T07:16:24Z</time>
      </trkpt>
      <trkpt lat="47.58177" lon="-0.27963">
        <ele>58.3</ele>
        <time>2014-04-13T07:16:33Z</time>
      </trkpt>
      <trkpt lat="47.58202" lon="-0.27946">
        <ele>58.3</ele>
        <time>2014-04-13T07:16:40Z</time>
      </trkpt>
      <trkpt lat="47.58236" lon="-0.27922">
        <ele>59.26</ele>
        <time>2014-04-13T07:16:49Z</time>
      </trkpt>
      <trkpt lat="47.58244" lon="-0.27916">
        <ele>59.26</ele>
        <time>2014-04-13T07:16:51Z</time>
      </trkpt>
      <trkpt lat="47.58276" lon="-0.27885">
        <ele>59.26</ele>
        <time>2014-04-13T07:17:00Z</time>
      </trkpt>
      <trkpt lat="47.58279" lon="-0.27881">
        <ele>59.74</ele>
        <time>2014-04-13T07:17:01Z</time>
      </trkpt>
      <trkpt lat="47.58302" lon="-0.27855">
        <ele>59.26</ele>
        <time>2014-04-13T07:17:08Z</time>
      </trkpt>
      <trkpt lat="47.58336" lon="-0.27819">
        <ele>57.82</ele>
        <time>2014-04-13T07:17:16Z</time>
      </trkpt>
      <trkpt lat="47.58375" lon="-0.27792">
        <ele>56.37</ele>
        <time>2014-04-13T07:17:23Z</time>
      </trkpt>
      <trkpt lat="47.58387" lon="-0.27786">
        <ele>56.37</ele>
        <time>2014-04-13T07:17:25Z</time>
      </trkpt>
      <trkpt lat="47.58405" lon="-0.27776">
        <ele>55.89</ele>
        <time>2014-04-13T07:17:28Z</time>
      </trkpt>
      <trkpt lat="47.5844" lon="-0.27737">
        <ele>53.97</ele>
        <time>2014-04-13T07:17:35Z</time>
      </trkpt>
      <trkpt lat="47.58454" lon="-0.27722">
        <ele>53.49</ele>
        <time>2014-04-13T07:17:38Z</time>
      </trkpt>
      <trkpt lat="47.58461" lon="-0.27692">
        <ele>52.53</ele>
        <time>2014-04-13T07:17:42Z</time>
      </trkpt>
      <trkpt lat="47.5846" lon="-0.27683">
        <ele>52.05</ele>
        <time>2014-04-13T07:17:43Z</time>
      </trkpt>
      <trkpt lat="47.5845" lon="-0.27617">
        <ele>50.13</ele>
        <time>2014-04-13T07:17:50Z</time>
      </trkpt>
      <trkpt lat="47.58435" lon="-0.27554">
        <ele>48.2</ele>
        <time>2014-04-13T07:17:57Z</time>
      </trkpt>
      <trkpt lat="47.5842" lon="-0.27493">
        <ele>46.76</ele>
        <time>2014-04-13T07:18:04Z</time>
      </trkpt>
      <trkpt lat="47.58419" lon="-0.27487">
        <ele>46.28</ele>
        <time>2014-04-13T07:18:05Z</time>
      </trkpt>
      <trkpt lat="47.58423" lon="-0.27467">
        <ele>46.76</ele>
        <time>2014-04-13T07:18:09Z</time>
      </trkpt>
      <trkpt lat="47.58431" lon="-0.27455">
        <ele>46.28</ele>
        <time>2014-04-13T07:18:12Z</time>
      </trkpt>
      <trkpt lat="47.58456" lon="-0.27426">
        <ele>45.8</ele>
        <time>2014-04-13T07:18:19Z</time>
      </trkpt>
      <trkpt lat="47.58459" lon="-0.27421">
        <ele>45.8</ele>
        <time>2014-04-13T07:18:20Z</time>
      </trkpt>
      <trkpt lat="47.58471" lon="-0.27402">
        <ele>45.32</ele>
        <time>2014-04-13T07:18:25Z</time>
      </trkpt>
      <trkpt lat="47.58475" lon="-0.27395">
        <ele>45.32</ele>
        <time>2014-04-13T07:18:27Z</time>
      </trkpt>
      <trkpt lat="47.58484" lon="-0.27375">
        <ele>44.84</ele>
        <time>2014-04-13T07:18:35Z</time>
      </trkpt>
      <trkpt lat="47.58487" lon="-0.27369">
        <ele>44.36</ele>
        <time>2014-04-13T07:18:41Z</time>
      </trkpt>
      <trkpt lat="47.5849" lon="-0.27364">
        <ele>44.36</ele>
        <time>2014-04-13T07:18:47Z</time>
      </trkpt>
      <trkpt lat="47.58491" lon="-0.27362">
        <ele>44.36</ele>
        <time>2014-04-13T07:18:52Z</time>
      </trkpt>
      <trkpt lat="47.58494" lon="-0.2735">
        <ele>43.88</ele>
        <time>2014-04-13T07:18:59Z</time>
      </trkpt>
      <trkpt lat="47.58498" lon="-0.27343">
        <ele>44.36</ele>
        <time>2014-04-13T07:19:05Z</time>
      </trkpt>
      <trkpt lat="47.58501" lon="-0.27336">
        <ele>44.36</ele>
        <time>2014-04-13T07:19:10Z</time>
      </trkpt>
      <trkpt lat="47.58501" lon="-0.27331">
        <ele>44.36</ele>
        <time>2014-04-13T07:19:12Z</time>
      </trkpt>
      <trkpt lat="47.58506" lon="-0.27315">
        <ele>43.4</ele>
        <time>2014-04-13T07:19:19Z</time>
      </trkpt>
      <trkpt lat="47.58507" lon="-0.27311">
        <ele>43.4</ele>
        <time>2014-04-13T07:19:25Z</time>
      </trkpt>
      <trkpt lat="47.58509" lon="-0.27303">
        <ele>42.92</ele>
        <time>2014-04-13T07:19:31Z</time>
      </trkpt>
      <trkpt lat="47.58513" lon="-0.27297">
        <ele>43.88</ele>
        <time>2014-04-13T07:19:37Z</time>
      </trkpt>
      <trkpt lat="47.58515" lon="-0.27291">
        <ele>44.36</ele>
        <time>2014-04-13T07:19:43Z</time>
      </trkpt>
      <trkpt lat="47.5852" lon="-0.2728">
        <ele>44.36</ele>
        <time>2014-04-13T07:19:48Z</time>
      </trkpt>
      <trkpt lat="47.58523" lon="-0.27267">
        <ele>43.4</ele>
        <time>2014-04-13T07:19:54Z</time>
      </trkpt>
      <trkpt lat="47.5853" lon="-0.27259">
        <ele>43.88</ele>
        <time>2014-04-13T07:20:01Z</time>
      </trkpt>
      <trkpt lat="47.58531" lon="-0.27257">
        <ele>43.88</ele>
        <time>2014-04-13T07:20:06Z</time>
      </trkpt>
      <trkpt lat="47.58532" lon="-0.27256">
        <ele>43.4</ele>
        <time>2014-04-13T07:20:09Z</time>
      </trkpt>
      <trkpt lat="47.58535" lon="-0.27248">
        <ele>43.4</ele>
        <time>2014-04-13T07:20:16Z</time>
      </trkpt>
      <trkpt lat="47.58538" lon="-0.2724">
        <ele>43.4</ele>
        <time>2014-04-13T07:20:23Z</time>
      </trkpt>
      <trkpt lat="47.5854" lon="-0.27237">
        <ele>43.88</ele>
        <time>2014-04-13T07:20:28Z</time>
      </trkpt>
      <trkpt lat="47.58545" lon="-0.27229">
        <ele>43.88</ele>
        <time>2014-04-13T07:20:35Z</time>
      </trkpt>
      <trkpt lat="47.58547" lon="-0.27222">
        <ele>44.36</ele>
        <time>2014-04-13T07:20:43Z</time>
      </trkpt>
      <trkpt lat="47.58549" lon="-0.2721">
        <ele>43.88</ele>
        <time>2014-04-13T07:20:49Z</time>
      </trkpt>
      <trkpt lat="47.5855" lon="-0.27205">
        <ele>43.88</ele>
        <time>2014-04-13T07:20:51Z</time>
      </trkpt>
      <trkpt lat="47.58553" lon="-0.27198">
        <ele>43.88</ele>
        <time>2014-04-13T07:20:54Z</time>
      </trkpt>
      <trkpt lat="47.58558" lon="-0.27181">
        <ele>43.88</ele>
        <time>2014-04-13T07:21:01Z</time>
      </trkpt>
      <trkpt lat="47.58559" lon="-0.27178">
        <ele>43.88</ele>
        <time>2014-04-13T07:21:02Z</time>
      </trkpt>
      <trkpt lat="47.58564" lon="-0.27159">
        <ele>43.4</ele>
        <time>2014-04-13T07:21:11Z</time>
      </trkpt>
      <trkpt lat="47.58569" lon="-0.27145">
        <ele>43.88</ele>
        <time>2014-04-13T07:21:18Z</time>
      </trkpt>
      <trkpt lat="47.58572" lon="-0.27131">
        <ele>43.88</ele>
        <time>2014-04-13T07:21:25Z</time>
      </trkpt>
      <trkpt lat="47.58574" lon="-0.27127">
        <ele>43.4</ele>
        <time>2014-04-13T07:21:27Z</time>
      </trkpt>
      <trkpt lat="47.58581" lon="-0.27108">
        <ele>43.88</ele>
        <time>2014-04-13T07:21:36Z</time>
      </trkpt>
      <trkpt lat="47.58587" lon="-0.27096">
        <ele>43.88</ele>
        <time>2014-04-13T07:21:42Z</time>
      </trkpt>
      <trkpt lat="47.58591" lon="-0.27081">
        <ele>42.92</ele>
        <time>2014-04-13T07:21:49Z</time>
      </trkpt>
      <trkpt lat="47.58595" lon="-0.27074">
        <ele>43.88</ele>
        <time>2014-04-13T07:21:56Z</time>
      </trkpt>
      <trkpt lat="47.58598" lon="-0.27069">
        <ele>43.88</ele>
        <time>2014-04-13T07:22:01Z</time>
      </trkpt>
      <trkpt lat="47.58599" lon="-0.27066">
        <ele>43.4</ele>
        <time>2014-04-13T07:22:07Z</time>
      </trkpt>
      <trkpt lat="47.586" lon="-0.27063">
        <ele>43.4</ele>
        <time>2014-04-13T07:22:12Z</time>
      </trkpt>
      <trkpt lat="47.58601" lon="-0.27059">
        <ele>43.4</ele>
        <time>2014-04-13T07:22:18Z</time>
      </trkpt>
      <trkpt lat="47.58603" lon="-0.27055">
        <ele>43.88</ele>
        <time>2014-04-13T07:22:25Z</time>
      </trkpt>
      <trkpt lat="47.58604" lon="-0.27051">
        <ele>43.88</ele>
        <time>2014-04-13T07:22:32Z</time>
      </trkpt>
      <trkpt lat="47.58606" lon="-0.27046">
        <ele>43.4</ele>
        <time>2014-04-13T07:22:38Z</time>
      </trkpt>
      <trkpt lat="47.58609" lon="-0.27038">
        <ele>43.88</ele>
        <time>2014-04-13T07:22:42Z</time>
      </trkpt>
      <trkpt lat="47.58612" lon="-0.27034">
        <ele>43.88</ele>
        <time>2014-04-13T07:22:44Z</time>
      </trkpt>
      <trkpt lat="47.58619" lon="-0.27014">
        <ele>43.88</ele>
        <time>2014-04-13T07:22:51Z</time>
      </trkpt>
      <trkpt lat="47.58626" lon="-0.26987">
        <ele>43.88</ele>
        <time>2014-04-13T07:22:58Z</time>
      </trkpt>
      <trkpt lat="47.58629" lon="-0.26979">
        <ele>44.36</ele>
        <time>2014-04-13T07:23:00Z</time>
      </trkpt>
      <trkpt lat="47.58631" lon="-0.26936">
        <ele>43.88</ele>
        <time>2014-04-13T07:23:08Z</time>
      </trkpt>
      <trkpt lat="47.58631" lon="-0.26903">
        <ele>44.36</ele>
        <time>2014-04-13T07:23:14Z</time>
      </trkpt>
      <trkpt lat="47.5863" lon="-0.26897">
        <ele>44.36</ele>
        <time>2014-04-13T07:23:15Z</time>
      </trkpt>
      <trkpt lat="47.58627" lon="-0.26835">
        <ele>43.88</ele>
        <time>2014-04-13T07:23:25Z</time>
      </trkpt>
      <trkpt lat="47.58629" lon="-0.268">
        <ele>43.4</ele>
        <time>2014-04-13T07:23:31Z</time>
      </trkpt>
      <trkpt lat="47.58624" lon="-0.26786">
        <ele>43.4</ele>
        <time>2014-04-13T07:23:34Z</time>
      </trkpt>
      <trkpt lat="47.58599" lon="-0.26777">
        <ele>43.4</ele>
        <time>2014-04-13T07:23:40Z</time>
      </trkpt>
      <trkpt lat="47.58591" lon="-0.26773">
        <ele>43.4</ele>
        <time>2014-04-13T07:23:42Z</time>
      </trkpt>
      <trkpt lat="47.58576" lon="-0.2676">
        <ele>43.4</ele>
        <time>2014-04-13T07:23:46Z</time>
      </trkpt>
      <trkpt lat="47.58545" lon="-0.26709">
        <ele>44.36</ele>
        <time>2014-04-13T07:23:57Z</time>
      </trkpt>
      <trkpt lat="47.5853" lon="-0.26682">
        <ele>45.32</ele>
        <time>2014-04-13T07:24:03Z</time>
      </trkpt>
      <trkpt lat="47.58511" lon="-0.26672">
        <ele>45.8</ele>
        <time>2014-04-13T07:24:09Z</time>
      </trkpt>
      <trkpt lat="47.58495" lon="-0.26698">
        <ele>46.28</ele>
        <time>2014-04-13T07:24:16Z</time>
      </trkpt>
      <trkpt lat="47.58491" lon="-0.26708">
        <ele>45.8</ele>
        <time>2014-04-13T07:24:18Z</time>
      </trkpt>
      <trkpt lat="47.58485" lon="-0.26718">
        <ele>46.28</ele>
        <time>2014-04-13T07:24:20Z</time>
      </trkpt>
      <trkpt lat="47.58466" lon="-0.26761">
        <ele>45.8</ele>
        <time>2014-04-13T07:24:28Z</time>
      </trkpt>
      <trkpt lat="47.58456" lon="-0.26781">
        <ele>46.28</ele>
        <time>2014-04-13T07:24:32Z</time>
      </trkpt>
      <trkpt lat="47.58436" lon="-0.26825">
        <ele>46.28</ele>
        <time>2014-04-13T07:24:41Z</time>
      </trkpt>
      <trkpt lat="47.58424" lon="-0.26851">
        <ele>46.28</ele>
        <time>2014-04-13T07:24:46Z</time>
      </trkpt>
      <trkpt lat="47.58414" lon="-0.26864">
        <ele>46.28</ele>
        <time>2014-04-13T07:24:49Z</time>
      </trkpt>
      <trkpt lat="47.5839" lon="-0.26875">
        <ele>45.8</ele>
        <time>2014-04-13T07:24:55Z</time>
      </trkpt>
      <trkpt lat="47.58376" lon="-0.26873">
        <ele>46.28</ele>
        <time>2014-04-13T07:24:58Z</time>
      </trkpt>
      <trkpt lat="47.58341" lon="-0.26871">
        <ele>46.28</ele>
        <time>2014-04-13T07:25:06Z</time>
      </trkpt>
      <trkpt lat="47.58327" lon="-0.26872">
        <ele>46.76</ele>
        <time>2014-04-13T07:25:09Z</time>
      </trkpt>
      <trkpt lat="47.58305" lon="-0.26876">
        <ele>46.28</ele>
        <time>2014-04-13T07:25:14Z</time>
      </trkpt>
      <trkpt lat="47.58275" lon="-0.26884">
        <ele>46.76</ele>
        <time>2014-04-13T07:25:21Z</time>
      </trkpt>
      <trkpt lat="47.58243" lon="-0.26897">
        <ele>47.24</ele>
        <time>2014-04-13T07:25:29Z</time>
      </trkpt>
      <trkpt lat="47.58222" lon="-0.26908">
        <ele>47.24</ele>
        <time>2014-04-13T07:25:34Z</time>
      </trkpt>
      <trkpt lat="47.5819" lon="-0.26933">
        <ele>47.24</ele>
        <time>2014-04-13T07:25:42Z</time>
      </trkpt>
      <trkpt lat="47.58159" lon="-0.26958">
        <ele>48.68</ele>
        <time>2014-04-13T07:25:50Z</time>
      </trkpt>
      <trkpt lat="47.58134" lon="-0.26979">
        <ele>48.68</ele>
        <time>2014-04-13T07:25:57Z</time>
      </trkpt>
      <trkpt lat="47.58122" lon="-0.26974">
        <ele>49.65</ele>
        <time>2014-04-13T07:26:01Z</time>
      </trkpt>
      <trkpt lat="47.58118" lon="-0.2696">
        <ele>49.65</ele>
        <time>2014-04-13T07:26:04Z</time>
      </trkpt>
      <trkpt lat="47.58118" lon="-0.26941">
        <ele>50.61</ele>
        <time>2014-04-13T07:26:07Z</time>
      </trkpt>
      <trkpt lat="47.58114" lon="-0.26917">
        <ele>50.61</ele>
        <time>2014-04-13T07:26:11Z</time>
      </trkpt>
      <trkpt lat="47.58104" lon="-0.26861">
        <ele>51.57</ele>
        <time>2014-04-13T07:26:21Z</time>
      </trkpt>
      <trkpt lat="47.58098" lon="-0.26821">
        <ele>52.05</ele>
        <time>2014-04-13T07:26:28Z</time>
      </trkpt>
      <trkpt lat="47.58089" lon="-0.2676">
        <ele>53.49</ele>
        <time>2014-04-13T07:26:38Z</time>
      </trkpt>
      <trkpt lat="47.58087" lon="-0.26698">
        <ele>52.53</ele>
        <time>2014-04-13T07:26:47Z</time>
      </trkpt>
      <trkpt lat="47.58086" lon="-0.26675">
        <ele>53.01</ele>
        <time>2014-04-13T07:26:50Z</time>
      </trkpt>
      <trkpt lat="47.58081" lon="-0.26636">
        <ele>53.01</ele>
        <time>2014-04-13T07:26:56Z</time>
      </trkpt>
      <trkpt lat="47.58069" lon="-0.26639">
        <ele>53.49</ele>
        <time>2014-04-13T07:26:59Z</time>
      </trkpt>
      <trkpt lat="47.58061" lon="-0.26642">
        <ele>53.49</ele>
        <time>2014-04-13T07:27:01Z</time>
      </trkpt>
      <trkpt lat="47.58044" lon="-0.26647">
        <ele>54.45</ele>
        <time>2014-04-13T07:27:05Z</time>
      </trkpt>
      <trkpt lat="47.58036" lon="-0.26649">
        <ele>55.41</ele>
        <time>2014-04-13T07:27:07Z</time>
      </trkpt>
      <trkpt lat="47.58023" lon="-0.26653">
        <ele>56.86</ele>
        <time>2014-04-13T07:27:11Z</time>
      </trkpt>
      <trkpt lat="47.57999" lon="-0.26658">
        <ele>59.26</ele>
        <time>2014-04-13T07:27:19Z</time>
      </trkpt>
      <trkpt lat="47.57982" lon="-0.2666">
        <ele>60.7</ele>
        <time>2014-04-13T07:27:25Z</time>
      </trkpt>
      <trkpt lat="47.5797" lon="-0.2666">
        <ele>62.62</ele>
        <time>2014-04-13T07:27:30Z</time>
      </trkpt>
      <trkpt lat="47.57946" lon="-0.26662">
        <ele>63.1</ele>
        <time>2014-04-13T07:27:39Z</time>
      </trkpt>
      <trkpt lat="47.57927" lon="-0.26663">
        <ele>64.07</ele>
        <time>2014-04-13T07:27:46Z</time>
      </trkpt>
      <trkpt lat="47.57897" lon="-0.26661">
        <ele>65.51</ele>
        <time>2014-04-13T07:27:56Z</time>
      </trkpt>
      <trkpt lat="47.57873" lon="-0.26656">
        <ele>66.47</ele>
        <time>2014-04-13T07:28:04Z</time>
      </trkpt>
      <trkpt lat="47.57844" lon="-0.26648">
        <ele>67.43</ele>
        <time>2014-04-13T07:28:14Z</time>
      </trkpt>
      <trkpt lat="47.57818" lon="-0.26642">
        <ele>68.87</ele>
        <time>2014-04-13T07:28:23Z</time>
      </trkpt>
      <trkpt lat="47.57795" lon="-0.26636">
        <ele>70.31</ele>
        <time>2014-04-13T07:28:31Z</time>
      </trkpt>
      <trkpt lat="47.57776" lon="-0.26631">
        <ele>70.31</ele>
        <time>2014-04-13T07:28:38Z</time>
      </trkpt>
      <trkpt lat="47.57751" lon="-0.26624">
        <ele>71.76</ele>
        <time>2014-04-13T07:28:47Z</time>
      </trkpt>
      <trkpt lat="47.57741" lon="-0.26641">
        <ele>71.27</ele>
        <time>2014-04-13T07:28:52Z</time>
      </trkpt>
      <trkpt lat="47.57741" lon="-0.26653">
        <ele>70.79</ele>
        <time>2014-04-13T07:28:54Z</time>
      </trkpt>
      <trkpt lat="47.5773" lon="-0.26676">
        <ele>69.35</ele>
        <time>2014-04-13T07:28:58Z</time>
      </trkpt>
      <trkpt lat="47.57712" lon="-0.26675">
        <ele>69.83</ele>
        <time>2014-04-13T07:29:02Z</time>
      </trkpt>
      <trkpt lat="47.57665" lon="-0.26678">
        <ele>70.31</ele>
        <time>2014-04-13T07:29:12Z</time>
      </trkpt>
      <trkpt lat="47.57656" lon="-0.26664">
        <ele>70.31</ele>
        <time>2014-04-13T07:29:16Z</time>
      </trkpt>
      <trkpt lat="47.5765" lon="-0.26592">
        <ele>71.27</ele>
        <time>2014-04-13T07:29:27Z</time>
      </trkpt>
      <trkpt lat="47.57645" lon="-0.26528">
        <ele>72.24</ele>
        <time>2014-04-13T07:29:37Z</time>
      </trkpt>
      <trkpt lat="47.5764" lon="-0.26484">
        <ele>71.76</ele>
        <time>2014-04-13T07:29:44Z</time>
      </trkpt>
      <trkpt lat="47.57637" lon="-0.26459">
        <ele>72.24</ele>
        <time>2014-04-13T07:29:48Z</time>
      </trkpt>
      <trkpt lat="47.57635" lon="-0.26434">
        <ele>71.76</ele>
        <time>2014-04-13T07:29:52Z</time>
      </trkpt>
      <trkpt lat="47.5764" lon="-0.26395">
        <ele>72.24</ele>
        <time>2014-04-13T07:29:59Z</time>
      </trkpt>
      <trkpt lat="47.57653" lon="-0.26363">
        <ele>73.2</ele>
        <time>2014-04-13T07:30:06Z</time>
      </trkpt>
      <trkpt lat="47.57666" lon="-0.26343">
        <ele>73.68</ele>
        <time>2014-04-13T07:30:11Z</time>
      </trkpt>
      <trkpt lat="47.5767" lon="-0.2634">
        <ele>73.68</ele>
        <time>2014-04-13T07:30:12Z</time>
      </trkpt>
      <trkpt lat="47.57685" lon="-0.26333">
        <ele>73.2</ele>
        <time>2014-04-13T07:30:16Z</time>
      </trkpt>
      <trkpt lat="47.57696" lon="-0.26313">
        <ele>72.24</ele>
        <time>2014-04-13T07:30:20Z</time>
      </trkpt>
      <trkpt lat="47.57704" lon="-0.26295">
        <ele>71.76</ele>
        <time>2014-04-13T07:30:23Z</time>
      </trkpt>
      <trkpt lat="47.57721" lon="-0.26274">
        <ele>70.79</ele>
        <time>2014-04-13T07:30:28Z</time>
      </trkpt>
      <trkpt lat="47.57726" lon="-0.26271">
        <ele>69.35</ele>
        <time>2014-04-13T07:30:29Z</time>
      </trkpt>
      <trkpt lat="47.57737" lon="-0.26264">
        <ele>68.39</ele>
        <time>2014-04-13T07:30:31Z</time>
      </trkpt>
      <trkpt lat="47.57763" lon="-0.26248">
        <ele>65.51</ele>
        <time>2014-04-13T07:30:35Z</time>
      </trkpt>
      <trkpt lat="47.57783" lon="-0.26232">
        <ele>64.07</ele>
        <time>2014-04-13T07:30:38Z</time>
      </trkpt>
      <trkpt lat="47.57803" lon="-0.26214">
        <ele>60.7</ele>
        <time>2014-04-13T07:30:41Z</time>
      </trkpt>
      <trkpt lat="47.57816" lon="-0.26199">
        <ele>59.26</ele>
        <time>2014-04-13T07:30:43Z</time>
      </trkpt>
      <trkpt lat="47.57836" lon="-0.26157">
        <ele>57.34</ele>
        <time>2014-04-13T07:30:48Z</time>
      </trkpt>
      <trkpt lat="47.57843" lon="-0.2613">
        <ele>56.37</ele>
        <time>2014-04-13T07:30:51Z</time>
      </trkpt>
      <trkpt lat="47.57848" lon="-0.26114">
        <ele>55.41</ele>
        <time>2014-04-13T07:30:53Z</time>
      </trkpt>
      <trkpt lat="47.57861" lon="-0.26077">
        <ele>54.45</ele>
        <time>2014-04-13T07:30:59Z</time>
      </trkpt>
      <trkpt lat="47.57881" lon="-0.26028">
        <ele>52.53</ele>
        <time>2014-04-13T07:31:07Z</time>
      </trkpt>
      <trkpt lat="47.57893" lon="-0.26002">
        <ele>52.05</ele>
        <time>2014-04-13T07:31:11Z</time>
      </trkpt>
      <trkpt lat="47.57899" lon="-0.2599">
        <ele>51.57</ele>
        <time>2014-04-13T07:31:13Z</time>
      </trkpt>
      <trkpt lat="47.57918" lon="-0.25971">
        <ele>50.61</ele>
        <time>2014-04-13T07:31:18Z</time>
      </trkpt>
      <trkpt lat="47.57964" lon="-0.25964">
        <ele>50.61</ele>
        <time>2014-04-13T07:31:27Z</time>
      </trkpt>
      <trkpt lat="47.57978" lon="-0.25963">
        <ele>50.61</ele>
        <time>2014-04-13T07:31:30Z</time>
      </trkpt>
      <trkpt lat="47.57985" lon="-0.25945">
        <ele>49.65</ele>
        <time>2014-04-13T07:31:34Z</time>
      </trkpt>
      <trkpt lat="47.57987" lon="-0.25903">
        <ele>49.65</ele>
        <time>2014-04-13T07:31:40Z</time>
      </trkpt>
      <trkpt lat="47.57989" lon="-0.25888">
        <ele>49.16</ele>
        <time>2014-04-13T07:31:42Z</time>
      </trkpt>
      <trkpt lat="47.57994" lon="-0.25816">
        <ele>49.16</ele>
        <time>2014-04-13T07:31:52Z</time>
      </trkpt>
      <trkpt lat="47.57996" lon="-0.25771">
        <ele>49.16</ele>
        <time>2014-04-13T07:31:58Z</time>
      </trkpt>
      <trkpt lat="47.57992" lon="-0.25716">
        <ele>48.68</ele>
        <time>2014-04-13T07:32:06Z</time>
      </trkpt>
      <trkpt lat="47.57985" lon="-0.25689">
        <ele>48.68</ele>
        <time>2014-04-13T07:32:10Z</time>
      </trkpt>
      <trkpt lat="47.57977" lon="-0.25661">
        <ele>48.68</ele>
        <time>2014-04-13T07:32:14Z</time>
      </trkpt>
      <trkpt lat="47.57967" lon="-0.25603">
        <ele>49.65</ele>
        <time>2014-04-13T07:32:23Z</time>
      </trkpt>
      <trkpt lat="47.57972" lon="-0.2557">
        <ele>49.65</ele>
        <time>2014-04-13T07:32:29Z</time>
      </trkpt>
      <trkpt lat="47.57971" lon="-0.25558">
        <ele>49.65</ele>
        <time>2014-04-13T07:32:31Z</time>
      </trkpt>
      <trkpt lat="47.57967" lon="-0.25539">
        <ele>49.65</ele>
        <time>2014-04-13T07:32:34Z</time>
      </trkpt>
      <trkpt lat="47.57958" lon="-0.25501">
        <ele>50.13</ele>
        <time>2014-04-13T07:32:41Z</time>
      </trkpt>
      <trkpt lat="47.57953" lon="-0.25479">
        <ele>50.61</ele>
        <time>2014-04-13T07:32:45Z</time>
      </trkpt>
      <trkpt lat="47.57943" lon="-0.25438">
        <ele>51.09</ele>
        <time>2014-04-13T07:32:52Z</time>
      </trkpt>
      <trkpt lat="47.5794" lon="-0.2542">
        <ele>51.09</ele>
        <time>2014-04-13T07:32:55Z</time>
      </trkpt>
      <trkpt lat="47.57923" lon="-0.25396">
        <ele>52.53</ele>
        <time>2014-04-13T07:33:01Z</time>
      </trkpt>
      <trkpt lat="47.57919" lon="-0.25394">
        <ele>52.53</ele>
        <time>2014-04-13T07:33:02Z</time>
      </trkpt>
      <trkpt lat="47.57899" lon="-0.2538">
        <ele>53.49</ele>
        <time>2014-04-13T07:33:08Z</time>
      </trkpt>
      <trkpt lat="47.5787" lon="-0.25356">
        <ele>57.34</ele>
        <time>2014-04-13T07:33:17Z</time>
      </trkpt>
      <trkpt lat="47.57865" lon="-0.25353">
        <ele>54.93</ele>
        <time>2014-04-13T07:33:19Z</time>
      </trkpt>
      <trkpt lat="47.57857" lon="-0.25349">
        <ele>55.89</ele>
        <time>2014-04-13T07:33:24Z</time>
      </trkpt>
      <trkpt lat="47.57836" lon="-0.25344">
        <ele>57.34</ele>
        <time>2014-04-13T07:33:32Z</time>
      </trkpt>
      <trkpt lat="47.5782" lon="-0.2534">
        <ele>58.3</ele>
        <time>2014-04-13T07:33:39Z</time>
      </trkpt>
      <trkpt lat="47.57805" lon="-0.25335">
        <ele>60.22</ele>
        <time>2014-04-13T07:33:46Z</time>
      </trkpt>
      <trkpt lat="47.57796" lon="-0.25328">
        <ele>62.14</ele>
        <time>2014-04-13T07:33:51Z</time>
      </trkpt>
      <trkpt lat="47.57779" lon="-0.25322">
        <ele>64.55</ele>
        <time>2014-04-13T07:34:01Z</time>
      </trkpt>
      <trkpt lat="47.57773" lon="-0.25319">
        <ele>65.99</ele>
        <time>2014-04-13T07:34:04Z</time>
      </trkpt>
      <trkpt lat="47.57765" lon="-0.25319">
        <ele>66.95</ele>
        <time>2014-04-13T07:34:09Z</time>
      </trkpt>
      <trkpt lat="47.57758" lon="-0.25319">
        <ele>68.39</ele>
        <time>2014-04-13T07:34:14Z</time>
      </trkpt>
      <trkpt lat="47.57751" lon="-0.25315">
        <ele>68.87</ele>
        <time>2014-04-13T07:34:23Z</time>
      </trkpt>
      <trkpt lat="47.57746" lon="-0.25312">
        <ele>69.35</ele>
        <time>2014-04-13T07:34:29Z</time>
      </trkpt>
      <trkpt lat="47.57741" lon="-0.2531">
        <ele>70.31</ele>
        <time>2014-04-13T07:34:36Z</time>
      </trkpt>
      <trkpt lat="47.57739" lon="-0.25311">
        <ele>70.31</ele>
        <time>2014-04-13T07:34:40Z</time>
      </trkpt>
      <trkpt lat="47.57729" lon="-0.25307">
        <ele>72.24</ele>
        <time>2014-04-13T07:34:46Z</time>
      </trkpt>
      <trkpt lat="47.5772" lon="-0.25307">
        <ele>73.68</ele>
        <time>2014-04-13T07:34:52Z</time>
      </trkpt>
      <trkpt lat="47.57711" lon="-0.25303">
        <ele>74.16</ele>
        <time>2014-04-13T07:34:58Z</time>
      </trkpt>
      <trkpt lat="47.57701" lon="-0.25301">
        <ele>75.12</ele>
        <time>2014-04-13T07:35:03Z</time>
      </trkpt>
      <trkpt lat="47.57693" lon="-0.25297">
        <ele>75.6</ele>
        <time>2014-04-13T07:35:09Z</time>
      </trkpt>
      <trkpt lat="47.57692" lon="-0.25295">
        <ele>76.08</ele>
        <time>2014-04-13T07:35:16Z</time>
      </trkpt>
      <trkpt lat="47.5769" lon="-0.25294">
        <ele>76.08</ele>
        <time>2014-04-13T07:35:22Z</time>
      </trkpt>
      <trkpt lat="47.57685" lon="-0.25292">
        <ele>77.04</ele>
        <time>2014-04-13T07:35:29Z</time>
      </trkpt>
      <trkpt lat="47.57679" lon="-0.25289">
        <ele>77.52</ele>
        <time>2014-04-13T07:35:32Z</time>
      </trkpt>
      <trkpt lat="47.57667" lon="-0.25287">
        <ele>78.97</ele>
        <time>2014-04-13T07:35:39Z</time>
      </trkpt>
      <trkpt lat="47.57657" lon="-0.25283">
        <ele>80.41</ele>
        <time>2014-04-13T07:35:46Z</time>
      </trkpt>
      <trkpt lat="47.57647" lon="-0.25281">
        <ele>81.85</ele>
        <time>2014-04-13T07:35:53Z</time>
      </trkpt>
      <trkpt lat="47.57638" lon="-0.25277">
        <ele>83.29</ele>
        <time>2014-04-13T07:36:00Z</time>
      </trkpt>
      <trkpt lat="47.57629" lon="-0.25276">
        <ele>83.77</ele>
        <time>2014-04-13T07:36:08Z</time>
      </trkpt>
      <trkpt lat="47.57626" lon="-0.25275">
        <ele>83.77</ele>
        <time>2014-04-13T07:36:10Z</time>
      </trkpt>
      <trkpt lat="47.57615" lon="-0.2528">
        <ele>85.21</ele>
        <time>2014-04-13T07:36:15Z</time>
      </trkpt>
      <trkpt lat="47.57603" lon="-0.25276">
        <ele>86.18</ele>
        <time>2014-04-13T07:36:22Z</time>
      </trkpt>
      <trkpt lat="47.57588" lon="-0.25266">
        <ele>87.62</ele>
        <time>2014-04-13T07:36:31Z</time>
      </trkpt>
      <trkpt lat="47.57583" lon="-0.25262">
        <ele>88.1</ele>
        <time>2014-04-13T07:36:36Z</time>
      </trkpt>
      <trkpt lat="47.57571" lon="-0.25254">
        <ele>88.1</ele>
        <time>2014-04-13T07:36:43Z</time>
      </trkpt>
      <trkpt lat="47.57553" lon="-0.25242">
        <ele>88.58</ele>
        <time>2014-04-13T07:36:52Z</time>
      </trkpt>
      <trkpt lat="47.57529" lon="-0.25226">
        <ele>90.02</ele>
        <time>2014-04-13T07:37:02Z</time>
      </trkpt>
      <trkpt lat="47.57514" lon="-0.25216">
        <ele>90.02</ele>
        <time>2014-04-13T07:37:08Z</time>
      </trkpt>
      <trkpt lat="47.57491" lon="-0.25199">
        <ele>89.54</ele>
        <time>2014-04-13T07:37:16Z</time>
      </trkpt>
      <trkpt lat="47.57464" lon="-0.2518">
        <ele>89.54</ele>
        <time>2014-04-13T07:37:24Z</time>
      </trkpt>
      <trkpt lat="47.57433" lon="-0.25158">
        <ele>89.54</ele>
        <time>2014-04-13T07:37:32Z</time>
      </trkpt>
      <trkpt lat="47.5741" lon="-0.2514">
        <ele>89.54</ele>
        <time>2014-04-13T07:37:38Z</time>
      </trkpt>
      <trkpt lat="47.57377" lon="-0.25116">
        <ele>89.06</ele>
        <time>2014-04-13T07:37:46Z</time>
      </trkpt>
      <trkpt lat="47.57365" lon="-0.25107">
        <ele>88.58</ele>
        <time>2014-04-13T07:37:49Z</time>
      </trkpt>
      <trkpt lat="47.5733" lon="-0.25081">
        <ele>87.62</ele>
        <time>2014-04-13T07:37:57Z</time>
      </trkpt>
      <trkpt lat="47.5728" lon="-0.25044">
        <ele>86.18</ele>
        <time>2014-04-13T07:38:07Z</time>
      </trkpt>
      <trkpt lat="47.57232" lon="-0.2501">
        <ele>85.69</ele>
        <time>2014-04-13T07:38:16Z</time>
      </trkpt>
      <trkpt lat="47.57184" lon="-0.24974">
        <ele>85.69</ele>
        <time>2014-04-13T07:38:25Z</time>
      </trkpt>
      <trkpt lat="47.57173" lon="-0.24967">
        <ele>86.18</ele>
        <time>2014-04-13T07:38:27Z</time>
      </trkpt>
      <trkpt lat="47.57132" lon="-0.24938">
        <ele>87.14</ele>
        <time>2014-04-13T07:38:36Z</time>
      </trkpt>
      <trkpt lat="47.57114" lon="-0.24924">
        <ele>87.62</ele>
        <time>2014-04-13T07:38:40Z</time>
      </trkpt>
      <trkpt lat="47.57091" lon="-0.24908">
        <ele>88.1</ele>
        <time>2014-04-13T07:38:45Z</time>
      </trkpt>
      <trkpt lat="47.57051" lon="-0.2488">
        <ele>88.58</ele>
        <time>2014-04-13T07:38:53Z</time>
      </trkpt>
      <trkpt lat="47.57016" lon="-0.24854">
        <ele>87.14</ele>
        <time>2014-04-13T07:39:00Z</time>
      </trkpt>
      <trkpt lat="47.56977" lon="-0.24825">
        <ele>87.62</ele>
        <time>2014-04-13T07:39:08Z</time>
      </trkpt>
      <trkpt lat="47.56967" lon="-0.24807">
        <ele>86.66</ele>
        <time>2014-04-13T07:39:12Z</time>
      </trkpt>
      <trkpt lat="47.56976" lon="-0.24799">
        <ele>87.14</ele>
        <time>2014-04-13T07:39:15Z</time>
      </trkpt>
      <trkpt lat="47.56984" lon="-0.24798">
        <ele>88.1</ele>
        <time>2014-04-13T07:39:17Z</time>
      </trkpt>
      <trkpt lat="47.57001" lon="-0.24797">
        <ele>87.62</ele>
        <time>2014-04-13T07:39:21Z</time>
      </trkpt>
      <trkpt lat="47.57031" lon="-0.24784">
        <ele>87.14</ele>
        <time>2014-04-13T07:39:28Z</time>
      </trkpt>
      <trkpt lat="47.57034" lon="-0.24764">
        <ele>87.14</ele>
        <time>2014-04-13T07:39:31Z</time>
      </trkpt>
      <trkpt lat="47.57032" lon="-0.2475">
        <ele>87.62</ele>
        <time>2014-04-13T07:39:33Z</time>
      </trkpt>
      <trkpt lat="47.57029" lon="-0.24681">
        <ele>87.62</ele>
        <time>2014-04-13T07:39:43Z</time>
      </trkpt>
      <trkpt lat="47.57027" lon="-0.24668">
        <ele>88.1</ele>
        <time>2014-04-13T07:39:45Z</time>
      </trkpt>
      <trkpt lat="47.57018" lon="-0.24621">
        <ele>87.62</ele>
        <time>2014-04-13T07:39:52Z</time>
      </trkpt>
      <trkpt lat="47.57023" lon="-0.24581">
        <ele>87.62</ele>
        <time>2014-04-13T07:39:58Z</time>
      </trkpt>
      <trkpt lat="47.5703" lon="-0.24573">
        <ele>88.1</ele>
        <time>2014-04-13T07:40:00Z</time>
      </trkpt>
      <trkpt lat="47.57066" lon="-0.24547">
        <ele>89.54</ele>
        <time>2014-04-13T07:40:10Z</time>
      </trkpt>
      <trkpt lat="47.57085" lon="-0.24533">
        <ele>90.5</ele>
        <time>2014-04-13T07:40:16Z</time>
      </trkpt>
      <trkpt lat="47.57114" lon="-0.24512">
        <ele>91.46</ele>
        <time>2014-04-13T07:40:24Z</time>
      </trkpt>
      <trkpt lat="47.57148" lon="-0.24486">
        <ele>92.9</ele>
        <time>2014-04-13T07:40:34Z</time>
      </trkpt>
      <trkpt lat="47.57171" lon="-0.2447">
        <ele>93.39</ele>
        <time>2014-04-13T07:40:41Z</time>
      </trkpt>
      <trkpt lat="47.57196" lon="-0.2445">
        <ele>94.35</ele>
        <time>2014-04-13T07:40:49Z</time>
      </trkpt>
      <trkpt lat="47.57214" lon="-0.24437">
        <ele>94.35</ele>
        <time>2014-04-13T07:40:55Z</time>
      </trkpt>
      <trkpt lat="47.57232" lon="-0.24423">
        <ele>94.35</ele>
        <time>2014-04-13T07:41:01Z</time>
      </trkpt>
      <trkpt lat="47.57253" lon="-0.24407">
        <ele>94.83</ele>
        <time>2014-04-13T07:41:07Z</time>
      </trkpt>
      <trkpt lat="47.57271" lon="-0.24393">
        <ele>94.35</ele>
        <time>2014-04-13T07:41:12Z</time>
      </trkpt>
      <trkpt lat="47.57303" lon="-0.24369">
        <ele>93.87</ele>
        <time>2014-04-13T07:41:20Z</time>
      </trkpt>
      <trkpt lat="47.57324" lon="-0.24352">
        <ele>91.46</ele>
        <time>2014-04-13T07:41:24Z</time>
      </trkpt>
      <trkpt lat="47.57362" lon="-0.24324">
        <ele>88.1</ele>
        <time>2014-04-13T07:41:30Z</time>
      </trkpt>
      <trkpt lat="47.57368" lon="-0.24319">
        <ele>88.1</ele>
        <time>2014-04-13T07:41:31Z</time>
      </trkpt>
      <trkpt lat="47.5738" lon="-0.24311">
        <ele>86.66</ele>
        <time>2014-04-13T07:41:33Z</time>
      </trkpt>
      <trkpt lat="47.57386" lon="-0.24307">
        <ele>86.18</ele>
        <time>2014-04-13T07:41:34Z</time>
      </trkpt>
      <trkpt lat="47.5743" lon="-0.24273">
        <ele>82.33</ele>
        <time>2014-04-13T07:41:41Z</time>
      </trkpt>
      <trkpt lat="47.57444" lon="-0.24263">
        <ele>81.37</ele>
        <time>2014-04-13T07:41:43Z</time>
      </trkpt>
      <trkpt lat="47.57464" lon="-0.24247">
        <ele>78.97</ele>
        <time>2014-04-13T07:41:46Z</time>
      </trkpt>
      <trkpt lat="47.57497" lon="-0.24233">
        <ele>75.12</ele>
        <time>2014-04-13T07:41:51Z</time>
      </trkpt>
      <trkpt lat="47.57523" lon="-0.2423">
        <ele>71.76</ele>
        <time>2014-04-13T07:41:55Z</time>
      </trkpt>
      <trkpt lat="47.57553" lon="-0.24229">
        <ele>66.95</ele>
        <time>2014-04-13T07:42:00Z</time>
      </trkpt>
      <trkpt lat="47.57563" lon="-0.2423">
        <ele>66.47</ele>
        <time>2014-04-13T07:42:02Z</time>
      </trkpt>
      <trkpt lat="47.57571" lon="-0.24229">
        <ele>65.03</ele>
        <time>2014-04-13T07:42:04Z</time>
      </trkpt>
      <trkpt lat="47.57616" lon="-0.24231">
        <ele>61.66</ele>
        <time>2014-04-13T07:42:11Z</time>
      </trkpt>
      <trkpt lat="47.57622" lon="-0.24232">
        <ele>61.18</ele>
        <time>2014-04-13T07:42:12Z</time>
      </trkpt>
      <trkpt lat="47.57633" lon="-0.24232">
        <ele>60.22</ele>
        <time>2014-04-13T07:42:14Z</time>
      </trkpt>
      <trkpt lat="47.57646" lon="-0.24241">
        <ele>59.26</ele>
        <time>2014-04-13T07:42:18Z</time>
      </trkpt>
      <trkpt lat="47.5765" lon="-0.24252">
        <ele>59.26</ele>
        <time>2014-04-13T07:42:20Z</time>
      </trkpt>
      <trkpt lat="47.57662" lon="-0.24273">
        <ele>58.78</ele>
        <time>2014-04-13T07:42:24Z</time>
      </trkpt>
      <trkpt lat="47.57703" lon="-0.24315">
        <ele>58.78</ele>
        <time>2014-04-13T07:42:34Z</time>
      </trkpt>
      <trkpt lat="47.57745" lon="-0.24365">
        <ele>57.82</ele>
        <time>2014-04-13T07:42:44Z</time>
      </trkpt>
      <trkpt lat="47.57763" lon="-0.24398">
        <ele>57.82</ele>
        <time>2014-04-13T07:42:49Z</time>
      </trkpt>
      <trkpt lat="47.57784" lon="-0.24444">
        <ele>56.86</ele>
        <time>2014-04-13T07:42:55Z</time>
      </trkpt>
      <trkpt lat="47.57818" lon="-0.24517">
        <ele>55.41</ele>
        <time>2014-04-13T07:43:04Z</time>
      </trkpt>
      <trkpt lat="47.57847" lon="-0.24581">
        <ele>54.45</ele>
        <time>2014-04-13T07:43:12Z</time>
      </trkpt>
      <trkpt lat="47.57856" lon="-0.24605">
        <ele>54.45</ele>
        <time>2014-04-13T07:43:15Z</time>
      </trkpt>
      <trkpt lat="47.57875" lon="-0.24678">
        <ele>53.01</ele>
        <time>2014-04-13T07:43:23Z</time>
      </trkpt>
      <trkpt lat="47.5788" lon="-0.24696">
        <ele>53.01</ele>
        <time>2014-04-13T07:43:25Z</time>
      </trkpt>
      <trkpt lat="47.57892" lon="-0.24743">
        <ele>52.53</ele>
        <time>2014-04-13T07:43:30Z</time>
      </trkpt>
      <trkpt lat="47.5792" lon="-0.24814">
        <ele>51.09</ele>
        <time>2014-04-13T07:43:38Z</time>
      </trkpt>
      <trkpt lat="47.57932" lon="-0.24838">
        <ele>51.09</ele>
        <time>2014-04-13T07:43:41Z</time>
      </trkpt>
      <trkpt lat="47.57952" lon="-0.24906">
        <ele>50.61</ele>
        <time>2014-04-13T07:43:49Z</time>
      </trkpt>
      <trkpt lat="47.57962" lon="-0.24981">
        <ele>49.65</ele>
        <time>2014-04-13T07:43:57Z</time>
      </trkpt>
      <trkpt lat="47.57974" lon="-0.25075">
        <ele>49.65</ele>
        <time>2014-04-13T07:44:07Z</time>
      </trkpt>
      <trkpt lat="47.57975" lon="-0.25083">
        <ele>49.65</ele>
        <time>2014-04-13T07:44:08Z</time>
      </trkpt>
      <trkpt lat="47.57986" lon="-0.25163">
        <ele>49.65</ele>
        <time>2014-04-13T07:44:17Z</time>
      </trkpt>
      <trkpt lat="47.57993" lon="-0.25229">
        <ele>49.65</ele>
        <time>2014-04-13T07:44:25Z</time>
      </trkpt>
      <trkpt lat="47.57995" lon="-0.25298">
        <ele>50.13</ele>
        <time>2014-04-13T07:44:34Z</time>
      </trkpt>
      <trkpt lat="47.57995" lon="-0.25356">
        <ele>50.61</ele>
        <time>2014-04-13T07:44:43Z</time>
      </trkpt>
      <trkpt lat="47.58006" lon="-0.25364">
        <ele>49.65</ele>
        <time>2014-04-13T07:44:48Z</time>
      </trkpt>
      <trkpt lat="47.58046" lon="-0.25352">
        <ele>49.16</ele>
        <time>2014-04-13T07:44:56Z</time>
      </trkpt>
      <trkpt lat="47.58104" lon="-0.25327">
        <ele>47.72</ele>
        <time>2014-04-13T07:45:06Z</time>
      </trkpt>
      <trkpt lat="47.58122" lon="-0.25323">
        <ele>47.24</ele>
        <time>2014-04-13T07:45:09Z</time>
      </trkpt>
      <trkpt lat="47.58177" lon="-0.25329">
        <ele>46.76</ele>
        <time>2014-04-13T07:45:18Z</time>
      </trkpt>
      <trkpt lat="47.58183" lon="-0.2533">
        <ele>46.28</ele>
        <time>2014-04-13T07:45:19Z</time>
      </trkpt>
      <trkpt lat="47.58203" lon="-0.25321">
        <ele>46.28</ele>
        <time>2014-04-13T07:45:23Z</time>
      </trkpt>
      <trkpt lat="47.58244" lon="-0.25285">
        <ele>45.8</ele>
        <time>2014-04-13T07:45:31Z</time>
      </trkpt>
      <trkpt lat="47.58287" lon="-0.25247">
        <ele>45.8</ele>
        <time>2014-04-13T07:45:39Z</time>
      </trkpt>
      <trkpt lat="47.5833" lon="-0.25201">
        <ele>45.32</ele>
        <time>2014-04-13T07:45:47Z</time>
      </trkpt>
      <trkpt lat="47.58377" lon="-0.25163">
        <ele>45.32</ele>
        <time>2014-04-13T07:45:55Z</time>
      </trkpt>
      <trkpt lat="47.58428" lon="-0.25142">
        <ele>45.32</ele>
        <time>2014-04-13T07:46:03Z</time>
      </trkpt>
      <trkpt lat="47.5847" lon="-0.25136">
        <ele>45.8</ele>
        <time>2014-04-13T07:46:10Z</time>
      </trkpt>
      <trkpt lat="47.58521" lon="-0.25138">
        <ele>45.8</ele>
        <time>2014-04-13T07:46:19Z</time>
      </trkpt>
      <trkpt lat="47.58562" lon="-0.2514">
        <ele>46.28</ele>
        <time>2014-04-13T07:46:27Z</time>
      </trkpt>
      <trkpt lat="47.58615" lon="-0.25144">
        <ele>47.72</ele>
        <time>2014-04-13T07:46:38Z</time>
      </trkpt>
      <trkpt lat="47.58659" lon="-0.25145">
        <ele>48.68</ele>
        <time>2014-04-13T07:46:48Z</time>
      </trkpt>
      <trkpt lat="47.58693" lon="-0.25146">
        <ele>49.16</ele>
        <time>2014-04-13T07:46:57Z</time>
      </trkpt>
      <trkpt lat="47.58723" lon="-0.25149">
        <ele>49.16</ele>
        <time>2014-04-13T07:47:05Z</time>
      </trkpt>
      <trkpt lat="47.58763" lon="-0.25156">
        <ele>49.16</ele>
        <time>2014-04-13T07:47:14Z</time>
      </trkpt>
      <trkpt lat="47.58793" lon="-0.25166">
        <ele>48.68</ele>
        <time>2014-04-13T07:47:20Z</time>
      </trkpt>
      <trkpt lat="47.58827" lon="-0.2518">
        <ele>47.72</ele>
        <time>2014-04-13T07:47:26Z</time>
      </trkpt>
      <trkpt lat="47.58887" lon="-0.25205">
        <ele>44.84</ele>
        <time>2014-04-13T07:47:35Z</time>
      </trkpt>
      <trkpt lat="47.58951" lon="-0.25234">
        <ele>43.4</ele>
        <time>2014-04-13T07:47:44Z</time>
      </trkpt>
      <trkpt lat="47.58999" lon="-0.25255">
        <ele>41.95</ele>
        <time>2014-04-13T07:47:51Z</time>
      </trkpt>
      <trkpt lat="47.5906" lon="-0.25281">
        <ele>40.99</ele>
        <time>2014-04-13T07:48:00Z</time>
      </trkpt>
      <trkpt lat="47.59103" lon="-0.253">
        <ele>40.99</ele>
        <time>2014-04-13T07:48:07Z</time>
      </trkpt>
      <trkpt lat="47.59106" lon="-0.25322">
        <ele>40.99</ele>
        <time>2014-04-13T07:48:11Z</time>
      </trkpt>
      <trkpt lat="47.59094" lon="-0.25336">
        <ele>40.51</ele>
        <time>2014-04-13T07:48:15Z</time>
      </trkpt>
      <trkpt lat="47.59079" lon="-0.25344">
        <ele>40.03</ele>
        <time>2014-04-13T07:48:19Z</time>
      </trkpt>
      <trkpt lat="47.59079" lon="-0.25353">
        <ele>40.03</ele>
        <time>2014-04-13T07:48:21Z</time>
      </trkpt>
      <trkpt lat="47.59084" lon="-0.25386">
        <ele>40.99</ele>
        <time>2014-04-13T07:48:28Z</time>
      </trkpt>
      <trkpt lat="47.59093" lon="-0.25417">
        <ele>40.51</ele>
        <time>2014-04-13T07:48:35Z</time>
      </trkpt>
      <trkpt lat="47.591" lon="-0.25441">
        <ele>40.51</ele>
        <time>2014-04-13T07:48:42Z</time>
      </trkpt>
      <trkpt lat="47.59105" lon="-0.2546">
        <ele>40.51</ele>
        <time>2014-04-13T07:48:48Z</time>
      </trkpt>
      <trkpt lat="47.59106" lon="-0.25465">
        <ele>40.51</ele>
        <time>2014-04-13T07:48:50Z</time>
      </trkpt>
      <trkpt lat="47.59113" lon="-0.2548">
        <ele>40.51</ele>
        <time>2014-04-13T07:48:57Z</time>
      </trkpt>
      <trkpt lat="47.59119" lon="-0.25494">
        <ele>40.99</ele>
        <time>2014-04-13T07:49:03Z</time>
      </trkpt>
      <trkpt lat="47.59122" lon="-0.2551">
        <ele>40.99</ele>
        <time>2014-04-13T07:49:10Z</time>
      </trkpt>
      <trkpt lat="47.59118" lon="-0.25523">
        <ele>41.47</ele>
        <time>2014-04-13T07:49:16Z</time>
      </trkpt>
      <trkpt lat="47.59116" lon="-0.25524">
        <ele>40.99</ele>
        <time>2014-04-13T07:49:17Z</time>
      </trkpt>
      <trkpt lat="47.59111" lon="-0.25532">
        <ele>40.99</ele>
        <time>2014-04-13T07:49:21Z</time>
      </trkpt>
      <trkpt lat="47.59103" lon="-0.25538">
        <ele>40.99</ele>
        <time>2014-04-13T07:49:29Z</time>
      </trkpt>
      <trkpt lat="47.59099" lon="-0.25541">
        <ele>40.99</ele>
        <time>2014-04-13T07:49:32Z</time>
      </trkpt>
      <trkpt lat="47.59096" lon="-0.25546">
        <ele>40.51</ele>
        <time>2014-04-13T07:49:36Z</time>
      </trkpt>
      <trkpt lat="47.59093" lon="-0.2555">
        <ele>40.99</ele>
        <time>2014-04-13T07:49:39Z</time>
      </trkpt>
      <trkpt lat="47.5909" lon="-0.25555">
        <ele>40.99</ele>
        <time>2014-04-13T07:49:43Z</time>
      </trkpt>
      <trkpt lat="47.59084" lon="-0.25563">
        <ele>40.99</ele>
        <time>2014-04-13T07:49:48Z</time>
      </trkpt>
      <trkpt lat="47.59074" lon="-0.2558">
        <ele>41.47</ele>
        <time>2014-04-13T07:49:55Z</time>
      </trkpt>
      <trkpt lat="47.59069" lon="-0.2559">
        <ele>41.47</ele>
        <time>2014-04-13T07:50:00Z</time>
      </trkpt>
      <trkpt lat="47.59058" lon="-0.25605">
        <ele>40.51</ele>
        <time>2014-04-13T07:50:06Z</time>
      </trkpt>
      <trkpt lat="47.59057" lon="-0.25609">
        <ele>40.99</ele>
        <time>2014-04-13T07:50:10Z</time>
      </trkpt>
      <trkpt lat="47.59057" lon="-0.2561">
        <ele>40.99</ele>
        <time>2014-04-13T07:50:11Z</time>
      </trkpt>
      <trkpt lat="47.59046" lon="-0.25623">
        <ele>40.51</ele>
        <time>2014-04-13T07:50:18Z</time>
      </trkpt>
      <trkpt lat="47.59038" lon="-0.25642">
        <ele>41.47</ele>
        <time>2014-04-13T07:50:25Z</time>
      </trkpt>
      <trkpt lat="47.59026" lon="-0.25664">
        <ele>40.99</ele>
        <time>2014-04-13T07:50:32Z</time>
      </trkpt>
      <trkpt lat="47.59018" lon="-0.25682">
        <ele>41.47</ele>
        <time>2014-04-13T07:50:38Z</time>
      </trkpt>
      <trkpt lat="47.5901" lon="-0.25702">
        <ele>41.95</ele>
        <time>2014-04-13T07:50:45Z</time>
      </trkpt>
      <trkpt lat="47.59" lon="-0.25727">
        <ele>41.95</ele>
        <time>2014-04-13T07:50:52Z</time>
      </trkpt>
      <trkpt lat="47.58993" lon="-0.25743">
        <ele>41.47</ele>
        <time>2014-04-13T07:50:58Z</time>
      </trkpt>
      <trkpt lat="47.58988" lon="-0.25757">
        <ele>41.95</ele>
        <time>2014-04-13T07:51:04Z</time>
      </trkpt>
      <trkpt lat="47.5898" lon="-0.25774">
        <ele>42.44</ele>
        <time>2014-04-13T07:51:11Z</time>
      </trkpt>
      <trkpt lat="47.58966" lon="-0.25797">
        <ele>42.44</ele>
        <time>2014-04-13T07:51:20Z</time>
      </trkpt>
      <trkpt lat="47.58954" lon="-0.25818">
        <ele>42.44</ele>
        <time>2014-04-13T07:51:27Z</time>
      </trkpt>
      <trkpt lat="47.58942" lon="-0.2584">
        <ele>41.95</ele>
        <time>2014-04-13T07:51:34Z</time>
      </trkpt>
      <trkpt lat="47.5893" lon="-0.2586">
        <ele>42.44</ele>
        <time>2014-04-13T07:51:41Z</time>
      </trkpt>
      <trkpt lat="47.58921" lon="-0.25867">
        <ele>41.95</ele>
        <time>2014-04-13T07:51:46Z</time>
      </trkpt>
      <trkpt lat="47.58918" lon="-0.25872">
        <ele>42.44</ele>
        <time>2014-04-13T07:51:49Z</time>
      </trkpt>
      <trkpt lat="47.58908" lon="-0.25886">
        <ele>41.95</ele>
        <time>2014-04-13T07:51:56Z</time>
      </trkpt>
      <trkpt lat="47.58905" lon="-0.25895">
        <ele>42.44</ele>
        <time>2014-04-13T07:52:00Z</time>
      </trkpt>
      <trkpt lat="47.58898" lon="-0.25908">
        <ele>41.95</ele>
        <time>2014-04-13T07:52:05Z</time>
      </trkpt>
      <trkpt lat="47.58889" lon="-0.25933">
        <ele>42.44</ele>
        <time>2014-04-13T07:52:12Z</time>
      </trkpt>
      <trkpt lat="47.58883" lon="-0.25957">
        <ele>42.44</ele>
        <time>2014-04-13T07:52:19Z</time>
      </trkpt>
      <trkpt lat="47.58872" lon="-0.25992">
        <ele>42.44</ele>
        <time>2014-04-13T07:52:29Z</time>
      </trkpt>
      <trkpt lat="47.58869" lon="-0.26009">
        <ele>42.44</ele>
        <time>2014-04-13T07:52:35Z</time>
      </trkpt>
      <trkpt lat="47.58865" lon="-0.26032">
        <ele>42.44</ele>
        <time>2014-04-13T07:52:42Z</time>
      </trkpt>
      <trkpt lat="47.5886" lon="-0.26055">
        <ele>42.92</ele>
        <time>2014-04-13T07:52:49Z</time>
      </trkpt>
      <trkpt lat="47.58856" lon="-0.26083">
        <ele>42.44</ele>
        <time>2014-04-13T07:52:56Z</time>
      </trkpt>
      <trkpt lat="47.58851" lon="-0.26107">
        <ele>42.92</ele>
        <time>2014-04-13T07:53:02Z</time>
      </trkpt>
      <trkpt lat="47.58844" lon="-0.26138">
        <ele>43.4</ele>
        <time>2014-04-13T07:53:09Z</time>
      </trkpt>
      <trkpt lat="47.58844" lon="-0.26142">
        <ele>42.92</ele>
        <time>2014-04-13T07:53:10Z</time>
      </trkpt>
      <trkpt lat="47.58857" lon="-0.26157">
        <ele>43.4</ele>
        <time>2014-04-13T07:53:16Z</time>
      </trkpt>
      <trkpt lat="47.58862" lon="-0.26157">
        <ele>43.88</ele>
        <time>2014-04-13T07:53:18Z</time>
      </trkpt>
      <trkpt lat="47.5888" lon="-0.26161">
        <ele>43.88</ele>
        <time>2014-04-13T07:53:25Z</time>
      </trkpt>
      <trkpt lat="47.589" lon="-0.26173">
        <ele>44.36</ele>
        <time>2014-04-13T07:53:32Z</time>
      </trkpt>
      <trkpt lat="47.58914" lon="-0.26182">
        <ele>44.84</ele>
        <time>2014-04-13T07:53:37Z</time>
      </trkpt>
      <trkpt lat="47.58931" lon="-0.26198">
        <ele>45.32</ele>
        <time>2014-04-13T07:53:44Z</time>
      </trkpt>
      <trkpt lat="47.58953" lon="-0.26228">
        <ele>46.76</ele>
        <time>2014-04-13T07:53:53Z</time>
      </trkpt>
      <trkpt lat="47.58972" lon="-0.26258">
        <ele>47.72</ele>
        <time>2014-04-13T07:54:02Z</time>
      </trkpt>
      <trkpt lat="47.58988" lon="-0.26284">
        <ele>48.2</ele>
        <time>2014-04-13T07:54:10Z</time>
      </trkpt>
      <trkpt lat="47.59008" lon="-0.26308">
        <ele>49.65</ele>
        <time>2014-04-13T07:54:19Z</time>
      </trkpt>
      <trkpt lat="47.59032" lon="-0.26319">
        <ele>51.09</ele>
        <time>2014-04-13T07:54:27Z</time>
      </trkpt>
      <trkpt lat="47.59052" lon="-0.26325">
        <ele>52.05</ele>
        <time>2014-04-13T07:54:34Z</time>
      </trkpt>
      <trkpt lat="47.59071" lon="-0.26331">
        <ele>52.05</ele>
        <time>2014-04-13T07:54:41Z</time>
      </trkpt>
      <trkpt lat="47.59087" lon="-0.26335">
        <ele>53.01</ele>
        <time>2014-04-13T07:54:47Z</time>
      </trkpt>
      <trkpt lat="47.59105" lon="-0.26341">
        <ele>54.45</ele>
        <time>2014-04-13T07:54:54Z</time>
      </trkpt>
      <trkpt lat="47.59123" lon="-0.26345">
        <ele>55.89</ele>
        <time>2014-04-13T07:55:01Z</time>
      </trkpt>
      <trkpt lat="47.59141" lon="-0.26349">
        <ele>56.37</ele>
        <time>2014-04-13T07:55:08Z</time>
      </trkpt>
      <trkpt lat="47.59165" lon="-0.26354">
        <ele>57.82</ele>
        <time>2014-04-13T07:55:17Z</time>
      </trkpt>
      <trkpt lat="47.59188" lon="-0.26361">
        <ele>59.74</ele>
        <time>2014-04-13T07:55:26Z</time>
      </trkpt>
      <trkpt lat="47.59208" lon="-0.26372">
        <ele>60.7</ele>
        <time>2014-04-13T07:55:34Z</time>
      </trkpt>
      <trkpt lat="47.59217" lon="-0.26382">
        <ele>62.14</ele>
        <time>2014-04-13T07:55:39Z</time>
      </trkpt>
      <trkpt lat="47.59214" lon="-0.264">
        <ele>62.14</ele>
        <time>2014-04-13T07:55:45Z</time>
      </trkpt>
      <trkpt lat="47.59197" lon="-0.2643">
        <ele>61.66</ele>
        <time>2014-04-13T07:55:53Z</time>
      </trkpt>
      <trkpt lat="47.59198" lon="-0.2645">
        <ele>61.66</ele>
        <time>2014-04-13T07:55:57Z</time>
      </trkpt>
      <trkpt lat="47.59205" lon="-0.26454">
        <ele>61.66</ele>
        <time>2014-04-13T07:55:59Z</time>
      </trkpt>
      <trkpt lat="47.59241" lon="-0.26475">
        <ele>62.14</ele>
        <time>2014-04-13T07:56:10Z</time>
      </trkpt>
      <trkpt lat="47.59248" lon="-0.26478">
        <ele>62.14</ele>
        <time>2014-04-13T07:56:12Z</time>
      </trkpt>
      <trkpt lat="47.5928" lon="-0.26474">
        <ele>60.7</ele>
        <time>2014-04-13T07:56:19Z</time>
      </trkpt>
      <trkpt lat="47.59291" lon="-0.26472">
        <ele>59.74</ele>
        <time>2014-04-13T07:56:21Z</time>
      </trkpt>
      <trkpt lat="47.59306" lon="-0.2647">
        <ele>58.78</ele>
        <time>2014-04-13T07:56:24Z</time>
      </trkpt>
      <trkpt lat="47.59321" lon="-0.26472">
        <ele>56.86</ele>
        <time>2014-04-13T07:56:28Z</time>
      </trkpt>
      <trkpt lat="47.59332" lon="-0.26448">
        <ele>56.37</ele>
        <time>2014-04-13T07:56:34Z</time>
      </trkpt>
      <trkpt lat="47.59342" lon="-0.2642">
        <ele>55.89</ele>
        <time>2014-04-13T07:56:40Z</time>
      </trkpt>
      <trkpt lat="47.5936" lon="-0.2639">
        <ele>53.97</ele>
        <time>2014-04-13T07:56:47Z</time>
      </trkpt>
      <trkpt lat="47.59363" lon="-0.26379">
        <ele>54.45</ele>
        <time>2014-04-13T07:56:49Z</time>
      </trkpt>
      <trkpt lat="47.59358" lon="-0.26364">
        <ele>56.37</ele>
        <time>2014-04-13T07:56:54Z</time>
      </trkpt>
      <trkpt lat="47.59346" lon="-0.26357">
        <ele>58.3</ele>
        <time>2014-04-13T07:57:02Z</time>
      </trkpt>
      <trkpt lat="47.5934" lon="-0.26355">
        <ele>59.26</ele>
        <time>2014-04-13T07:57:05Z</time>
      </trkpt>
      <trkpt lat="47.59321" lon="-0.26346">
        <ele>61.18</ele>
        <time>2014-04-13T07:57:12Z</time>
      </trkpt>
      <trkpt lat="47.59306" lon="-0.26331">
        <ele>61.66</ele>
        <time>2014-04-13T07:57:19Z</time>
      </trkpt>
      <trkpt lat="47.59291" lon="-0.26313">
        <ele>63.1</ele>
        <time>2014-04-13T07:57:26Z</time>
      </trkpt>
      <trkpt lat="47.59284" lon="-0.26303">
        <ele>62.62</ele>
        <time>2014-04-13T07:57:30Z</time>
      </trkpt>
      <trkpt lat="47.59296" lon="-0.26279">
        <ele>61.66</ele>
        <time>2014-04-13T07:57:37Z</time>
      </trkpt>
      <trkpt lat="47.59317" lon="-0.26242">
        <ele>59.74</ele>
        <time>2014-04-13T07:57:45Z</time>
      </trkpt>
      <trkpt lat="47.59334" lon="-0.26229">
        <ele>59.26</ele>
        <time>2014-04-13T07:57:50Z</time>
      </trkpt>
      <trkpt lat="47.59339" lon="-0.2623">
        <ele>59.26</ele>
        <time>2014-04-13T07:57:51Z</time>
      </trkpt>
      <trkpt lat="47.59359" lon="-0.26239">
        <ele>58.78</ele>
        <time>2014-04-13T07:57:56Z</time>
      </trkpt>
      <trkpt lat="47.59374" lon="-0.26241">
        <ele>56.37</ele>
        <time>2014-04-13T07:57:59Z</time>
      </trkpt>
      <trkpt lat="47.59406" lon="-0.26232">
        <ele>53.01</ele>
        <time>2014-04-13T07:58:05Z</time>
      </trkpt>
      <trkpt lat="47.5942" lon="-0.26225">
        <ele>50.61</ele>
        <time>2014-04-13T07:58:08Z</time>
      </trkpt>
      <trkpt lat="47.59446" lon="-0.26204">
        <ele>47.72</ele>
        <time>2014-04-13T07:58:13Z</time>
      </trkpt>
      <trkpt lat="47.59464" lon="-0.26188">
        <ele>46.76</ele>
        <time>2014-04-13T07:58:16Z</time>
      </trkpt>
      <trkpt lat="47.59484" lon="-0.26161">
        <ele>46.28</ele>
        <time>2014-04-13T07:58:21Z</time>
      </trkpt>
      <trkpt lat="47.59491" lon="-0.26154">
        <ele>45.32</ele>
        <time>2014-04-13T07:58:24Z</time>
      </trkpt>
      <trkpt lat="47.59491" lon="-0.26143">
        <ele>45.8</ele>
        <time>2014-04-13T07:58:29Z</time>
      </trkpt>
      <trkpt lat="47.59489" lon="-0.2614">
        <ele>46.28</ele>
        <time>2014-04-13T07:58:30Z</time>
      </trkpt>
      <trkpt lat="47.59476" lon="-0.26111">
        <ele>46.76</ele>
        <time>2014-04-13T07:58:38Z</time>
      </trkpt>
      <trkpt lat="47.59463" lon="-0.26077">
        <ele>47.72</ele>
        <time>2014-04-13T07:58:46Z</time>
      </trkpt>
      <trkpt lat="47.59452" lon="-0.2605">
        <ele>48.68</ele>
        <time>2014-04-13T07:58:52Z</time>
      </trkpt>
      <trkpt lat="47.5944" lon="-0.26014">
        <ele>50.13</ele>
        <time>2014-04-13T07:59:00Z</time>
      </trkpt>
      <trkpt lat="47.59435" lon="-0.25972">
        <ele>50.13</ele>
        <time>2014-04-13T07:59:08Z</time>
      </trkpt>
      <trkpt lat="47.59441" lon="-0.25927">
        <ele>51.09</ele>
        <time>2014-04-13T07:59:16Z</time>
      </trkpt>
      <trkpt lat="47.59447" lon="-0.25866">
        <ele>51.57</ele>
        <time>2014-04-13T07:59:25Z</time>
      </trkpt>
      <trkpt lat="47.59453" lon="-0.25785">
        <ele>52.53</ele>
        <time>2014-04-13T07:59:36Z</time>
      </trkpt>
      <trkpt lat="47.59456" lon="-0.25753">
        <ele>53.01</ele>
        <time>2014-04-13T07:59:40Z</time>
      </trkpt>
      <trkpt lat="47.59461" lon="-0.2567">
        <ele>52.53</ele>
        <time>2014-04-13T07:59:50Z</time>
      </trkpt>
      <trkpt lat="47.59463" lon="-0.25654">
        <ele>52.53</ele>
        <time>2014-04-13T07:59:52Z</time>
      </trkpt>
      <trkpt lat="47.59464" lon="-0.25567">
        <ele>52.53</ele>
        <time>2014-04-13T08:00:03Z</time>
      </trkpt>
      <trkpt lat="47.59466" lon="-0.25551">
        <ele>53.01</ele>
        <time>2014-04-13T08:00:05Z</time>
      </trkpt>
      <trkpt lat="47.59482" lon="-0.25491">
        <ele>53.01</ele>
        <time>2014-04-13T08:00:14Z</time>
      </trkpt>
      <trkpt lat="47.59485" lon="-0.25477">
        <ele>53.01</ele>
        <time>2014-04-13T08:00:16Z</time>
      </trkpt>
      <trkpt lat="47.59487" lon="-0.2545">
        <ele>52.53</ele>
        <time>2014-04-13T08:00:20Z</time>
      </trkpt>
      <trkpt lat="47.59483" lon="-0.25427">
        <ele>52.53</ele>
        <time>2014-04-13T08:00:24Z</time>
      </trkpt>
      <trkpt lat="47.59472" lon="-0.25423">
        <ele>53.01</ele>
        <time>2014-04-13T08:00:28Z</time>
      </trkpt>
      <trkpt lat="47.59454" lon="-0.25428">
        <ele>52.53</ele>
        <time>2014-04-13T08:00:33Z</time>
      </trkpt>
      <trkpt lat="47.59442" lon="-0.25415">
        <ele>51.57</ele>
        <time>2014-04-13T08:00:37Z</time>
      </trkpt>
      <trkpt lat="47.59442" lon="-0.25403">
        <ele>51.57</ele>
        <time>2014-04-13T08:00:39Z</time>
      </trkpt>
      <trkpt lat="47.59444" lon="-0.25347">
        <ele>51.57</ele>
        <time>2014-04-13T08:00:47Z</time>
      </trkpt>
      <trkpt lat="47.59444" lon="-0.25332">
        <ele>51.57</ele>
        <time>2014-04-13T08:00:49Z</time>
      </trkpt>
      <trkpt lat="47.59445" lon="-0.2531">
        <ele>51.09</ele>
        <time>2014-04-13T08:00:52Z</time>
      </trkpt>
      <trkpt lat="47.59455" lon="-0.2524">
        <ele>50.13</ele>
        <time>2014-04-13T08:01:01Z</time>
      </trkpt>
      <trkpt lat="47.59465" lon="-0.25169">
        <ele>49.65</ele>
        <time>2014-04-13T08:01:10Z</time>
      </trkpt>
      <trkpt lat="47.59472" lon="-0.25099">
        <ele>48.68</ele>
        <time>2014-04-13T08:01:18Z</time>
      </trkpt>
      <trkpt lat="47.59487" lon="-0.25032">
        <ele>48.2</ele>
        <time>2014-04-13T08:01:26Z</time>
      </trkpt>
      <trkpt lat="47.59502" lon="-0.24961">
        <ele>47.72</ele>
        <time>2014-04-13T08:01:34Z</time>
      </trkpt>
      <trkpt lat="47.5951" lon="-0.24936">
        <ele>46.76</ele>
        <time>2014-04-13T08:01:37Z</time>
      </trkpt>
      <trkpt lat="47.59543" lon="-0.24891">
        <ele>45.32</ele>
        <time>2014-04-13T08:01:44Z</time>
      </trkpt>
      <trkpt lat="47.59578" lon="-0.24841">
        <ele>43.88</ele>
        <time>2014-04-13T08:01:51Z</time>
      </trkpt>
      <trkpt lat="47.59611" lon="-0.24774">
        <ele>42.44</ele>
        <time>2014-04-13T08:01:59Z</time>
      </trkpt>
      <trkpt lat="47.59628" lon="-0.24708">
        <ele>41.47</ele>
        <time>2014-04-13T08:02:06Z</time>
      </trkpt>
      <trkpt lat="47.59632" lon="-0.24689">
        <ele>41.47</ele>
        <time>2014-04-13T08:02:08Z</time>
      </trkpt>
      <trkpt lat="47.59632" lon="-0.24642">
        <ele>41.47</ele>
        <time>2014-04-13T08:02:13Z</time>
      </trkpt>
      <trkpt lat="47.596" lon="-0.24568">
        <ele>40.51</ele>
        <time>2014-04-13T08:02:22Z</time>
      </trkpt>
      <trkpt lat="47.59576" lon="-0.245">
        <ele>40.99</ele>
        <time>2014-04-13T08:02:30Z</time>
      </trkpt>
      <trkpt lat="47.59557" lon="-0.24416">
        <ele>39.55</ele>
        <time>2014-04-13T08:02:39Z</time>
      </trkpt>
      <trkpt lat="47.59539" lon="-0.24349">
        <ele>38.59</ele>
        <time>2014-04-13T08:02:46Z</time>
      </trkpt>
      <trkpt lat="47.59531" lon="-0.24324">
        <ele>38.11</ele>
        <time>2014-04-13T08:02:49Z</time>
      </trkpt>
      <trkpt lat="47.59525" lon="-0.24289">
        <ele>38.11</ele>
        <time>2014-04-13T08:02:53Z</time>
      </trkpt>
      <trkpt lat="47.59523" lon="-0.24257">
        <ele>38.59</ele>
        <time>2014-04-13T08:02:57Z</time>
      </trkpt>
      <trkpt lat="47.59522" lon="-0.24238">
        <ele>39.55</ele>
        <time>2014-04-13T08:03:00Z</time>
      </trkpt>
      <trkpt lat="47.59514" lon="-0.24182">
        <ele>41.47</ele>
        <time>2014-04-13T08:03:09Z</time>
      </trkpt>
      <trkpt lat="47.59506" lon="-0.24134">
        <ele>43.4</ele>
        <time>2014-04-13T08:03:18Z</time>
      </trkpt>
      <trkpt lat="47.59501" lon="-0.24097">
        <ele>43.88</ele>
        <time>2014-04-13T08:03:25Z</time>
      </trkpt>
      <trkpt lat="47.595" lon="-0.24058">
        <ele>43.88</ele>
        <time>2014-04-13T08:03:32Z</time>
      </trkpt>
      <trkpt lat="47.59501" lon="-0.24046">
        <ele>44.36</ele>
        <time>2014-04-13T08:03:34Z</time>
      </trkpt>
      <trkpt lat="47.59514" lon="-0.23989">
        <ele>44.36</ele>
        <time>2014-04-13T08:03:44Z</time>
      </trkpt>
      <trkpt lat="47.59521" lon="-0.23949">
        <ele>45.32</ele>
        <time>2014-04-13T08:03:51Z</time>
      </trkpt>
      <trkpt lat="47.5952" lon="-0.23898">
        <ele>44.84</ele>
        <time>2014-04-13T08:03:59Z</time>
      </trkpt>
      <trkpt lat="47.59519" lon="-0.23878">
        <ele>44.36</ele>
        <time>2014-04-13T08:04:02Z</time>
      </trkpt>
      <trkpt lat="47.5952" lon="-0.23807">
        <ele>44.84</ele>
        <time>2014-04-13T08:04:13Z</time>
      </trkpt>
      <trkpt lat="47.59526" lon="-0.23751">
        <ele>45.32</ele>
        <time>2014-04-13T08:04:22Z</time>
      </trkpt>
      <trkpt lat="47.59534" lon="-0.2369">
        <ele>45.32</ele>
        <time>2014-04-13T08:04:31Z</time>
      </trkpt>
      <trkpt lat="47.59542" lon="-0.23623">
        <ele>45.32</ele>
        <time>2014-04-13T08:04:40Z</time>
      </trkpt>
      <trkpt lat="47.59551" lon="-0.23564">
        <ele>45.8</ele>
        <time>2014-04-13T08:04:48Z</time>
      </trkpt>
      <trkpt lat="47.59572" lon="-0.23502">
        <ele>44.84</ele>
        <time>2014-04-13T08:04:57Z</time>
      </trkpt>
      <trkpt lat="47.59598" lon="-0.23454">
        <ele>44.84</ele>
        <time>2014-04-13T08:05:05Z</time>
      </trkpt>
      <trkpt lat="47.59633" lon="-0.23395">
        <ele>43.88</ele>
        <time>2014-04-13T08:05:15Z</time>
      </trkpt>
      <trkpt lat="47.59647" lon="-0.23366">
        <ele>43.4</ele>
        <time>2014-04-13T08:05:20Z</time>
      </trkpt>
      <trkpt lat="47.59653" lon="-0.23347">
        <ele>43.4</ele>
        <time>2014-04-13T08:05:23Z</time>
      </trkpt>
      <trkpt lat="47.59665" lon="-0.23296">
        <ele>42.92</ele>
        <time>2014-04-13T08:05:32Z</time>
      </trkpt>
      <trkpt lat="47.59666" lon="-0.23292">
        <ele>42.44</ele>
        <time>2014-04-13T08:05:33Z</time>
      </trkpt>
      <trkpt lat="47.59666" lon="-0.23287">
        <ele>42.44</ele>
        <time>2014-04-13T08:05:38Z</time>
      </trkpt>
      <trkpt lat="47.59666" lon="-0.23287">
        <ele>41.95</ele>
        <time>2014-04-13T08:05:43Z</time>
      </trkpt>
      <trkpt lat="47.59666" lon="-0.23287">
        <ele>41.95</ele>
        <time>2014-04-13T08:06:02Z</time>
      </trkpt>
      <trkpt lat="47.59666" lon="-0.23287">
        <ele>41.95</ele>
        <time>2014-04-13T08:06:19Z</time>
      </trkpt>
      <trkpt lat="47.59666" lon="-0.23287">
        <ele>41.47</ele>
        <time>2014-04-13T08:06:38Z</time>
      </trkpt>
      <trkpt lat="47.59666" lon="-0.23287">
        <ele>41.95</ele>
        <time>2014-04-13T08:06:57Z</time>
      </trkpt>
      <trkpt lat="47.59666" lon="-0.23287">
        <ele>41.95</ele>
        <time>2014-04-13T08:07:19Z</time>
      </trkpt>
      <trkpt lat="47.59666" lon="-0.23287">
        <ele>41.95</ele>
        <time>2014-04-13T08:07:43Z</time>
      </trkpt>
      <trkpt lat="47.59666" lon="-0.23287">
        <ele>41.95</ele>
        <time>2014-04-13T08:08:02Z</time>
      </trkpt>
      <trkpt lat="47.59666" lon="-0.23287">
        <ele>42.44</ele>
        <time>2014-04-13T08:08:24Z</time>
      </trkpt>
      <trkpt lat="47.59666" lon="-0.23287">
        <ele>41.47</ele>
        <time>2014-04-13T08:08:44Z</time>
      </trkpt>
      <trkpt lat="47.59666" lon="-0.23287">
        <ele>41.47</ele>
        <time>2014-04-13T08:09:00Z</time>
      </trkpt>
      <trkpt lat="47.59666" lon="-0.23287">
        <ele>41.95</ele>
        <time>2014-04-13T08:09:09Z</time>
      </trkpt>
      <trkpt lat="47.59666" lon="-0.23287">
        <ele>41.95</ele>
        <time>2014-04-13T08:09:17Z</time>
      </trkpt>
      <trkpt lat="47.59668" lon="-0.23285">
        <ele>41.95</ele>
        <time>2014-04-13T08:09:19Z</time>
      </trkpt>
      <trkpt lat="47.59668" lon="-0.23276">
        <ele>41.95</ele>
        <time>2014-04-13T08:09:22Z</time>
      </trkpt>
      <trkpt lat="47.59661" lon="-0.23267">
        <ele>41.47</ele>
        <time>2014-04-13T08:09:26Z</time>
      </trkpt>
      <trkpt lat="47.59655" lon="-0.23262">
        <ele>41.95</ele>
        <time>2014-04-13T08:09:28Z</time>
      </trkpt>
      <trkpt lat="47.59647" lon="-0.23257">
        <ele>34.26</ele>
        <time>2014-04-13T08:09:30Z</time>
      </trkpt>
      <trkpt lat="47.59643" lon="-0.23255">
        <ele>43.4</ele>
        <time>2014-04-13T08:09:31Z</time>
      </trkpt>
      <trkpt lat="47.59639" lon="-0.23252">
        <ele>41.95</ele>
        <time>2014-04-13T08:09:32Z</time>
      </trkpt>
      <trkpt lat="47.59619" lon="-0.23241">
        <ele>41.47</ele>
        <time>2014-04-13T08:09:36Z</time>
      </trkpt>
      <trkpt lat="47.59577" lon="-0.23215">
        <ele>40.99</ele>
        <time>2014-04-13T08:09:44Z</time>
      </trkpt>
      <trkpt lat="47.59531" lon="-0.23185">
        <ele>41.95</ele>
        <time>2014-04-13T08:09:52Z</time>
      </trkpt>
      <trkpt lat="47.59497" lon="-0.23164">
        <ele>40.99</ele>
        <time>2014-04-13T08:09:58Z</time>
      </trkpt>
      <trkpt lat="47.59457" lon="-0.2314">
        <ele>40.03</ele>
        <time>2014-04-13T08:10:05Z</time>
      </trkpt>
      <trkpt lat="47.59446" lon="-0.23134">
        <ele>40.03</ele>
        <time>2014-04-13T08:10:07Z</time>
      </trkpt>
      <trkpt lat="47.59408" lon="-0.2311">
        <ele>40.03</ele>
        <time>2014-04-13T08:10:14Z</time>
      </trkpt>
      <trkpt lat="47.59391" lon="-0.23102">
        <ele>40.03</ele>
        <time>2014-04-13T08:10:17Z</time>
      </trkpt>
      <trkpt lat="47.5934" lon="-0.23074">
        <ele>40.51</ele>
        <time>2014-04-13T08:10:26Z</time>
      </trkpt>
      <trkpt lat="47.59335" lon="-0.23071">
        <ele>40.03</ele>
        <time>2014-04-13T08:10:27Z</time>
      </trkpt>
      <trkpt lat="47.59295" lon="-0.2305">
        <ele>40.03</ele>
        <time>2014-04-13T08:10:34Z</time>
      </trkpt>
      <trkpt lat="47.59267" lon="-0.23035">
        <ele>40.99</ele>
        <time>2014-04-13T08:10:39Z</time>
      </trkpt>
      <trkpt lat="47.59257" lon="-0.23028">
        <ele>40.99</ele>
        <time>2014-04-13T08:10:41Z</time>
      </trkpt>
      <trkpt lat="47.59242" lon="-0.23021">
        <ele>40.99</ele>
        <time>2014-04-13T08:10:44Z</time>
      </trkpt>
      <trkpt lat="47.59223" lon="-0.23008">
        <ele>41.47</ele>
        <time>2014-04-13T08:10:48Z</time>
      </trkpt>
      <trkpt lat="47.59211" lon="-0.22989">
        <ele>41.95</ele>
        <time>2014-04-13T08:10:52Z</time>
      </trkpt>
      <trkpt lat="47.59205" lon="-0.22969">
        <ele>41.95</ele>
        <time>2014-04-13T08:10:56Z</time>
      </trkpt>
      <trkpt lat="47.59204" lon="-0.22956">
        <ele>41.47</ele>
        <time>2014-04-13T08:10:58Z</time>
      </trkpt>
      <trkpt lat="47.59197" lon="-0.2289">
        <ele>41.47</ele>
        <time>2014-04-13T08:11:07Z</time>
      </trkpt>
      <trkpt lat="47.59195" lon="-0.22865">
        <ele>41.47</ele>
        <time>2014-04-13T08:11:10Z</time>
      </trkpt>
      <trkpt lat="47.59189" lon="-0.22799">
        <ele>41.47</ele>
        <time>2014-04-13T08:11:18Z</time>
      </trkpt>
      <trkpt lat="47.59182" lon="-0.2272">
        <ele>40.03</ele>
        <time>2014-04-13T08:11:27Z</time>
      </trkpt>
      <trkpt lat="47.59176" lon="-0.22669">
        <ele>40.03</ele>
        <time>2014-04-13T08:11:33Z</time>
      </trkpt>
      <trkpt lat="47.59175" lon="-0.22642">
        <ele>40.03</ele>
        <time>2014-04-13T08:11:36Z</time>
      </trkpt>
      <trkpt lat="47.59175" lon="-0.22624">
        <ele>40.03</ele>
        <time>2014-04-13T08:11:38Z</time>
      </trkpt>
      <trkpt lat="47.59167" lon="-0.22543">
        <ele>39.55</ele>
        <time>2014-04-13T08:11:47Z</time>
      </trkpt>
      <trkpt lat="47.59161" lon="-0.22471">
        <ele>39.07</ele>
        <time>2014-04-13T08:11:55Z</time>
      </trkpt>
      <trkpt lat="47.59156" lon="-0.22413">
        <ele>40.51</ele>
        <time>2014-04-13T08:12:02Z</time>
      </trkpt>
      <trkpt lat="47.59149" lon="-0.22346">
        <ele>40.99</ele>
        <time>2014-04-13T08:12:10Z</time>
      </trkpt>
      <trkpt lat="47.59144" lon="-0.22284">
        <ele>41.95</ele>
        <time>2014-04-13T08:12:18Z</time>
      </trkpt>
      <trkpt lat="47.59139" lon="-0.22226">
        <ele>42.44</ele>
        <time>2014-04-13T08:12:26Z</time>
      </trkpt>
      <trkpt lat="47.59134" lon="-0.22158">
        <ele>42.92</ele>
        <time>2014-04-13T08:12:35Z</time>
      </trkpt>
      <trkpt lat="47.59127" lon="-0.22082">
        <ele>42.92</ele>
        <time>2014-04-13T08:12:45Z</time>
      </trkpt>
      <trkpt lat="47.59122" lon="-0.22012">
        <ele>43.4</ele>
        <time>2014-04-13T08:12:54Z</time>
      </trkpt>
      <trkpt lat="47.59121" lon="-0.21996">
        <ele>43.4</ele>
        <time>2014-04-13T08:12:56Z</time>
      </trkpt>
      <trkpt lat="47.59115" lon="-0.21929">
        <ele>42.92</ele>
        <time>2014-04-13T08:13:04Z</time>
      </trkpt>
      <trkpt lat="47.59108" lon="-0.21848">
        <ele>42.92</ele>
        <time>2014-04-13T08:13:14Z</time>
      </trkpt>
      <trkpt lat="47.59107" lon="-0.21832">
        <ele>42.92</ele>
        <time>2014-04-13T08:13:16Z</time>
      </trkpt>
      <trkpt lat="47.59097" lon="-0.21801">
        <ele>41.95</ele>
        <time>2014-04-13T08:13:21Z</time>
      </trkpt>
      <trkpt lat="47.59092" lon="-0.21798">
        <ele>41.95</ele>
        <time>2014-04-13T08:13:25Z</time>
      </trkpt>
      <trkpt lat="47.59081" lon="-0.21799">
        <ele>42.44</ele>
        <time>2014-04-13T08:13:30Z</time>
      </trkpt>
      <trkpt lat="47.59058" lon="-0.21799">
        <ele>41.95</ele>
        <time>2014-04-13T08:13:36Z</time>
      </trkpt>
      <trkpt lat="47.59014" lon="-0.21797">
        <ele>42.44</ele>
        <time>2014-04-13T08:13:45Z</time>
      </trkpt>
      <trkpt lat="47.59009" lon="-0.21798">
        <ele>41.95</ele>
        <time>2014-04-13T08:13:46Z</time>
      </trkpt>
      <trkpt lat="47.58951" lon="-0.21797">
        <ele>42.44</ele>
        <time>2014-04-13T08:13:57Z</time>
      </trkpt>
      <trkpt lat="47.5894" lon="-0.21796">
        <ele>42.44</ele>
        <time>2014-04-13T08:13:59Z</time>
      </trkpt>
      <trkpt lat="47.58904" lon="-0.21799">
        <ele>42.44</ele>
        <time>2014-04-13T08:14:06Z</time>
      </trkpt>
      <trkpt lat="47.58899" lon="-0.21799">
        <ele>41.95</ele>
        <time>2014-04-13T08:14:07Z</time>
      </trkpt>
      <trkpt lat="47.58866" lon="-0.21798">
        <ele>41.47</ele>
        <time>2014-04-13T08:14:13Z</time>
      </trkpt>
      <trkpt lat="47.58832" lon="-0.21797">
        <ele>41.47</ele>
        <time>2014-04-13T08:14:19Z</time>
      </trkpt>
      <trkpt lat="47.58815" lon="-0.21797">
        <ele>40.99</ele>
        <time>2014-04-13T08:14:22Z</time>
      </trkpt>
      <trkpt lat="47.58767" lon="-0.21797">
        <ele>41.47</ele>
        <time>2014-04-13T08:14:31Z</time>
      </trkpt>
      <trkpt lat="47.5872" lon="-0.21794">
        <ele>41.47</ele>
        <time>2014-04-13T08:14:39Z</time>
      </trkpt>
      <trkpt lat="47.58699" lon="-0.21794">
        <ele>41.47</ele>
        <time>2014-04-13T08:14:43Z</time>
      </trkpt>
      <trkpt lat="47.58679" lon="-0.21792">
        <ele>41.47</ele>
        <time>2014-04-13T08:14:48Z</time>
      </trkpt>
      <trkpt lat="47.58671" lon="-0.21782">
        <ele>40.51</ele>
        <time>2014-04-13T08:14:54Z</time>
      </trkpt>
      <trkpt lat="47.5867" lon="-0.21773">
        <ele>40.99</ele>
        <time>2014-04-13T08:14:58Z</time>
      </trkpt>
      <trkpt lat="47.58669" lon="-0.21771">
        <ele>40.51</ele>
        <time>2014-04-13T08:14:59Z</time>
      </trkpt>
      <trkpt lat="47.58666" lon="-0.21755">
        <ele>40.99</ele>
        <time>2014-04-13T08:15:06Z</time>
      </trkpt>
      <trkpt lat="47.58658" lon="-0.2173">
        <ele>40.99</ele>
        <time>2014-04-13T08:15:12Z</time>
      </trkpt>
      <trkpt lat="47.5865" lon="-0.21709">
        <ele>40.99</ele>
        <time>2014-04-13T08:15:18Z</time>
      </trkpt>
      <trkpt lat="47.58647" lon="-0.21688">
        <ele>40.99</ele>
        <time>2014-04-13T08:15:24Z</time>
      </trkpt>
      <trkpt lat="47.5864" lon="-0.21659">
        <ele>40.99</ele>
        <time>2014-04-13T08:15:30Z</time>
      </trkpt>
      <trkpt lat="47.58634" lon="-0.21635">
        <ele>40.99</ele>
        <time>2014-04-13T08:15:35Z</time>
      </trkpt>
      <trkpt lat="47.58628" lon="-0.21612">
        <ele>40.99</ele>
        <time>2014-04-13T08:15:40Z</time>
      </trkpt>
      <trkpt lat="47.58624" lon="-0.21598">
        <ele>32.82</ele>
        <time>2014-04-13T08:15:45Z</time>
      </trkpt>
      <trkpt lat="47.58624" lon="-0.21597">
        <ele>46.28</ele>
        <time>2014-04-13T08:15:46Z</time>
      </trkpt>
      <trkpt lat="47.58623" lon="-0.21597">
        <ele>41.47</ele>
        <time>2014-04-13T08:15:47Z</time>
      </trkpt>
      <trkpt lat="47.5862" lon="-0.21585">
        <ele>40.51</ele>
        <time>2014-04-13T08:15:56Z</time>
      </trkpt>
      <trkpt lat="47.58621" lon="-0.21584">
        <ele>40.99</ele>
        <time>2014-04-13T08:16:03Z</time>
      </trkpt>
      <trkpt lat="47.58621" lon="-0.21584">
        <ele>40.51</ele>
        <time>2014-04-13T08:16:14Z</time>
      </trkpt>
      <trkpt lat="47.5862" lon="-0.21582">
        <ele>40.51</ele>
        <time>2014-04-13T08:16:21Z</time>
      </trkpt>
      <trkpt lat="47.58618" lon="-0.21577">
        <ele>40.99</ele>
        <time>2014-04-13T08:16:23Z</time>
      </trkpt>
      <trkpt lat="47.58612" lon="-0.21557">
        <ele>41.47</ele>
        <time>2014-04-13T08:16:29Z</time>
      </trkpt>
      <trkpt lat="47.58602" lon="-0.21526">
        <ele>41.95</ele>
        <time>2014-04-13T08:16:35Z</time>
      </trkpt>
      <trkpt lat="47.58597" lon="-0.21517">
        <ele>41.47</ele>
        <time>2014-04-13T08:16:37Z</time>
      </trkpt>
      <trkpt lat="47.58591" lon="-0.21498">
        <ele>41.47</ele>
        <time>2014-04-13T08:16:41Z</time>
      </trkpt>
      <trkpt lat="47.58589" lon="-0.21482">
        <ele>41.47</ele>
        <time>2014-04-13T08:16:44Z</time>
      </trkpt>
      <trkpt lat="47.58576" lon="-0.21448">
        <ele>41.95</ele>
        <time>2014-04-13T08:16:50Z</time>
      </trkpt>
      <trkpt lat="47.58567" lon="-0.21419">
        <ele>41.47</ele>
        <time>2014-04-13T08:16:55Z</time>
      </trkpt>
      <trkpt lat="47.58558" lon="-0.21394">
        <ele>41.47</ele>
        <time>2014-04-13T08:17:00Z</time>
      </trkpt>
      <trkpt lat="47.58551" lon="-0.21362">
        <ele>41.95</ele>
        <time>2014-04-13T08:17:06Z</time>
      </trkpt>
      <trkpt lat="47.58544" lon="-0.21344">
        <ele>40.99</ele>
        <time>2014-04-13T08:17:10Z</time>
      </trkpt>
      <trkpt lat="47.58533" lon="-0.21311">
        <ele>41.47</ele>
        <time>2014-04-13T08:17:16Z</time>
      </trkpt>
      <trkpt lat="47.58524" lon="-0.21273">
        <ele>40.99</ele>
        <time>2014-04-13T08:17:23Z</time>
      </trkpt>
      <trkpt lat="47.58519" lon="-0.21249">
        <ele>40.99</ele>
        <time>2014-04-13T08:17:28Z</time>
      </trkpt>
      <trkpt lat="47.58513" lon="-0.21229">
        <ele>41.95</ele>
        <time>2014-04-13T08:17:33Z</time>
      </trkpt>
      <trkpt lat="47.58508" lon="-0.21201">
        <ele>41.47</ele>
        <time>2014-04-13T08:17:39Z</time>
      </trkpt>
      <trkpt lat="47.58496" lon="-0.2117">
        <ele>41.95</ele>
        <time>2014-04-13T08:17:45Z</time>
      </trkpt>
      <trkpt lat="47.58481" lon="-0.21137">
        <ele>41.95</ele>
        <time>2014-04-13T08:17:52Z</time>
      </trkpt>
      <trkpt lat="47.5847" lon="-0.21112">
        <ele>42.44</ele>
        <time>2014-04-13T08:17:57Z</time>
      </trkpt>
      <trkpt lat="47.5845" lon="-0.21086">
        <ele>42.44</ele>
        <time>2014-04-13T08:18:04Z</time>
      </trkpt>
      <trkpt lat="47.58437" lon="-0.21061">
        <ele>42.92</ele>
        <time>2014-04-13T08:18:10Z</time>
      </trkpt>
      <trkpt lat="47.58424" lon="-0.21023">
        <ele>42.92</ele>
        <time>2014-04-13T08:18:18Z</time>
      </trkpt>
      <trkpt lat="47.58413" lon="-0.2099">
        <ele>42.92</ele>
        <time>2014-04-13T08:18:25Z</time>
      </trkpt>
      <trkpt lat="47.584" lon="-0.2095">
        <ele>42.92</ele>
        <time>2014-04-13T08:18:32Z</time>
      </trkpt>
      <trkpt lat="47.58386" lon="-0.20919">
        <ele>43.4</ele>
        <time>2014-04-13T08:18:39Z</time>
      </trkpt>
      <trkpt lat="47.58373" lon="-0.20894">
        <ele>42.92</ele>
        <time>2014-04-13T08:18:44Z</time>
      </trkpt>
      <trkpt lat="47.58354" lon="-0.20864">
        <ele>43.4</ele>
        <time>2014-04-13T08:18:51Z</time>
      </trkpt>
      <trkpt lat="47.58337" lon="-0.20833">
        <ele>43.4</ele>
        <time>2014-04-13T08:18:58Z</time>
      </trkpt>
      <trkpt lat="47.58322" lon="-0.20796">
        <ele>44.84</ele>
        <time>2014-04-13T08:19:06Z</time>
      </trkpt>
      <trkpt lat="47.5831" lon="-0.20767">
        <ele>45.32</ele>
        <time>2014-04-13T08:19:13Z</time>
      </trkpt>
      <trkpt lat="47.58296" lon="-0.20738">
        <ele>45.32</ele>
        <time>2014-04-13T08:19:20Z</time>
      </trkpt>
      <trkpt lat="47.58286" lon="-0.20712">
        <ele>45.8</ele>
        <time>2014-04-13T08:19:27Z</time>
      </trkpt>
      <trkpt lat="47.58278" lon="-0.20692">
        <ele>46.28</ele>
        <time>2014-04-13T08:19:33Z</time>
      </trkpt>
      <trkpt lat="47.58276" lon="-0.2069">
        <ele>46.76</ele>
        <time>2014-04-13T08:19:34Z</time>
      </trkpt>
      <trkpt lat="47.58264" lon="-0.20694">
        <ele>45.8</ele>
        <time>2014-04-13T08:19:38Z</time>
      </trkpt>
      <trkpt lat="47.58236" lon="-0.20719">
        <ele>47.24</ele>
        <time>2014-04-13T08:19:47Z</time>
      </trkpt>
      <trkpt lat="47.58208" lon="-0.20741">
        <ele>47.72</ele>
        <time>2014-04-13T08:19:55Z</time>
      </trkpt>
      <trkpt lat="47.58186" lon="-0.20749">
        <ele>47.72</ele>
        <time>2014-04-13T08:20:01Z</time>
      </trkpt>
      <trkpt lat="47.58162" lon="-0.2075">
        <ele>47.72</ele>
        <time>2014-04-13T08:20:07Z</time>
      </trkpt>
      <trkpt lat="47.58124" lon="-0.20745">
        <ele>48.2</ele>
        <time>2014-04-13T08:20:16Z</time>
      </trkpt>
      <trkpt lat="47.58088" lon="-0.20741">
        <ele>49.16</ele>
        <time>2014-04-13T08:20:25Z</time>
      </trkpt>
      <trkpt lat="47.58057" lon="-0.20738">
        <ele>49.65</ele>
        <time>2014-04-13T08:20:33Z</time>
      </trkpt>
      <trkpt lat="47.58014" lon="-0.20731">
        <ele>50.61</ele>
        <time>2014-04-13T08:20:44Z</time>
      </trkpt>
      <trkpt lat="47.5798" lon="-0.20723">
        <ele>51.09</ele>
        <time>2014-04-13T08:20:53Z</time>
      </trkpt>
      <trkpt lat="47.57945" lon="-0.20718">
        <ele>51.57</ele>
        <time>2014-04-13T08:21:02Z</time>
      </trkpt>
      <trkpt lat="47.57915" lon="-0.20712">
        <ele>52.05</ele>
        <time>2014-04-13T08:21:10Z</time>
      </trkpt>
      <trkpt lat="47.57907" lon="-0.20711">
        <ele>52.53</ele>
        <time>2014-04-13T08:21:12Z</time>
      </trkpt>
      <trkpt lat="47.57879" lon="-0.20706">
        <ele>52.53</ele>
        <time>2014-04-13T08:21:19Z</time>
      </trkpt>
      <trkpt lat="47.57845" lon="-0.20701">
        <ele>53.49</ele>
        <time>2014-04-13T08:21:27Z</time>
      </trkpt>
      <trkpt lat="47.57817" lon="-0.20687">
        <ele>53.97</ele>
        <time>2014-04-13T08:21:35Z</time>
      </trkpt>
      <trkpt lat="47.57791" lon="-0.20663">
        <ele>54.93</ele>
        <time>2014-04-13T08:21:43Z</time>
      </trkpt>
      <trkpt lat="47.57768" lon="-0.20636">
        <ele>55.89</ele>
        <time>2014-04-13T08:21:51Z</time>
      </trkpt>
      <trkpt lat="47.57748" lon="-0.20608">
        <ele>57.34</ele>
        <time>2014-04-13T08:21:59Z</time>
      </trkpt>
      <trkpt lat="47.57723" lon="-0.20574">
        <ele>57.82</ele>
        <time>2014-04-13T08:22:09Z</time>
      </trkpt>
      <trkpt lat="47.57705" lon="-0.20553">
        <ele>59.26</ele>
        <time>2014-04-13T08:22:16Z</time>
      </trkpt>
      <trkpt lat="47.5769" lon="-0.20531">
        <ele>60.7</ele>
        <time>2014-04-13T08:22:23Z</time>
      </trkpt>
      <trkpt lat="47.57675" lon="-0.20512">
        <ele>61.66</ele>
        <time>2014-04-13T08:22:31Z</time>
      </trkpt>
      <trkpt lat="47.57659" lon="-0.20493">
        <ele>63.1</ele>
        <time>2014-04-13T08:22:40Z</time>
      </trkpt>
      <trkpt lat="47.57647" lon="-0.20477">
        <ele>64.55</ele>
        <time>2014-04-13T08:22:47Z</time>
      </trkpt>
      <trkpt lat="47.57632" lon="-0.20458">
        <ele>66.47</ele>
        <time>2014-04-13T08:22:56Z</time>
      </trkpt>
      <trkpt lat="47.57621" lon="-0.20442">
        <ele>68.39</ele>
        <time>2014-04-13T08:23:04Z</time>
      </trkpt>
      <trkpt lat="47.57612" lon="-0.20426">
        <ele>70.31</ele>
        <time>2014-04-13T08:23:12Z</time>
      </trkpt>
      <trkpt lat="47.57606" lon="-0.2042">
        <ele>71.27</ele>
        <time>2014-04-13T08:23:16Z</time>
      </trkpt>
      <trkpt lat="47.57598" lon="-0.20429">
        <ele>71.76</ele>
        <time>2014-04-13T08:23:23Z</time>
      </trkpt>
      <trkpt lat="47.57588" lon="-0.20449">
        <ele>72.72</ele>
        <time>2014-04-13T08:23:32Z</time>
      </trkpt>
      <trkpt lat="47.57578" lon="-0.20471">
        <ele>73.2</ele>
        <time>2014-04-13T08:23:40Z</time>
      </trkpt>
      <trkpt lat="47.57568" lon="-0.20493">
        <ele>74.16</ele>
        <time>2014-04-13T08:23:48Z</time>
      </trkpt>
      <trkpt lat="47.57555" lon="-0.20516">
        <ele>74.16</ele>
        <time>2014-04-13T08:23:56Z</time>
      </trkpt>
      <trkpt lat="47.57542" lon="-0.20542">
        <ele>75.12</ele>
        <time>2014-04-13T08:24:04Z</time>
      </trkpt>
      <trkpt lat="47.57529" lon="-0.20569">
        <ele>75.6</ele>
        <time>2014-04-13T08:24:11Z</time>
      </trkpt>
      <trkpt lat="47.57516" lon="-0.20596">
        <ele>75.6</ele>
        <time>2014-04-13T08:24:18Z</time>
      </trkpt>
      <trkpt lat="47.57496" lon="-0.20636">
        <ele>76.08</ele>
        <time>2014-04-13T08:24:27Z</time>
      </trkpt>
      <trkpt lat="47.57476" lon="-0.20677">
        <ele>75.6</ele>
        <time>2014-04-13T08:24:35Z</time>
      </trkpt>
      <trkpt lat="47.57449" lon="-0.20731">
        <ele>75.12</ele>
        <time>2014-04-13T08:24:44Z</time>
      </trkpt>
      <trkpt lat="47.57436" lon="-0.20757">
        <ele>74.16</ele>
        <time>2014-04-13T08:24:48Z</time>
      </trkpt>
      <trkpt lat="47.57422" lon="-0.20768">
        <ele>73.68</ele>
        <time>2014-04-13T08:24:52Z</time>
      </trkpt>
      <trkpt lat="47.57416" lon="-0.20762">
        <ele>74.16</ele>
        <time>2014-04-13T08:24:54Z</time>
      </trkpt>
      <trkpt lat="47.57402" lon="-0.2075">
        <ele>75.6</ele>
        <time>2014-04-13T08:25:00Z</time>
      </trkpt>
      <trkpt lat="47.57387" lon="-0.20738">
        <ele>78</ele>
        <time>2014-04-13T08:25:08Z</time>
      </trkpt>
      <trkpt lat="47.5738" lon="-0.20733">
        <ele>79.45</ele>
        <time>2014-04-13T08:25:13Z</time>
      </trkpt>
      <trkpt lat="47.57367" lon="-0.20723">
        <ele>81.85</ele>
        <time>2014-04-13T08:25:20Z</time>
      </trkpt>
      <trkpt lat="47.57363" lon="-0.20718">
        <ele>81.85</ele>
        <time>2014-04-13T08:25:23Z</time>
      </trkpt>
      <trkpt lat="47.57358" lon="-0.20712">
        <ele>82.81</ele>
        <time>2014-04-13T08:25:27Z</time>
      </trkpt>
      <trkpt lat="47.57349" lon="-0.20701">
        <ele>84.25</ele>
        <time>2014-04-13T08:25:34Z</time>
      </trkpt>
      <trkpt lat="47.57343" lon="-0.20687">
        <ele>85.21</ele>
        <time>2014-04-13T08:25:41Z</time>
      </trkpt>
      <trkpt lat="47.57341" lon="-0.20681">
        <ele>86.18</ele>
        <time>2014-04-13T08:25:44Z</time>
      </trkpt>
      <trkpt lat="47.57334" lon="-0.20667">
        <ele>87.62</ele>
        <time>2014-04-13T08:25:50Z</time>
      </trkpt>
      <trkpt lat="47.57329" lon="-0.20655">
        <ele>89.06</ele>
        <time>2014-04-13T08:25:57Z</time>
      </trkpt>
      <trkpt lat="47.57323" lon="-0.20648">
        <ele>89.06</ele>
        <time>2014-04-13T08:26:02Z</time>
      </trkpt>
      <trkpt lat="47.57317" lon="-0.20638">
        <ele>90.02</ele>
        <time>2014-04-13T08:26:08Z</time>
      </trkpt>
      <trkpt lat="47.57307" lon="-0.20624">
        <ele>90.98</ele>
        <time>2014-04-13T08:26:15Z</time>
      </trkpt>
      <trkpt lat="47.57299" lon="-0.2061">
        <ele>92.42</ele>
        <time>2014-04-13T08:26:22Z</time>
      </trkpt>
      <trkpt lat="47.5729" lon="-0.20594">
        <ele>93.87</ele>
        <time>2014-04-13T08:26:30Z</time>
      </trkpt>
      <trkpt lat="47.57283" lon="-0.20582">
        <ele>94.83</ele>
        <time>2014-04-13T08:26:37Z</time>
      </trkpt>
      <trkpt lat="47.57275" lon="-0.20566">
        <ele>95.31</ele>
        <time>2014-04-13T08:26:44Z</time>
      </trkpt>
      <trkpt lat="47.57259" lon="-0.20545">
        <ele>95.31</ele>
        <time>2014-04-13T08:26:52Z</time>
      </trkpt>
      <trkpt lat="47.57244" lon="-0.20522">
        <ele>95.79</ele>
        <time>2014-04-13T08:26:59Z</time>
      </trkpt>
      <trkpt lat="47.57227" lon="-0.20501">
        <ele>94.83</ele>
        <time>2014-04-13T08:27:05Z</time>
      </trkpt>
      <trkpt lat="47.57207" lon="-0.20482">
        <ele>94.83</ele>
        <time>2014-04-13T08:27:12Z</time>
      </trkpt>
      <trkpt lat="47.57203" lon="-0.20478">
        <ele>94.35</ele>
        <time>2014-04-13T08:27:13Z</time>
      </trkpt>
      <trkpt lat="47.57195" lon="-0.20464">
        <ele>93.87</ele>
        <time>2014-04-13T08:27:16Z</time>
      </trkpt>
      <trkpt lat="47.57187" lon="-0.2045">
        <ele>93.39</ele>
        <time>2014-04-13T08:27:19Z</time>
      </trkpt>
      <trkpt lat="47.5718" lon="-0.20434">
        <ele>93.39</ele>
        <time>2014-04-13T08:27:22Z</time>
      </trkpt>
      <trkpt lat="47.5718" lon="-0.20401">
        <ele>92.42</ele>
        <time>2014-04-13T08:27:27Z</time>
      </trkpt>
      <trkpt lat="47.57205" lon="-0.20365">
        <ele>94.35</ele>
        <time>2014-04-13T08:27:36Z</time>
      </trkpt>
      <trkpt lat="47.5723" lon="-0.2033">
        <ele>95.31</ele>
        <time>2014-04-13T08:27:45Z</time>
      </trkpt>
      <trkpt lat="47.57249" lon="-0.20303">
        <ele>95.79</ele>
        <time>2014-04-13T08:27:52Z</time>
      </trkpt>
      <trkpt lat="47.57268" lon="-0.20278">
        <ele>96.75</ele>
        <time>2014-04-13T08:27:59Z</time>
      </trkpt>
      <trkpt lat="47.57285" lon="-0.20253">
        <ele>97.23</ele>
        <time>2014-04-13T08:28:05Z</time>
      </trkpt>
      <trkpt lat="47.57296" lon="-0.20234">
        <ele>97.23</ele>
        <time>2014-04-13T08:28:09Z</time>
      </trkpt>
      <trkpt lat="47.57321" lon="-0.20164">
        <ele>96.27</ele>
        <time>2014-04-13T08:28:21Z</time>
      </trkpt>
      <trkpt lat="47.57329" lon="-0.20139">
        <ele>96.27</ele>
        <time>2014-04-13T08:28:25Z</time>
      </trkpt>
      <trkpt lat="47.57335" lon="-0.20105">
        <ele>95.79</ele>
        <time>2014-04-13T08:28:31Z</time>
      </trkpt>
      <trkpt lat="47.57333" lon="-0.201">
        <ele>95.79</ele>
        <time>2014-04-13T08:28:32Z</time>
      </trkpt>
      <trkpt lat="47.57322" lon="-0.20078">
        <ele>94.83</ele>
        <time>2014-04-13T08:28:36Z</time>
      </trkpt>
      <trkpt lat="47.57315" lon="-0.20058">
        <ele>94.35</ele>
        <time>2014-04-13T08:28:39Z</time>
      </trkpt>
      <trkpt lat="47.573" lon="-0.20011">
        <ele>92.9</ele>
        <time>2014-04-13T08:28:46Z</time>
      </trkpt>
      <trkpt lat="47.57294" lon="-0.19989">
        <ele>92.9</ele>
        <time>2014-04-13T08:28:49Z</time>
      </trkpt>
      <trkpt lat="47.57276" lon="-0.19963">
        <ele>91.46</ele>
        <time>2014-04-13T08:28:54Z</time>
      </trkpt>
      <trkpt lat="47.5723" lon="-0.19947">
        <ele>89.06</ele>
        <time>2014-04-13T08:29:02Z</time>
      </trkpt>
      <trkpt lat="47.572" lon="-0.19933">
        <ele>88.1</ele>
        <time>2014-04-13T08:29:07Z</time>
      </trkpt>
      <trkpt lat="47.57169" lon="-0.19922">
        <ele>85.21</ele>
        <time>2014-04-13T08:29:12Z</time>
      </trkpt>
      <trkpt lat="47.57156" lon="-0.19916">
        <ele>83.77</ele>
        <time>2014-04-13T08:29:16Z</time>
      </trkpt>
      <trkpt lat="47.57153" lon="-0.19895">
        <ele>83.77</ele>
        <time>2014-04-13T08:29:21Z</time>
      </trkpt>
      <trkpt lat="47.57152" lon="-0.19872">
        <ele>83.77</ele>
        <time>2014-04-13T08:29:25Z</time>
      </trkpt>
      <trkpt lat="47.57146" lon="-0.19834">
        <ele>82.33</ele>
        <time>2014-04-13T08:29:32Z</time>
      </trkpt>
      <trkpt lat="47.57136" lon="-0.1983">
        <ele>82.33</ele>
        <time>2014-04-13T08:29:35Z</time>
      </trkpt>
      <trkpt lat="47.57111" lon="-0.19831">
        <ele>80.41</ele>
        <time>2014-04-13T08:29:40Z</time>
      </trkpt>
      <trkpt lat="47.5708" lon="-0.19828">
        <ele>79.45</ele>
        <time>2014-04-13T08:29:46Z</time>
      </trkpt>
      <trkpt lat="47.57065" lon="-0.19811">
        <ele>78.97</ele>
        <time>2014-04-13T08:29:51Z</time>
      </trkpt>
      <trkpt lat="47.57062" lon="-0.19801">
        <ele>78.97</ele>
        <time>2014-04-13T08:29:53Z</time>
      </trkpt>
      <trkpt lat="47.57052" lon="-0.19761">
        <ele>79.45</ele>
        <time>2014-04-13T08:30:01Z</time>
      </trkpt>
      <trkpt lat="47.57044" lon="-0.19734">
        <ele>79.45</ele>
        <time>2014-04-13T08:30:08Z</time>
      </trkpt>
      <trkpt lat="47.57038" lon="-0.19715">
        <ele>79.93</ele>
        <time>2014-04-13T08:30:14Z</time>
      </trkpt>
      <trkpt lat="47.57037" lon="-0.19711">
        <ele>79.93</ele>
        <time>2014-04-13T08:30:18Z</time>
      </trkpt>
      <trkpt lat="47.57036" lon="-0.1971">
        <ele>79.93</ele>
        <time>2014-04-13T08:30:19Z</time>
      </trkpt>
      <trkpt lat="47.57037" lon="-0.19713">
        <ele>79.45</ele>
        <time>2014-04-13T08:30:22Z</time>
      </trkpt>
      <trkpt lat="47.57035" lon="-0.19715">
        <ele>79.45</ele>
        <time>2014-04-13T08:30:28Z</time>
      </trkpt>
      <trkpt lat="47.57033" lon="-0.19712">
        <ele>78.97</ele>
        <time>2014-04-13T08:30:32Z</time>
      </trkpt>
      <trkpt lat="47.5703" lon="-0.19703">
        <ele>80.41</ele>
        <time>2014-04-13T08:30:38Z</time>
      </trkpt>
      <trkpt lat="47.57023" lon="-0.19689">
        <ele>81.85</ele>
        <time>2014-04-13T08:30:45Z</time>
      </trkpt>
      <trkpt lat="47.5702" lon="-0.19678">
        <ele>82.33</ele>
        <time>2014-04-13T08:30:49Z</time>
      </trkpt>
      <trkpt lat="47.57011" lon="-0.19662">
        <ele>84.73</ele>
        <time>2014-04-13T08:30:57Z</time>
      </trkpt>
      <trkpt lat="47.57007" lon="-0.19656">
        <ele>85.69</ele>
        <time>2014-04-13T08:31:00Z</time>
      </trkpt>
      <trkpt lat="47.57002" lon="-0.19639">
        <ele>86.66</ele>
        <time>2014-04-13T08:31:08Z</time>
      </trkpt>
      <trkpt lat="47.57001" lon="-0.19637">
        <ele>87.14</ele>
        <time>2014-04-13T08:31:09Z</time>
      </trkpt>
      <trkpt lat="47.56996" lon="-0.19627">
        <ele>87.62</ele>
        <time>2014-04-13T08:31:14Z</time>
      </trkpt>
      <trkpt lat="47.56991" lon="-0.19618">
        <ele>89.06</ele>
        <time>2014-04-13T08:31:18Z</time>
      </trkpt>
      <trkpt lat="47.56982" lon="-0.19593">
        <ele>89.54</ele>
        <time>2014-04-13T08:31:27Z</time>
      </trkpt>
      <trkpt lat="47.56981" lon="-0.19591">
        <ele>90.02</ele>
        <time>2014-04-13T08:31:28Z</time>
      </trkpt>
      <trkpt lat="47.56978" lon="-0.19567">
        <ele>90.5</ele>
        <time>2014-04-13T08:31:37Z</time>
      </trkpt>
      <trkpt lat="47.5697" lon="-0.19547">
        <ele>91.46</ele>
        <time>2014-04-13T08:31:44Z</time>
      </trkpt>
      <trkpt lat="47.56959" lon="-0.19521">
        <ele>91.94</ele>
        <time>2014-04-13T08:31:52Z</time>
      </trkpt>
      <trkpt lat="47.56948" lon="-0.19494">
        <ele>91.46</ele>
        <time>2014-04-13T08:32:00Z</time>
      </trkpt>
      <trkpt lat="47.56936" lon="-0.19466">
        <ele>91.46</ele>
        <time>2014-04-13T08:32:08Z</time>
      </trkpt>
      <trkpt lat="47.56929" lon="-0.19444">
        <ele>91.46</ele>
        <time>2014-04-13T08:32:15Z</time>
      </trkpt>
      <trkpt lat="47.56943" lon="-0.19433">
        <ele>91.94</ele>
        <time>2014-04-13T08:32:21Z</time>
      </trkpt>
      <trkpt lat="47.56962" lon="-0.19423">
        <ele>92.42</ele>
        <time>2014-04-13T08:32:27Z</time>
      </trkpt>
      <trkpt lat="47.56992" lon="-0.19409">
        <ele>92.9</ele>
        <time>2014-04-13T08:32:36Z</time>
      </trkpt>
      <trkpt lat="47.5703" lon="-0.19392">
        <ele>93.39</ele>
        <time>2014-04-13T08:32:47Z</time>
      </trkpt>
      <trkpt lat="47.57056" lon="-0.19381">
        <ele>94.35</ele>
        <time>2014-04-13T08:32:55Z</time>
      </trkpt>
      <trkpt lat="47.57078" lon="-0.19373">
        <ele>94.35</ele>
        <time>2014-04-13T08:33:02Z</time>
      </trkpt>
      <trkpt lat="47.571" lon="-0.19361">
        <ele>94.83</ele>
        <time>2014-04-13T08:33:09Z</time>
      </trkpt>
      <trkpt lat="47.57136" lon="-0.1934">
        <ele>94.83</ele>
        <time>2014-04-13T08:33:19Z</time>
      </trkpt>
      <trkpt lat="47.57174" lon="-0.19309">
        <ele>94.83</ele>
        <time>2014-04-13T08:33:30Z</time>
      </trkpt>
      <trkpt lat="47.57187" lon="-0.19299">
        <ele>94.83</ele>
        <time>2014-04-13T08:33:34Z</time>
      </trkpt>
      <trkpt lat="47.57226" lon="-0.19295">
        <ele>94.83</ele>
        <time>2014-04-13T08:33:43Z</time>
      </trkpt>
      <trkpt lat="47.57235" lon="-0.19295">
        <ele>94.83</ele>
        <time>2014-04-13T08:33:45Z</time>
      </trkpt>
      <trkpt lat="47.57271" lon="-0.19295">
        <ele>95.31</ele>
        <time>2014-04-13T08:33:53Z</time>
      </trkpt>
      <trkpt lat="47.57298" lon="-0.19293">
        <ele>96.27</ele>
        <time>2014-04-13T08:34:00Z</time>
      </trkpt>
      <trkpt lat="47.57319" lon="-0.19292">
        <ele>97.23</ele>
        <time>2014-04-13T08:34:06Z</time>
      </trkpt>
      <trkpt lat="47.57339" lon="-0.19291">
        <ele>97.71</ele>
        <time>2014-04-13T08:34:12Z</time>
      </trkpt>
      <trkpt lat="47.57345" lon="-0.1929">
        <ele>97.71</ele>
        <time>2014-04-13T08:34:14Z</time>
      </trkpt>
      <trkpt lat="47.57375" lon="-0.19283">
        <ele>97.71</ele>
        <time>2014-04-13T08:34:20Z</time>
      </trkpt>
      <trkpt lat="47.57403" lon="-0.19263">
        <ele>98.67</ele>
        <time>2014-04-13T08:34:27Z</time>
      </trkpt>
      <trkpt lat="47.57438" lon="-0.19236">
        <ele>99.15</ele>
        <time>2014-04-13T08:34:36Z</time>
      </trkpt>
      <trkpt lat="47.57473" lon="-0.19213">
        <ele>99.63</ele>
        <time>2014-04-13T08:34:45Z</time>
      </trkpt>
      <trkpt lat="47.5751" lon="-0.19188">
        <ele>99.63</ele>
        <time>2014-04-13T08:34:54Z</time>
      </trkpt>
      <trkpt lat="47.57543" lon="-0.19164">
        <ele>100.11</ele>
        <time>2014-04-13T08:35:02Z</time>
      </trkpt>
      <trkpt lat="47.57556" lon="-0.19156">
        <ele>100.11</ele>
        <time>2014-04-13T08:35:05Z</time>
      </trkpt>
      <trkpt lat="47.57591" lon="-0.19129">
        <ele>99.63</ele>
        <time>2014-04-13T08:35:13Z</time>
      </trkpt>
      <trkpt lat="47.57627" lon="-0.19103">
        <ele>98.67</ele>
        <time>2014-04-13T08:35:21Z</time>
      </trkpt>
      <trkpt lat="47.57667" lon="-0.19073">
        <ele>98.67</ele>
        <time>2014-04-13T08:35:30Z</time>
      </trkpt>
      <trkpt lat="47.57703" lon="-0.19048">
        <ele>97.71</ele>
        <time>2014-04-13T08:35:37Z</time>
      </trkpt>
      <trkpt lat="47.57753" lon="-0.19012">
        <ele>96.27</ele>
        <time>2014-04-13T08:35:46Z</time>
      </trkpt>
      <trkpt lat="47.57774" lon="-0.19002">
        <ele>94.35</ele>
        <time>2014-04-13T08:35:51Z</time>
      </trkpt>
      <trkpt lat="47.5778" lon="-0.18994">
        <ele>95.31</ele>
        <time>2014-04-13T08:35:53Z</time>
      </trkpt>
      <trkpt lat="47.57808" lon="-0.18946">
        <ele>94.35</ele>
        <time>2014-04-13T08:36:02Z</time>
      </trkpt>
      <trkpt lat="47.57834" lon="-0.18905">
        <ele>94.83</ele>
        <time>2014-04-13T08:36:10Z</time>
      </trkpt>
      <trkpt lat="47.5785" lon="-0.18884">
        <ele>93.87</ele>
        <time>2014-04-13T08:36:16Z</time>
      </trkpt>
      <trkpt lat="47.57854" lon="-0.1888">
        <ele>93.39</ele>
        <time>2014-04-13T08:36:18Z</time>
      </trkpt>
      <trkpt lat="47.57865" lon="-0.18866">
        <ele>93.87</ele>
        <time>2014-04-13T08:36:24Z</time>
      </trkpt>
      <trkpt lat="47.5788" lon="-0.1885">
        <ele>93.39</ele>
        <time>2014-04-13T08:36:29Z</time>
      </trkpt>
      <trkpt lat="47.57907" lon="-0.1883">
        <ele>93.39</ele>
        <time>2014-04-13T08:36:36Z</time>
      </trkpt>
      <trkpt lat="47.57922" lon="-0.18815">
        <ele>92.9</ele>
        <time>2014-04-13T08:36:40Z</time>
      </trkpt>
      <trkpt lat="47.57949" lon="-0.188">
        <ele>92.42</ele>
        <time>2014-04-13T08:36:46Z</time>
      </trkpt>
      <trkpt lat="47.57967" lon="-0.18789">
        <ele>91.94</ele>
        <time>2014-04-13T08:36:50Z</time>
      </trkpt>
      <trkpt lat="47.57976" lon="-0.18782">
        <ele>91.94</ele>
        <time>2014-04-13T08:36:52Z</time>
      </trkpt>
      <trkpt lat="47.5801" lon="-0.18756">
        <ele>91.94</ele>
        <time>2014-04-13T08:36:59Z</time>
      </trkpt>
      <trkpt lat="47.5805" lon="-0.18731">
        <ele>91.46</ele>
        <time>2014-04-13T08:37:07Z</time>
      </trkpt>
      <trkpt lat="47.58055" lon="-0.18729">
        <ele>91.46</ele>
        <time>2014-04-13T08:37:08Z</time>
      </trkpt>
      <trkpt lat="47.58064" lon="-0.18724">
        <ele>91.46</ele>
        <time>2014-04-13T08:37:10Z</time>
      </trkpt>
      <trkpt lat="47.58086" lon="-0.18711">
        <ele>90.5</ele>
        <time>2014-04-13T08:37:15Z</time>
      </trkpt>
      <trkpt lat="47.58103" lon="-0.18696">
        <ele>90.02</ele>
        <time>2014-04-13T08:37:18Z</time>
      </trkpt>
      <trkpt lat="47.58121" lon="-0.18672">
        <ele>90.5</ele>
        <time>2014-04-13T08:37:23Z</time>
      </trkpt>
      <trkpt lat="47.5814" lon="-0.18649">
        <ele>89.54</ele>
        <time>2014-04-13T08:37:30Z</time>
      </trkpt>
      <trkpt lat="47.58151" lon="-0.18641">
        <ele>88.1</ele>
        <time>2014-04-13T08:37:33Z</time>
      </trkpt>
      <trkpt lat="47.58191" lon="-0.18638">
        <ele>86.18</ele>
        <time>2014-04-13T08:37:39Z</time>
      </trkpt>
      <trkpt lat="47.58207" lon="-0.18641">
        <ele>85.69</ele>
        <time>2014-04-13T08:37:41Z</time>
      </trkpt>
      <trkpt lat="47.58232" lon="-0.18648">
        <ele>84.73</ele>
        <time>2014-04-13T08:37:45Z</time>
      </trkpt>
      <trkpt lat="47.58244" lon="-0.18648">
        <ele>84.25</ele>
        <time>2014-04-13T08:37:47Z</time>
      </trkpt>
      <trkpt lat="47.58257" lon="-0.18644">
        <ele>84.25</ele>
        <time>2014-04-13T08:37:49Z</time>
      </trkpt>
      <trkpt lat="47.5828" lon="-0.18629">
        <ele>83.77</ele>
        <time>2014-04-13T08:37:53Z</time>
      </trkpt>
      <trkpt lat="47.58325" lon="-0.18581">
        <ele>83.29</ele>
        <time>2014-04-13T08:38:02Z</time>
      </trkpt>
      <trkpt lat="47.5835" lon="-0.18559">
        <ele>82.81</ele>
        <time>2014-04-13T08:38:07Z</time>
      </trkpt>
      <trkpt lat="47.58375" lon="-0.1854">
        <ele>82.81</ele>
        <time>2014-04-13T08:38:13Z</time>
      </trkpt>
      <trkpt lat="47.58389" lon="-0.18533">
        <ele>82.81</ele>
        <time>2014-04-13T08:38:16Z</time>
      </trkpt>
      <trkpt lat="47.58407" lon="-0.18523">
        <ele>82.81</ele>
        <time>2014-04-13T08:38:20Z</time>
      </trkpt>
      <trkpt lat="47.58421" lon="-0.1852">
        <ele>82.81</ele>
        <time>2014-04-13T08:38:23Z</time>
      </trkpt>
      <trkpt lat="47.58439" lon="-0.18523">
        <ele>82.33</ele>
        <time>2014-04-13T08:38:26Z</time>
      </trkpt>
      <trkpt lat="47.58451" lon="-0.18522">
        <ele>81.85</ele>
        <time>2014-04-13T08:38:28Z</time>
      </trkpt>
      <trkpt lat="47.58464" lon="-0.1852">
        <ele>81.85</ele>
        <time>2014-04-13T08:38:30Z</time>
      </trkpt>
      <trkpt lat="47.58476" lon="-0.18517">
        <ele>81.37</ele>
        <time>2014-04-13T08:38:32Z</time>
      </trkpt>
      <trkpt lat="47.58508" lon="-0.18532">
        <ele>79.93</ele>
        <time>2014-04-13T08:38:37Z</time>
      </trkpt>
      <trkpt lat="47.58523" lon="-0.18549">
        <ele>78</ele>
        <time>2014-04-13T08:38:40Z</time>
      </trkpt>
      <trkpt lat="47.58534" lon="-0.18559">
        <ele>76.56</ele>
        <time>2014-04-13T08:38:42Z</time>
      </trkpt>
      <trkpt lat="47.58556" lon="-0.18577">
        <ele>73.68</ele>
        <time>2014-04-13T08:38:47Z</time>
      </trkpt>
      <trkpt lat="47.5856" lon="-0.18582">
        <ele>73.68</ele>
        <time>2014-04-13T08:38:50Z</time>
      </trkpt>
      <trkpt lat="47.58563" lon="-0.18599">
        <ele>73.68</ele>
        <time>2014-04-13T08:38:54Z</time>
      </trkpt>
      <trkpt lat="47.5857" lon="-0.18632">
        <ele>70.79</ele>
        <time>2014-04-13T08:38:58Z</time>
      </trkpt>
      <trkpt lat="47.58583" lon="-0.18695">
        <ele>69.35</ele>
        <time>2014-04-13T08:39:04Z</time>
      </trkpt>
      <trkpt lat="47.58601" lon="-0.18761">
        <ele>67.43</ele>
        <time>2014-04-13T08:39:11Z</time>
      </trkpt>
      <trkpt lat="47.58613" lon="-0.18801">
        <ele>66.47</ele>
        <time>2014-04-13T08:39:16Z</time>
      </trkpt>
      <trkpt lat="47.58622" lon="-0.1883">
        <ele>65.51</ele>
        <time>2014-04-13T08:39:20Z</time>
      </trkpt>
      <trkpt lat="47.58623" lon="-0.18865">
        <ele>63.1</ele>
        <time>2014-04-13T08:39:26Z</time>
      </trkpt>
      <trkpt lat="47.58622" lon="-0.18875">
        <ele>62.14</ele>
        <time>2014-04-13T08:39:28Z</time>
      </trkpt>
      <trkpt lat="47.58619" lon="-0.18892">
        <ele>59.26</ele>
        <time>2014-04-13T08:39:32Z</time>
      </trkpt>
      <trkpt lat="47.58617" lon="-0.18918">
        <ele>57.34</ele>
        <time>2014-04-13T08:39:40Z</time>
      </trkpt>
      <trkpt lat="47.58614" lon="-0.18944">
        <ele>56.37</ele>
        <time>2014-04-13T08:39:45Z</time>
      </trkpt>
      <trkpt lat="47.58614" lon="-0.18951">
        <ele>55.89</ele>
        <time>2014-04-13T08:39:46Z</time>
      </trkpt>
      <trkpt lat="47.5862" lon="-0.18984">
        <ele>54.93</ele>
        <time>2014-04-13T08:39:51Z</time>
      </trkpt>
      <trkpt lat="47.58624" lon="-0.19003">
        <ele>54.45</ele>
        <time>2014-04-13T08:39:53Z</time>
      </trkpt>
      <trkpt lat="47.58627" lon="-0.19022">
        <ele>53.97</ele>
        <time>2014-04-13T08:39:55Z</time>
      </trkpt>
      <trkpt lat="47.58629" lon="-0.19058">
        <ele>52.53</ele>
        <time>2014-04-13T08:39:59Z</time>
      </trkpt>
      <trkpt lat="47.5863" lon="-0.19086">
        <ele>51.57</ele>
        <time>2014-04-13T08:40:03Z</time>
      </trkpt>
      <trkpt lat="47.58642" lon="-0.19089">
        <ele>51.57</ele>
        <time>2014-04-13T08:40:08Z</time>
      </trkpt>
      <trkpt lat="47.58648" lon="-0.19084">
        <ele>52.05</ele>
        <time>2014-04-13T08:40:10Z</time>
      </trkpt>
      <trkpt lat="47.58696" lon="-0.19061">
        <ele>51.09</ele>
        <time>2014-04-13T08:40:19Z</time>
      </trkpt>
      <trkpt lat="47.58746" lon="-0.19037">
        <ele>51.09</ele>
        <time>2014-04-13T08:40:28Z</time>
      </trkpt>
      <trkpt lat="47.58785" lon="-0.19025">
        <ele>50.61</ele>
        <time>2014-04-13T08:40:35Z</time>
      </trkpt>
      <trkpt lat="47.5883" lon="-0.19005">
        <ele>51.09</ele>
        <time>2014-04-13T08:40:44Z</time>
      </trkpt>
      <trkpt lat="47.58854" lon="-0.18993">
        <ele>50.61</ele>
        <time>2014-04-13T08:40:49Z</time>
      </trkpt>
      <trkpt lat="47.58898" lon="-0.1897">
        <ele>51.09</ele>
        <time>2014-04-13T08:40:58Z</time>
      </trkpt>
      <trkpt lat="47.58903" lon="-0.18967">
        <ele>51.09</ele>
        <time>2014-04-13T08:40:59Z</time>
      </trkpt>
      <trkpt lat="47.58925" lon="-0.18951">
        <ele>51.09</ele>
        <time>2014-04-13T08:41:04Z</time>
      </trkpt>
      <trkpt lat="47.58962" lon="-0.18916">
        <ele>51.57</ele>
        <time>2014-04-13T08:41:13Z</time>
      </trkpt>
      <trkpt lat="47.58994" lon="-0.18889">
        <ele>50.61</ele>
        <time>2014-04-13T08:41:20Z</time>
      </trkpt>
      <trkpt lat="47.59046" lon="-0.18847">
        <ele>51.09</ele>
        <time>2014-04-13T08:41:31Z</time>
      </trkpt>
      <trkpt lat="47.59076" lon="-0.18825">
        <ele>51.09</ele>
        <time>2014-04-13T08:41:38Z</time>
      </trkpt>
      <trkpt lat="47.59106" lon="-0.18793">
        <ele>51.57</ele>
        <time>2014-04-13T08:41:46Z</time>
      </trkpt>
      <trkpt lat="47.59139" lon="-0.18756">
        <ele>52.53</ele>
        <time>2014-04-13T08:41:55Z</time>
      </trkpt>
      <trkpt lat="47.59177" lon="-0.18718">
        <ele>53.01</ele>
        <time>2014-04-13T08:42:05Z</time>
      </trkpt>
      <trkpt lat="47.59215" lon="-0.18689">
        <ele>52.53</ele>
        <time>2014-04-13T08:42:14Z</time>
      </trkpt>
      <trkpt lat="47.59232" lon="-0.18675">
        <ele>52.05</ele>
        <time>2014-04-13T08:42:18Z</time>
      </trkpt>
      <trkpt lat="47.59247" lon="-0.18688">
        <ele>51.09</ele>
        <time>2014-04-13T08:42:22Z</time>
      </trkpt>
      <trkpt lat="47.59249" lon="-0.18703">
        <ele>50.61</ele>
        <time>2014-04-13T08:42:24Z</time>
      </trkpt>
      <trkpt lat="47.59259" lon="-0.1878">
        <ele>49.65</ele>
        <time>2014-04-13T08:42:33Z</time>
      </trkpt>
      <trkpt lat="47.59267" lon="-0.18856">
        <ele>48.68</ele>
        <time>2014-04-13T08:42:41Z</time>
      </trkpt>
      <trkpt lat="47.59274" lon="-0.18923">
        <ele>47.72</ele>
        <time>2014-04-13T08:42:48Z</time>
      </trkpt>
      <trkpt lat="47.59277" lon="-0.18951">
        <ele>47.72</ele>
        <time>2014-04-13T08:42:51Z</time>
      </trkpt>
      <trkpt lat="47.59293" lon="-0.1905">
        <ele>46.76</ele>
        <time>2014-04-13T08:43:02Z</time>
      </trkpt>
      <trkpt lat="47.59307" lon="-0.19131">
        <ele>45.8</ele>
        <time>2014-04-13T08:43:11Z</time>
      </trkpt>
      <trkpt lat="47.59306" lon="-0.19166">
        <ele>45.32</ele>
        <time>2014-04-13T08:43:15Z</time>
      </trkpt>
      <trkpt lat="47.59297" lon="-0.192">
        <ele>44.84</ele>
        <time>2014-04-13T08:43:19Z</time>
      </trkpt>
      <trkpt lat="47.59295" lon="-0.19236">
        <ele>44.36</ele>
        <time>2014-04-13T08:43:23Z</time>
      </trkpt>
      <trkpt lat="47.59307" lon="-0.19314">
        <ele>43.88</ele>
        <time>2014-04-13T08:43:32Z</time>
      </trkpt>
      <trkpt lat="47.59332" lon="-0.19379">
        <ele>43.4</ele>
        <time>2014-04-13T08:43:40Z</time>
      </trkpt>
      <trkpt lat="47.59349" lon="-0.19415">
        <ele>43.4</ele>
        <time>2014-04-13T08:43:45Z</time>
      </trkpt>
      <trkpt lat="47.59349" lon="-0.19444">
        <ele>42.92</ele>
        <time>2014-04-13T08:43:49Z</time>
      </trkpt>
      <trkpt lat="47.59347" lon="-0.19479">
        <ele>42.92</ele>
        <time>2014-04-13T08:43:54Z</time>
      </trkpt>
      <trkpt lat="47.59374" lon="-0.19541">
        <ele>41.47</ele>
        <time>2014-04-13T08:44:03Z</time>
      </trkpt>
      <trkpt lat="47.59382" lon="-0.1956">
        <ele>41.47</ele>
        <time>2014-04-13T08:44:06Z</time>
      </trkpt>
      <trkpt lat="47.59383" lon="-0.19587">
        <ele>41.47</ele>
        <time>2014-04-13T08:44:10Z</time>
      </trkpt>
      <trkpt lat="47.59364" lon="-0.19626">
        <ele>40.99</ele>
        <time>2014-04-13T08:44:17Z</time>
      </trkpt>
      <trkpt lat="47.59362" lon="-0.19632">
        <ele>41.47</ele>
        <time>2014-04-13T08:44:18Z</time>
      </trkpt>
      <trkpt lat="47.59361" lon="-0.19659">
        <ele>40.99</ele>
        <time>2014-04-13T08:44:22Z</time>
      </trkpt>
      <trkpt lat="47.59369" lon="-0.19688">
        <ele>40.51</ele>
        <time>2014-04-13T08:44:26Z</time>
      </trkpt>
      <trkpt lat="47.59377" lon="-0.19718">
        <ele>40.03</ele>
        <time>2014-04-13T08:44:30Z</time>
      </trkpt>
      <trkpt lat="47.59398" lon="-0.19787">
        <ele>40.03</ele>
        <time>2014-04-13T08:44:40Z</time>
      </trkpt>
      <trkpt lat="47.59405" lon="-0.19807">
        <ele>39.55</ele>
        <time>2014-04-13T08:44:43Z</time>
      </trkpt>
      <trkpt lat="47.59417" lon="-0.19839">
        <ele>39.07</ele>
        <time>2014-04-13T08:44:48Z</time>
      </trkpt>
      <trkpt lat="47.59431" lon="-0.19844">
        <ele>39.55</ele>
        <time>2014-04-13T08:44:52Z</time>
      </trkpt>
      <trkpt lat="47.59445" lon="-0.19835">
        <ele>39.55</ele>
        <time>2014-04-13T08:44:55Z</time>
      </trkpt>
      <trkpt lat="47.59456" lon="-0.1983">
        <ele>39.55</ele>
        <time>2014-04-13T08:44:57Z</time>
      </trkpt>
      <trkpt lat="47.59488" lon="-0.19836">
        <ele>39.55</ele>
        <time>2014-04-13T08:45:03Z</time>
      </trkpt>
      <trkpt lat="47.59545" lon="-0.1988">
        <ele>38.11</ele>
        <time>2014-04-13T08:45:14Z</time>
      </trkpt>
      <trkpt lat="47.59597" lon="-0.19922">
        <ele>38.11</ele>
        <time>2014-04-13T08:45:24Z</time>
      </trkpt>
      <trkpt lat="47.59612" lon="-0.19934">
        <ele>37.63</ele>
        <time>2014-04-13T08:45:27Z</time>
      </trkpt>
      <trkpt lat="47.59632" lon="-0.19951">
        <ele>37.63</ele>
        <time>2014-04-13T08:45:31Z</time>
      </trkpt>
      <trkpt lat="47.59673" lon="-0.19982">
        <ele>38.11</ele>
        <time>2014-04-13T08:45:39Z</time>
      </trkpt>
      <trkpt lat="47.59715" lon="-0.20017">
        <ele>37.15</ele>
        <time>2014-04-13T08:45:47Z</time>
      </trkpt>
      <trkpt lat="47.59756" lon="-0.20055">
        <ele>37.15</ele>
        <time>2014-04-13T08:45:55Z</time>
      </trkpt>
      <trkpt lat="47.59795" lon="-0.20093">
        <ele>36.67</ele>
        <time>2014-04-13T08:46:03Z</time>
      </trkpt>
      <trkpt lat="47.59799" lon="-0.20097">
        <ele>37.15</ele>
        <time>2014-04-13T08:46:04Z</time>
      </trkpt>
      <trkpt lat="47.59804" lon="-0.20121">
        <ele>37.15</ele>
        <time>2014-04-13T08:46:08Z</time>
      </trkpt>
      <trkpt lat="47.59779" lon="-0.20169">
        <ele>37.15</ele>
        <time>2014-04-13T08:46:17Z</time>
      </trkpt>
      <trkpt lat="47.59758" lon="-0.20208">
        <ele>38.11</ele>
        <time>2014-04-13T08:46:24Z</time>
      </trkpt>
      <trkpt lat="47.59739" lon="-0.20245">
        <ele>38.59</ele>
        <time>2014-04-13T08:46:31Z</time>
      </trkpt>
      <trkpt lat="47.59718" lon="-0.20287">
        <ele>39.55</ele>
        <time>2014-04-13T08:46:39Z</time>
      </trkpt>
      <trkpt lat="47.59715" lon="-0.20292">
        <ele>40.03</ele>
        <time>2014-04-13T08:46:40Z</time>
      </trkpt>
      <trkpt lat="47.59687" lon="-0.20349">
        <ele>40.03</ele>
        <time>2014-04-13T08:46:51Z</time>
      </trkpt>
      <trkpt lat="47.59661" lon="-0.20394">
        <ele>40.51</ele>
        <time>2014-04-13T08:47:00Z</time>
      </trkpt>
      <trkpt lat="47.59634" lon="-0.20419">
        <ele>40.99</ele>
        <time>2014-04-13T08:47:08Z</time>
      </trkpt>
      <trkpt lat="47.59619" lon="-0.20436">
        <ele>41.95</ele>
        <time>2014-04-13T08:47:14Z</time>
      </trkpt>
      <trkpt lat="47.59609" lon="-0.20475">
        <ele>41.95</ele>
        <time>2014-04-13T08:47:21Z</time>
      </trkpt>
      <trkpt lat="47.59598" lon="-0.20531">
        <ele>40.03</ele>
        <time>2014-04-13T08:47:29Z</time>
      </trkpt>
      <trkpt lat="47.59581" lon="-0.20591">
        <ele>39.07</ele>
        <time>2014-04-13T08:47:37Z</time>
      </trkpt>
      <trkpt lat="47.59576" lon="-0.20607">
        <ele>39.07</ele>
        <time>2014-04-13T08:47:39Z</time>
      </trkpt>
      <trkpt lat="47.59569" lon="-0.20665">
        <ele>38.59</ele>
        <time>2014-04-13T08:47:46Z</time>
      </trkpt>
      <trkpt lat="47.59566" lon="-0.20712">
        <ele>38.11</ele>
        <time>2014-04-13T08:47:52Z</time>
      </trkpt>
      <trkpt lat="47.59559" lon="-0.20779">
        <ele>38.11</ele>
        <time>2014-04-13T08:48:00Z</time>
      </trkpt>
      <trkpt lat="47.59558" lon="-0.20786">
        <ele>38.59</ele>
        <time>2014-04-13T08:48:01Z</time>
      </trkpt>
      <trkpt lat="47.59547" lon="-0.20852">
        <ele>38.11</ele>
        <time>2014-04-13T08:48:09Z</time>
      </trkpt>
      <trkpt lat="47.5954" lon="-0.20918">
        <ele>38.59</ele>
        <time>2014-04-13T08:48:17Z</time>
      </trkpt>
      <trkpt lat="47.59536" lon="-0.20949">
        <ele>38.11</ele>
        <time>2014-04-13T08:48:21Z</time>
      </trkpt>
      <trkpt lat="47.59526" lon="-0.21019">
        <ele>38.11</ele>
        <time>2014-04-13T08:48:29Z</time>
      </trkpt>
      <trkpt lat="47.5952" lon="-0.21062">
        <ele>37.63</ele>
        <time>2014-04-13T08:48:34Z</time>
      </trkpt>
      <trkpt lat="47.5951" lon="-0.21134">
        <ele>37.63</ele>
        <time>2014-04-13T08:48:43Z</time>
      </trkpt>
      <trkpt lat="47.59507" lon="-0.2115">
        <ele>37.15</ele>
        <time>2014-04-13T08:48:45Z</time>
      </trkpt>
      <trkpt lat="47.59501" lon="-0.21193">
        <ele>37.15</ele>
        <time>2014-04-13T08:48:51Z</time>
      </trkpt>
      <trkpt lat="47.5949" lon="-0.21256">
        <ele>37.15</ele>
        <time>2014-04-13T08:48:59Z</time>
      </trkpt>
      <trkpt lat="47.59489" lon="-0.21264">
        <ele>37.63</ele>
        <time>2014-04-13T08:49:00Z</time>
      </trkpt>
      <trkpt lat="47.59474" lon="-0.21318">
        <ele>37.63</ele>
        <time>2014-04-13T08:49:07Z</time>
      </trkpt>
      <trkpt lat="47.59455" lon="-0.21359">
        <ele>38.11</ele>
        <time>2014-04-13T08:49:14Z</time>
      </trkpt>
      <trkpt lat="47.59434" lon="-0.21397">
        <ele>38.59</ele>
        <time>2014-04-13T08:49:21Z</time>
      </trkpt>
      <trkpt lat="47.59421" lon="-0.21418">
        <ele>38.11</ele>
        <time>2014-04-13T08:49:25Z</time>
      </trkpt>
      <trkpt lat="47.59392" lon="-0.21469">
        <ele>38.59</ele>
        <time>2014-04-13T08:49:34Z</time>
      </trkpt>
      <trkpt lat="47.5938" lon="-0.21493">
        <ele>38.11</ele>
        <time>2014-04-13T08:49:38Z</time>
      </trkpt>
      <trkpt lat="47.59355" lon="-0.2153">
        <ele>38.11</ele>
        <time>2014-04-13T08:49:46Z</time>
      </trkpt>
      <trkpt lat="47.59328" lon="-0.2156">
        <ele>39.07</ele>
        <time>2014-04-13T08:49:53Z</time>
      </trkpt>
      <trkpt lat="47.59308" lon="-0.21581">
        <ele>39.55</ele>
        <time>2014-04-13T08:49:58Z</time>
      </trkpt>
      <trkpt lat="47.59262" lon="-0.21627">
        <ele>41.47</ele>
        <time>2014-04-13T08:50:09Z</time>
      </trkpt>
      <trkpt lat="47.59258" lon="-0.21631">
        <ele>41.47</ele>
        <time>2014-04-13T08:50:10Z</time>
      </trkpt>
      <trkpt lat="47.59229" lon="-0.21666">
        <ele>41.47</ele>
        <time>2014-04-13T08:50:18Z</time>
      </trkpt>
      <trkpt lat="47.59189" lon="-0.21707">
        <ele>41.47</ele>
        <time>2014-04-13T08:50:28Z</time>
      </trkpt>
      <trkpt lat="47.59155" lon="-0.21744">
        <ele>40.51</ele>
        <time>2014-04-13T08:50:37Z</time>
      </trkpt>
      <trkpt lat="47.59136" lon="-0.21763">
        <ele>40.99</ele>
        <time>2014-04-13T08:50:42Z</time>
      </trkpt>
      <trkpt lat="47.59129" lon="-0.21772">
        <ele>41.47</ele>
        <time>2014-04-13T08:50:44Z</time>
      </trkpt>
      <trkpt lat="47.59113" lon="-0.21798">
        <ele>40.99</ele>
        <time>2014-04-13T08:50:50Z</time>
      </trkpt>
      <trkpt lat="47.59112" lon="-0.21802">
        <ele>41.47</ele>
        <time>2014-04-13T08:50:51Z</time>
      </trkpt>
      <trkpt lat="47.59108" lon="-0.21824">
        <ele>41.47</ele>
        <time>2014-04-13T08:50:55Z</time>
      </trkpt>
      <trkpt lat="47.59108" lon="-0.21837">
        <ele>41.47</ele>
        <time>2014-04-13T08:50:57Z</time>
      </trkpt>
      <trkpt lat="47.59114" lon="-0.21906">
        <ele>42.44</ele>
        <time>2014-04-13T08:51:06Z</time>
      </trkpt>
      <trkpt lat="47.59121" lon="-0.21973">
        <ele>42.44</ele>
        <time>2014-04-13T08:51:14Z</time>
      </trkpt>
      <trkpt lat="47.59127" lon="-0.22041">
        <ele>42.92</ele>
        <time>2014-04-13T08:51:22Z</time>
      </trkpt>
      <trkpt lat="47.59132" lon="-0.22114">
        <ele>42.44</ele>
        <time>2014-04-13T08:51:30Z</time>
      </trkpt>
      <trkpt lat="47.59137" lon="-0.2218">
        <ele>42.44</ele>
        <time>2014-04-13T08:51:37Z</time>
      </trkpt>
      <trkpt lat="47.59144" lon="-0.22267">
        <ele>41.47</ele>
        <time>2014-04-13T08:51:46Z</time>
      </trkpt>
      <trkpt lat="47.59151" lon="-0.22348">
        <ele>40.51</ele>
        <time>2014-04-13T08:51:54Z</time>
      </trkpt>
      <trkpt lat="47.59159" lon="-0.22429">
        <ele>39.55</ele>
        <time>2014-04-13T08:52:02Z</time>
      </trkpt>
      <trkpt lat="47.59168" lon="-0.22525">
        <ele>38.59</ele>
        <time>2014-04-13T08:52:11Z</time>
      </trkpt>
      <trkpt lat="47.59176" lon="-0.2261">
        <ele>38.59</ele>
        <time>2014-04-13T08:52:19Z</time>
      </trkpt>
      <trkpt lat="47.59182" lon="-0.22695">
        <ele>39.55</ele>
        <time>2014-04-13T08:52:27Z</time>
      </trkpt>
      <trkpt lat="47.59187" lon="-0.22757">
        <ele>39.07</ele>
        <time>2014-04-13T08:52:33Z</time>
      </trkpt>
      <trkpt lat="47.59191" lon="-0.22808">
        <ele>40.03</ele>
        <time>2014-04-13T08:52:38Z</time>
      </trkpt>
      <trkpt lat="47.59198" lon="-0.22889">
        <ele>40.99</ele>
        <time>2014-04-13T08:52:47Z</time>
      </trkpt>
      <trkpt lat="47.59201" lon="-0.22927">
        <ele>40.51</ele>
        <time>2014-04-13T08:52:52Z</time>
      </trkpt>
      <trkpt lat="47.59203" lon="-0.22966">
        <ele>41.47</ele>
        <time>2014-04-13T08:52:57Z</time>
      </trkpt>
      <trkpt lat="47.59219" lon="-0.22998">
        <ele>40.51</ele>
        <time>2014-04-13T08:53:02Z</time>
      </trkpt>
      <trkpt lat="47.59223" lon="-0.23001">
        <ele>39.55</ele>
        <time>2014-04-13T08:53:03Z</time>
      </trkpt>
      <trkpt lat="47.59242" lon="-0.23012">
        <ele>39.55</ele>
        <time>2014-04-13T08:53:07Z</time>
      </trkpt>
      <trkpt lat="47.59266" lon="-0.23027">
        <ele>39.07</ele>
        <time>2014-04-13T08:53:12Z</time>
      </trkpt>
      <trkpt lat="47.59298" lon="-0.23048">
        <ele>38.59</ele>
        <time>2014-04-13T08:53:18Z</time>
      </trkpt>
      <trkpt lat="47.59341" lon="-0.23073">
        <ele>38.59</ele>
        <time>2014-04-13T08:53:26Z</time>
      </trkpt>
      <trkpt lat="47.59346" lon="-0.23076">
        <ele>38.59</ele>
        <time>2014-04-13T08:53:27Z</time>
      </trkpt>
      <trkpt lat="47.59369" lon="-0.23086">
        <ele>38.59</ele>
        <time>2014-04-13T08:53:31Z</time>
      </trkpt>
      <trkpt lat="47.5939" lon="-0.23097">
        <ele>38.59</ele>
        <time>2014-04-13T08:53:35Z</time>
      </trkpt>
      <trkpt lat="47.59429" lon="-0.23115">
        <ele>39.55</ele>
        <time>2014-04-13T08:53:43Z</time>
      </trkpt>
      <trkpt lat="47.59462" lon="-0.23135">
        <ele>38.59</ele>
        <time>2014-04-13T08:53:49Z</time>
      </trkpt>
      <trkpt lat="47.59498" lon="-0.23157">
        <ele>39.07</ele>
        <time>2014-04-13T08:53:55Z</time>
      </trkpt>
      <trkpt lat="47.59527" lon="-0.23177">
        <ele>39.55</ele>
        <time>2014-04-13T08:54:01Z</time>
      </trkpt>
      <trkpt lat="47.59556" lon="-0.23193">
        <ele>40.51</ele>
        <time>2014-04-13T08:54:08Z</time>
      </trkpt>
      <trkpt lat="47.59561" lon="-0.23196">
        <ele>40.03</ele>
        <time>2014-04-13T08:54:09Z</time>
      </trkpt>
      <trkpt lat="47.59588" lon="-0.23214">
        <ele>40.99</ele>
        <time>2014-04-13T08:54:15Z</time>
      </trkpt>
      <trkpt lat="47.59611" lon="-0.23231">
        <ele>40.51</ele>
        <time>2014-04-13T08:54:21Z</time>
      </trkpt>
      <trkpt lat="47.59636" lon="-0.23247">
        <ele>40.51</ele>
        <time>2014-04-13T08:54:27Z</time>
      </trkpt>
      <trkpt lat="47.59657" lon="-0.23265">
        <ele>41.47</ele>
        <time>2014-04-13T08:54:33Z</time>
      </trkpt>
      <trkpt lat="47.59669" lon="-0.23284">
        <ele>40.99</ele>
        <time>2014-04-13T08:54:40Z</time>
      </trkpt>
      <trkpt lat="47.59671" lon="-0.2329">
        <ele>40.99</ele>
        <time>2014-04-13T08:54:43Z</time>
      </trkpt>
      <trkpt lat="47.59671" lon="-0.23295">
        <ele>40.99</ele>
        <time>2014-04-13T08:54:48Z</time>
      </trkpt>
      <trkpt lat="47.59671" lon="-0.23296">
        <ele>40.99</ele>
        <time>2014-04-13T08:54:52Z</time>
      </trkpt>
      <trkpt lat="47.59671" lon="-0.23295">
        <ele>40.51</ele>
        <time>2014-04-13T08:54:58Z</time>
      </trkpt>
      <trkpt lat="47.59671" lon="-0.23295">
        <ele>40.51</ele>
        <time>2014-04-13T08:55:21Z</time>
      </trkpt>
      <trkpt lat="47.59671" lon="-0.23295">
        <ele>40.99</ele>
        <time>2014-04-13T08:55:47Z</time>
      </trkpt>
      <trkpt lat="47.59671" lon="-0.23295">
        <ele>40.51</ele>
        <time>2014-04-13T08:56:11Z</time>
      </trkpt>
      <trkpt lat="47.59671" lon="-0.23296">
        <ele>40.51</ele>
        <time>2014-04-13T08:56:39Z</time>
      </trkpt>
      <trkpt lat="47.59671" lon="-0.23296">
        <ele>40.51</ele>
        <time>2014-04-13T08:57:05Z</time>
      </trkpt>
      <trkpt lat="47.59671" lon="-0.23296">
        <ele>40.51</ele>
        <time>2014-04-13T08:57:30Z</time>
      </trkpt>
      <trkpt lat="47.59671" lon="-0.23296">
        <ele>40.51</ele>
        <time>2014-04-13T08:57:47Z</time>
      </trkpt>
      <trkpt lat="47.59672" lon="-0.2329">
        <ele>40.51</ele>
        <time>2014-04-13T08:57:54Z</time>
      </trkpt>
      <trkpt lat="47.59672" lon="-0.2329">
        <ele>40.51</ele>
        <time>2014-04-13T08:58:07Z</time>
      </trkpt>
      <trkpt lat="47.59671" lon="-0.2329">
        <ele>41.47</ele>
        <time>2014-04-13T08:58:19Z</time>
      </trkpt>
      <trkpt lat="47.59672" lon="-0.2329">
        <ele>40.51</ele>
        <time>2014-04-13T08:58:30Z</time>
      </trkpt>
      <trkpt lat="47.59672" lon="-0.2329">
        <ele>41.47</ele>
        <time>2014-04-13T08:58:43Z</time>
      </trkpt>
      <trkpt lat="47.59672" lon="-0.2329">
        <ele>41.47</ele>
        <time>2014-04-13T08:59:03Z</time>
      </trkpt>
      <trkpt lat="47.59672" lon="-0.2329">
        <ele>41.47</ele>
        <time>2014-04-13T08:59:19Z</time>
      </trkpt>
      <trkpt lat="47.59672" lon="-0.2329">
        <ele>41.47</ele>
        <time>2014-04-13T08:59:37Z</time>
      </trkpt>
      <trkpt lat="47.59672" lon="-0.2329">
        <ele>41.47</ele>
        <time>2014-04-13T08:59:52Z</time>
      </trkpt>
      <trkpt lat="47.59672" lon="-0.2329">
        <ele>41.95</ele>
        <time>2014-04-13T09:00:05Z</time>
      </trkpt>
      <trkpt lat="47.59672" lon="-0.2329">
        <ele>41.47</ele>
        <time>2014-04-13T09:00:15Z</time>
      </trkpt>
      <trkpt lat="47.59672" lon="-0.2329">
        <ele>41.47</ele>
        <time>2014-04-13T09:00:26Z</time>
      </trkpt>
      <trkpt lat="47.59677" lon="-0.23279">
        <ele>41.47</ele>
        <time>2014-04-13T09:00:31Z</time>
      </trkpt>
      <trkpt lat="47.5969" lon="-0.23286">
        <ele>41.47</ele>
        <time>2014-04-13T09:00:35Z</time>
      </trkpt>
      <trkpt lat="47.59731" lon="-0.23306">
        <ele>40.03</ele>
        <time>2014-04-13T09:00:43Z</time>
      </trkpt>
      <trkpt lat="47.59779" lon="-0.2332">
        <ele>37.63</ele>
        <time>2014-04-13T09:00:50Z</time>
      </trkpt>
      <trkpt lat="47.59817" lon="-0.23334">
        <ele>36.19</ele>
        <time>2014-04-13T09:00:56Z</time>
      </trkpt>
      <trkpt lat="47.59861" lon="-0.23352">
        <ele>35.23</ele>
        <time>2014-04-13T09:01:03Z</time>
      </trkpt>
      <trkpt lat="47.5989" lon="-0.23365">
        <ele>34.26</ele>
        <time>2014-04-13T09:01:08Z</time>
      </trkpt>
      <trkpt lat="47.59895" lon="-0.23367">
        <ele>34.74</ele>
        <time>2014-04-13T09:01:09Z</time>
      </trkpt>
      <trkpt lat="47.59927" lon="-0.23382">
        <ele>34.26</ele>
        <time>2014-04-13T09:01:15Z</time>
      </trkpt>
      <trkpt lat="47.59936" lon="-0.23386">
        <ele>34.26</ele>
        <time>2014-04-13T09:01:17Z</time>
      </trkpt>
      <trkpt lat="47.59945" lon="-0.23392">
        <ele>33.78</ele>
        <time>2014-04-13T09:01:19Z</time>
      </trkpt>
      <trkpt lat="47.5996" lon="-0.234">
        <ele>33.78</ele>
        <time>2014-04-13T09:01:22Z</time>
      </trkpt>
      <trkpt lat="47.59983" lon="-0.2341">
        <ele>33.78</ele>
        <time>2014-04-13T09:01:28Z</time>
      </trkpt>
      <trkpt lat="47.60002" lon="-0.23412">
        <ele>33.3</ele>
        <time>2014-04-13T09:01:32Z</time>
      </trkpt>
      <trkpt lat="47.60016" lon="-0.23409">
        <ele>33.3</ele>
        <time>2014-04-13T09:01:35Z</time>
      </trkpt>
      <trkpt lat="47.60041" lon="-0.23406">
        <ele>32.82</ele>
        <time>2014-04-13T09:01:41Z</time>
      </trkpt>
      <trkpt lat="47.60055" lon="-0.23406">
        <ele>33.78</ele>
        <time>2014-04-13T09:01:45Z</time>
      </trkpt>
      <trkpt lat="47.6008" lon="-0.23414">
        <ele>32.82</ele>
        <time>2014-04-13T09:01:51Z</time>
      </trkpt>
      <trkpt lat="47.60089" lon="-0.23416">
        <ele>33.3</ele>
        <time>2014-04-13T09:01:53Z</time>
      </trkpt>
      <trkpt lat="47.60112" lon="-0.23427">
        <ele>33.78</ele>
        <time>2014-04-13T09:01:58Z</time>
      </trkpt>
      <trkpt lat="47.60131" lon="-0.23436">
        <ele>33.3</ele>
        <time>2014-04-13T09:02:02Z</time>
      </trkpt>
      <trkpt lat="47.60166" lon="-0.23454">
        <ele>32.82</ele>
        <time>2014-04-13T09:02:10Z</time>
      </trkpt>
      <trkpt lat="47.60182" lon="-0.23461">
        <ele>32.34</ele>
        <time>2014-04-13T09:02:15Z</time>
      </trkpt>
      <trkpt lat="47.60198" lon="-0.23472">
        <ele>32.34</ele>
        <time>2014-04-13T09:02:20Z</time>
      </trkpt>
      <trkpt lat="47.60214" lon="-0.23487">
        <ele>32.34</ele>
        <time>2014-04-13T09:02:25Z</time>
      </trkpt>
      <trkpt lat="47.6023" lon="-0.23503">
        <ele>32.34</ele>
        <time>2014-04-13T09:02:30Z</time>
      </trkpt>
      <trkpt lat="47.60258" lon="-0.23533">
        <ele>32.34</ele>
        <time>2014-04-13T09:02:38Z</time>
      </trkpt>
      <trkpt lat="47.60275" lon="-0.23554">
        <ele>32.34</ele>
        <time>2014-04-13T09:02:43Z</time>
      </trkpt>
      <trkpt lat="47.6029" lon="-0.23567">
        <ele>31.86</ele>
        <time>2014-04-13T09:02:48Z</time>
      </trkpt>
      <trkpt lat="47.60301" lon="-0.23559">
        <ele>31.86</ele>
        <time>2014-04-13T09:02:52Z</time>
      </trkpt>
      <trkpt lat="47.60309" lon="-0.23538">
        <ele>31.38</ele>
        <time>2014-04-13T09:02:57Z</time>
      </trkpt>
      <trkpt lat="47.60323" lon="-0.23505">
        <ele>31.38</ele>
        <time>2014-04-13T09:03:05Z</time>
      </trkpt>
      <trkpt lat="47.60339" lon="-0.23459">
        <ele>31.38</ele>
        <time>2014-04-13T09:03:14Z</time>
      </trkpt>
      <trkpt lat="47.60346" lon="-0.23439">
        <ele>31.38</ele>
        <time>2014-04-13T09:03:18Z</time>
      </trkpt>
      <trkpt lat="47.60359" lon="-0.234">
        <ele>31.38</ele>
        <time>2014-04-13T09:03:27Z</time>
      </trkpt>
      <trkpt lat="47.60366" lon="-0.23386">
        <ele>31.38</ele>
        <time>2014-04-13T09:03:32Z</time>
      </trkpt>
      <trkpt lat="47.60368" lon="-0.23363">
        <ele>30.9</ele>
        <time>2014-04-13T09:03:40Z</time>
      </trkpt>
      <trkpt lat="47.60368" lon="-0.23351">
        <ele>30.42</ele>
        <time>2014-04-13T09:03:45Z</time>
      </trkpt>
      <trkpt lat="47.60368" lon="-0.23346">
        <ele>30.42</ele>
        <time>2014-04-13T09:03:47Z</time>
      </trkpt>
      <trkpt lat="47.60371" lon="-0.23335">
        <ele>30.42</ele>
        <time>2014-04-13T09:03:52Z</time>
      </trkpt>
      <trkpt lat="47.60372" lon="-0.23315">
        <ele>30.9</ele>
        <time>2014-04-13T09:03:59Z</time>
      </trkpt>
      <trkpt lat="47.60373" lon="-0.23302">
        <ele>29.94</ele>
        <time>2014-04-13T09:04:03Z</time>
      </trkpt>
      <trkpt lat="47.60376" lon="-0.23281">
        <ele>30.9</ele>
        <time>2014-04-13T09:04:10Z</time>
      </trkpt>
      <trkpt lat="47.60381" lon="-0.23254">
        <ele>30.9</ele>
        <time>2014-04-13T09:04:17Z</time>
      </trkpt>
      <trkpt lat="47.60387" lon="-0.23218">
        <ele>31.38</ele>
        <time>2014-04-13T09:04:24Z</time>
      </trkpt>
      <trkpt lat="47.6038" lon="-0.23187">
        <ele>31.38</ele>
        <time>2014-04-13T09:04:31Z</time>
      </trkpt>
      <trkpt lat="47.60375" lon="-0.23159">
        <ele>31.38</ele>
        <time>2014-04-13T09:04:38Z</time>
      </trkpt>
      <trkpt lat="47.60368" lon="-0.23132">
        <ele>32.34</ele>
        <time>2014-04-13T09:04:45Z</time>
      </trkpt>
      <trkpt lat="47.60359" lon="-0.23099">
        <ele>32.34</ele>
        <time>2014-04-13T09:04:54Z</time>
      </trkpt>
      <trkpt lat="47.60352" lon="-0.23069">
        <ele>32.82</ele>
        <time>2014-04-13T09:05:01Z</time>
      </trkpt>
      <trkpt lat="47.60343" lon="-0.23038">
        <ele>32.34</ele>
        <time>2014-04-13T09:05:08Z</time>
      </trkpt>
      <trkpt lat="47.60332" lon="-0.23002">
        <ele>32.82</ele>
        <time>2014-04-13T09:05:17Z</time>
      </trkpt>
      <trkpt lat="47.60327" lon="-0.22987">
        <ele>33.3</ele>
        <time>2014-04-13T09:05:21Z</time>
      </trkpt>
      <trkpt lat="47.60335" lon="-0.22981">
        <ele>33.3</ele>
        <time>2014-04-13T09:05:26Z</time>
      </trkpt>
      <trkpt lat="47.6036" lon="-0.22998">
        <ele>34.26</ele>
        <time>2014-04-13T09:05:34Z</time>
      </trkpt>
      <trkpt lat="47.604" lon="-0.2301">
        <ele>34.26</ele>
        <time>2014-04-13T09:05:43Z</time>
      </trkpt>
      <trkpt lat="47.6044" lon="-0.23018">
        <ele>34.74</ele>
        <time>2014-04-13T09:05:51Z</time>
      </trkpt>
      <trkpt lat="47.60496" lon="-0.23033">
        <ele>33.78</ele>
        <time>2014-04-13T09:06:01Z</time>
      </trkpt>
      <trkpt lat="47.60554" lon="-0.23048">
        <ele>33.78</ele>
        <time>2014-04-13T09:06:11Z</time>
      </trkpt>
      <trkpt lat="47.60611" lon="-0.23059">
        <ele>33.3</ele>
        <time>2014-04-13T09:06:20Z</time>
      </trkpt>
      <trkpt lat="47.60676" lon="-0.23074">
        <ele>32.34</ele>
        <time>2014-04-13T09:06:30Z</time>
      </trkpt>
      <trkpt lat="47.60721" lon="-0.23072">
        <ele>31.38</ele>
        <time>2014-04-13T09:06:37Z</time>
      </trkpt>
      <trkpt lat="47.60775" lon="-0.23067">
        <ele>31.38</ele>
        <time>2014-04-13T09:06:46Z</time>
      </trkpt>
      <trkpt lat="47.60798" lon="-0.23078">
        <ele>30.9</ele>
        <time>2014-04-13T09:06:50Z</time>
      </trkpt>
      <trkpt lat="47.60829" lon="-0.23107">
        <ele>30.42</ele>
        <time>2014-04-13T09:06:56Z</time>
      </trkpt>
      <trkpt lat="47.60844" lon="-0.23142">
        <ele>29.46</ele>
        <time>2014-04-13T09:07:01Z</time>
      </trkpt>
      <trkpt lat="47.60844" lon="-0.2315">
        <ele>29.46</ele>
        <time>2014-04-13T09:07:02Z</time>
      </trkpt>
      <trkpt lat="47.60843" lon="-0.23159">
        <ele>29.46</ele>
        <time>2014-04-13T09:07:03Z</time>
      </trkpt>
      <trkpt lat="47.60841" lon="-0.23224">
        <ele>29.94</ele>
        <time>2014-04-13T09:07:11Z</time>
      </trkpt>
      <trkpt lat="47.6084" lon="-0.23258">
        <ele>29.94</ele>
        <time>2014-04-13T09:07:15Z</time>
      </trkpt>
      <trkpt lat="47.60846" lon="-0.2329">
        <ele>30.42</ele>
        <time>2014-04-13T09:07:19Z</time>
      </trkpt>
      <trkpt lat="47.60873" lon="-0.23361">
        <ele>30.9</ele>
        <time>2014-04-13T09:07:29Z</time>
      </trkpt>
      <trkpt lat="47.6089" lon="-0.23416">
        <ele>31.86</ele>
        <time>2014-04-13T09:07:37Z</time>
      </trkpt>
      <trkpt lat="47.60906" lon="-0.23469">
        <ele>32.82</ele>
        <time>2014-04-13T09:07:45Z</time>
      </trkpt>
      <trkpt lat="47.60909" lon="-0.23476">
        <ele>32.82</ele>
        <time>2014-04-13T09:07:46Z</time>
      </trkpt>
      <trkpt lat="47.6092" lon="-0.23503">
        <ele>32.34</ele>
        <time>2014-04-13T09:07:50Z</time>
      </trkpt>
      <trkpt lat="47.6096" lon="-0.23562">
        <ele>31.38</ele>
        <time>2014-04-13T09:08:00Z</time>
      </trkpt>
      <trkpt lat="47.60999" lon="-0.23604">
        <ele>31.38</ele>
        <time>2014-04-13T09:08:08Z</time>
      </trkpt>
      <trkpt lat="47.61039" lon="-0.23644">
        <ele>31.38</ele>
        <time>2014-04-13T09:08:16Z</time>
      </trkpt>
      <trkpt lat="47.61081" lon="-0.23691">
        <ele>31.38</ele>
        <time>2014-04-13T09:08:25Z</time>
      </trkpt>
      <trkpt lat="47.61109" lon="-0.2372">
        <ele>30.9</ele>
        <time>2014-04-13T09:08:31Z</time>
      </trkpt>
      <trkpt lat="47.6113" lon="-0.23733">
        <ele>30.9</ele>
        <time>2014-04-13T09:08:35Z</time>
      </trkpt>
      <trkpt lat="47.61157" lon="-0.23738">
        <ele>30.9</ele>
        <time>2014-04-13T09:08:41Z</time>
      </trkpt>
      <trkpt lat="47.61161" lon="-0.23738">
        <ele>31.38</ele>
        <time>2014-04-13T09:08:42Z</time>
      </trkpt>
      <trkpt lat="47.61178" lon="-0.23733">
        <ele>31.86</ele>
        <time>2014-04-13T09:08:46Z</time>
      </trkpt>
      <trkpt lat="47.61221" lon="-0.23713">
        <ele>32.34</ele>
        <time>2014-04-13T09:08:55Z</time>
      </trkpt>
      <trkpt lat="47.61244" lon="-0.23697">
        <ele>32.34</ele>
        <time>2014-04-13T09:09:00Z</time>
      </trkpt>
      <trkpt lat="47.61253" lon="-0.23687">
        <ele>31.38</ele>
        <time>2014-04-13T09:09:02Z</time>
      </trkpt>
      <trkpt lat="47.6127" lon="-0.2366">
        <ele>31.86</ele>
        <time>2014-04-13T09:09:06Z</time>
      </trkpt>
      <trkpt lat="47.61286" lon="-0.23616">
        <ele>31.86</ele>
        <time>2014-04-13T09:09:12Z</time>
      </trkpt>
      <trkpt lat="47.61293" lon="-0.23591">
        <ele>32.34</ele>
        <time>2014-04-13T09:09:15Z</time>
      </trkpt>
      <trkpt lat="47.6131" lon="-0.23526">
        <ele>31.86</ele>
        <time>2014-04-13T09:09:23Z</time>
      </trkpt>
      <trkpt lat="47.61324" lon="-0.23472">
        <ele>31.86</ele>
        <time>2014-04-13T09:09:30Z</time>
      </trkpt>
      <trkpt lat="47.61326" lon="-0.23464">
        <ele>31.86</ele>
        <time>2014-04-13T09:09:31Z</time>
      </trkpt>
      <trkpt lat="47.61337" lon="-0.23416">
        <ele>31.86</ele>
        <time>2014-04-13T09:09:37Z</time>
      </trkpt>
      <trkpt lat="47.61339" lon="-0.23408">
        <ele>31.86</ele>
        <time>2014-04-13T09:09:38Z</time>
      </trkpt>
      <trkpt lat="47.61355" lon="-0.2334">
        <ele>30.42</ele>
        <time>2014-04-13T09:09:46Z</time>
      </trkpt>
      <trkpt lat="47.61376" lon="-0.23255">
        <ele>29.94</ele>
        <time>2014-04-13T09:09:55Z</time>
      </trkpt>
      <trkpt lat="47.61391" lon="-0.23194">
        <ele>29.46</ele>
        <time>2014-04-13T09:10:02Z</time>
      </trkpt>
      <trkpt lat="47.61413" lon="-0.23127">
        <ele>29.46</ele>
        <time>2014-04-13T09:10:10Z</time>
      </trkpt>
      <trkpt lat="47.61435" lon="-0.23071">
        <ele>29.46</ele>
        <time>2014-04-13T09:10:17Z</time>
      </trkpt>
      <trkpt lat="47.61447" lon="-0.23041">
        <ele>29.94</ele>
        <time>2014-04-13T09:10:21Z</time>
      </trkpt>
      <trkpt lat="47.61467" lon="-0.22986">
        <ele>29.46</ele>
        <time>2014-04-13T09:10:28Z</time>
      </trkpt>
      <trkpt lat="47.61492" lon="-0.22926">
        <ele>28.98</ele>
        <time>2014-04-13T09:10:36Z</time>
      </trkpt>
      <trkpt lat="47.615" lon="-0.22905">
        <ele>28.5</ele>
        <time>2014-04-13T09:10:39Z</time>
      </trkpt>
      <trkpt lat="47.61525" lon="-0.22845">
        <ele>28.98</ele>
        <time>2014-04-13T09:10:47Z</time>
      </trkpt>
      <trkpt lat="47.6153" lon="-0.22832">
        <ele>28.5</ele>
        <time>2014-04-13T09:10:49Z</time>
      </trkpt>
      <trkpt lat="47.61542" lon="-0.22794">
        <ele>28.5</ele>
        <time>2014-04-13T09:10:55Z</time>
      </trkpt>
      <trkpt lat="47.61556" lon="-0.22787">
        <ele>28.5</ele>
        <time>2014-04-13T09:11:00Z</time>
      </trkpt>
      <trkpt lat="47.61567" lon="-0.22792">
        <ele>28.5</ele>
        <time>2014-04-13T09:11:04Z</time>
      </trkpt>
      <trkpt lat="47.61575" lon="-0.22799">
        <ele>28.02</ele>
        <time>2014-04-13T09:11:07Z</time>
      </trkpt>
      <trkpt lat="47.61596" lon="-0.22812">
        <ele>28.5</ele>
        <time>2014-04-13T09:11:13Z</time>
      </trkpt>
      <trkpt lat="47.61612" lon="-0.22824">
        <ele>28.02</ele>
        <time>2014-04-13T09:11:18Z</time>
      </trkpt>
      <trkpt lat="47.61633" lon="-0.22837">
        <ele>28.5</ele>
        <time>2014-04-13T09:11:24Z</time>
      </trkpt>
      <trkpt lat="47.61652" lon="-0.22849">
        <ele>28.5</ele>
        <time>2014-04-13T09:11:29Z</time>
      </trkpt>
      <trkpt lat="47.61668" lon="-0.22878">
        <ele>28.02</ele>
        <time>2014-04-13T09:11:36Z</time>
      </trkpt>
      <trkpt lat="47.61669" lon="-0.22901">
        <ele>28.5</ele>
        <time>2014-04-13T09:11:41Z</time>
      </trkpt>
      <trkpt lat="47.61668" lon="-0.22931">
        <ele>28.02</ele>
        <time>2014-04-13T09:11:47Z</time>
      </trkpt>
      <trkpt lat="47.61667" lon="-0.2296">
        <ele>28.02</ele>
        <time>2014-04-13T09:11:52Z</time>
      </trkpt>
      <trkpt lat="47.61666" lon="-0.22992">
        <ele>28.5</ele>
        <time>2014-04-13T09:11:58Z</time>
      </trkpt>
      <trkpt lat="47.61661" lon="-0.23024">
        <ele>28.02</ele>
        <time>2014-04-13T09:12:04Z</time>
      </trkpt>
      <trkpt lat="47.61658" lon="-0.2306">
        <ele>28.5</ele>
        <time>2014-04-13T09:12:11Z</time>
      </trkpt>
      <trkpt lat="47.61653" lon="-0.23087">
        <ele>28.5</ele>
        <time>2014-04-13T09:12:16Z</time>
      </trkpt>
      <trkpt lat="47.61647" lon="-0.23131">
        <ele>28.5</ele>
        <time>2014-04-13T09:12:23Z</time>
      </trkpt>
      <trkpt lat="47.61645" lon="-0.23143">
        <ele>28.02</ele>
        <time>2014-04-13T09:12:25Z</time>
      </trkpt>
      <trkpt lat="47.61654" lon="-0.23172">
        <ele>28.02</ele>
        <time>2014-04-13T09:12:31Z</time>
      </trkpt>
      <trkpt lat="47.61656" lon="-0.23175">
        <ele>28.5</ele>
        <time>2014-04-13T09:12:32Z</time>
      </trkpt>
      <trkpt lat="47.61681" lon="-0.23192">
        <ele>28.5</ele>
        <time>2014-04-13T09:12:40Z</time>
      </trkpt>
      <trkpt lat="47.61703" lon="-0.23205">
        <ele>28.98</ele>
        <time>2014-04-13T09:12:46Z</time>
      </trkpt>
      <trkpt lat="47.61738" lon="-0.23219">
        <ele>28.98</ele>
        <time>2014-04-13T09:12:55Z</time>
      </trkpt>
      <trkpt lat="47.61764" lon="-0.23228">
        <ele>29.46</ele>
        <time>2014-04-13T09:13:02Z</time>
      </trkpt>
      <trkpt lat="47.61791" lon="-0.23238">
        <ele>28.98</ele>
        <time>2014-04-13T09:13:09Z</time>
      </trkpt>
      <trkpt lat="47.61811" lon="-0.23242">
        <ele>28.5</ele>
        <time>2014-04-13T09:13:15Z</time>
      </trkpt>
      <trkpt lat="47.61825" lon="-0.23247">
        <ele>28.02</ele>
        <time>2014-04-13T09:13:22Z</time>
      </trkpt>
      <trkpt lat="47.61826" lon="-0.23248">
        <ele>28.02</ele>
        <time>2014-04-13T09:13:27Z</time>
      </trkpt>
      <trkpt lat="47.61828" lon="-0.23249">
        <ele>28.5</ele>
        <time>2014-04-13T09:13:30Z</time>
      </trkpt>
      <trkpt lat="47.6183" lon="-0.23249">
        <ele>28.5</ele>
        <time>2014-04-13T09:13:32Z</time>
      </trkpt>
      <trkpt lat="47.61836" lon="-0.23251">
        <ele>28.02</ele>
        <time>2014-04-13T09:13:37Z</time>
      </trkpt>
      <trkpt lat="47.61849" lon="-0.23256">
        <ele>28.98</ele>
        <time>2014-04-13T09:13:44Z</time>
      </trkpt>
      <trkpt lat="47.61863" lon="-0.23265">
        <ele>28.98</ele>
        <time>2014-04-13T09:13:50Z</time>
      </trkpt>
      <trkpt lat="47.61874" lon="-0.23271">
        <ele>28.98</ele>
        <time>2014-04-13T09:13:54Z</time>
      </trkpt>
      <trkpt lat="47.61895" lon="-0.23276">
        <ele>28.98</ele>
        <time>2014-04-13T09:14:01Z</time>
      </trkpt>
      <trkpt lat="47.61914" lon="-0.23281">
        <ele>28.98</ele>
        <time>2014-04-13T09:14:07Z</time>
      </trkpt>
      <trkpt lat="47.61935" lon="-0.23288">
        <ele>29.46</ele>
        <time>2014-04-13T09:14:14Z</time>
      </trkpt>
      <trkpt lat="47.61956" lon="-0.23299">
        <ele>29.94</ele>
        <time>2014-04-13T09:14:21Z</time>
      </trkpt>
      <trkpt lat="47.61991" lon="-0.23321">
        <ele>29.46</ele>
        <time>2014-04-13T09:14:30Z</time>
      </trkpt>
      <trkpt lat="47.62018" lon="-0.23335">
        <ele>29.46</ele>
        <time>2014-04-13T09:14:38Z</time>
      </trkpt>
      <trkpt lat="47.62037" lon="-0.23351">
        <ele>28.5</ele>
        <time>2014-04-13T09:14:45Z</time>
      </trkpt>
      <trkpt lat="47.62041" lon="-0.23355">
        <ele>28.98</ele>
        <time>2014-04-13T09:14:48Z</time>
      </trkpt>
      <trkpt lat="47.62047" lon="-0.23358">
        <ele>28.98</ele>
        <time>2014-04-13T09:14:55Z</time>
      </trkpt>
      <trkpt lat="47.62049" lon="-0.23358">
        <ele>28.98</ele>
        <time>2014-04-13T09:15:01Z</time>
      </trkpt>
      <trkpt lat="47.6205" lon="-0.23358">
        <ele>28.5</ele>
        <time>2014-04-13T09:15:03Z</time>
      </trkpt>
      <trkpt lat="47.62059" lon="-0.23364">
        <ele>28.5</ele>
        <time>2014-04-13T09:15:10Z</time>
      </trkpt>
      <trkpt lat="47.62073" lon="-0.23372">
        <ele>28.5</ele>
        <time>2014-04-13T09:15:16Z</time>
      </trkpt>
      <trkpt lat="47.62075" lon="-0.23374">
        <ele>28.5</ele>
        <time>2014-04-13T09:15:17Z</time>
      </trkpt>
      <trkpt lat="47.62081" lon="-0.23378">
        <ele>28.02</ele>
        <time>2014-04-13T09:15:21Z</time>
      </trkpt>
      <trkpt lat="47.62085" lon="-0.23379">
        <ele>28.98</ele>
        <time>2014-04-13T09:15:25Z</time>
      </trkpt>
      <trkpt lat="47.62096" lon="-0.23386">
        <ele>28.5</ele>
        <time>2014-04-13T09:15:31Z</time>
      </trkpt>
      <trkpt lat="47.62108" lon="-0.23395">
        <ele>29.46</ele>
        <time>2014-04-13T09:15:38Z</time>
      </trkpt>
      <trkpt lat="47.62111" lon="-0.23398">
        <ele>29.46</ele>
        <time>2014-04-13T09:15:43Z</time>
      </trkpt>
      <trkpt lat="47.62113" lon="-0.23399">
        <ele>28.98</ele>
        <time>2014-04-13T09:15:51Z</time>
      </trkpt>
      <trkpt lat="47.62115" lon="-0.234">
        <ele>28.98</ele>
        <time>2014-04-13T09:15:52Z</time>
      </trkpt>
      <trkpt lat="47.62118" lon="-0.23402">
        <ele>28.5</ele>
        <time>2014-04-13T09:15:54Z</time>
      </trkpt>
      <trkpt lat="47.62128" lon="-0.23406">
        <ele>28.98</ele>
        <time>2014-04-13T09:16:00Z</time>
      </trkpt>
      <trkpt lat="47.6214" lon="-0.23415">
        <ele>29.46</ele>
        <time>2014-04-13T09:16:06Z</time>
      </trkpt>
      <trkpt lat="47.62158" lon="-0.23428">
        <ele>29.94</ele>
        <time>2014-04-13T09:16:13Z</time>
      </trkpt>
      <trkpt lat="47.62174" lon="-0.23433">
        <ele>29.94</ele>
        <time>2014-04-13T09:16:19Z</time>
      </trkpt>
      <trkpt lat="47.62191" lon="-0.23437">
        <ele>29.46</ele>
        <time>2014-04-13T09:16:24Z</time>
      </trkpt>
      <trkpt lat="47.62209" lon="-0.2344">
        <ele>29.94</ele>
        <time>2014-04-13T09:16:29Z</time>
      </trkpt>
      <trkpt lat="47.62228" lon="-0.23442">
        <ele>30.42</ele>
        <time>2014-04-13T09:16:34Z</time>
      </trkpt>
      <trkpt lat="47.62247" lon="-0.23444">
        <ele>30.42</ele>
        <time>2014-04-13T09:16:39Z</time>
      </trkpt>
      <trkpt lat="47.62274" lon="-0.23446">
        <ele>30.42</ele>
        <time>2014-04-13T09:16:45Z</time>
      </trkpt>
      <trkpt lat="47.62294" lon="-0.23449">
        <ele>30.42</ele>
        <time>2014-04-13T09:16:49Z</time>
      </trkpt>
      <trkpt lat="47.62332" lon="-0.23452">
        <ele>30.42</ele>
        <time>2014-04-13T09:16:57Z</time>
      </trkpt>
      <trkpt lat="47.62358" lon="-0.23453">
        <ele>30.42</ele>
        <time>2014-04-13T09:17:02Z</time>
      </trkpt>
      <trkpt lat="47.6238" lon="-0.23454">
        <ele>30.9</ele>
        <time>2014-04-13T09:17:06Z</time>
      </trkpt>
      <trkpt lat="47.62396" lon="-0.23454">
        <ele>30.42</ele>
        <time>2014-04-13T09:17:09Z</time>
      </trkpt>
      <trkpt lat="47.62422" lon="-0.2345">
        <ele>31.38</ele>
        <time>2014-04-13T09:17:14Z</time>
      </trkpt>
      <trkpt lat="47.62459" lon="-0.23443">
        <ele>30.42</ele>
        <time>2014-04-13T09:17:21Z</time>
      </trkpt>
      <trkpt lat="47.62473" lon="-0.23439">
        <ele>30.42</ele>
        <time>2014-04-13T09:17:24Z</time>
      </trkpt>
      <trkpt lat="47.62483" lon="-0.23438">
        <ele>30.9</ele>
        <time>2014-04-13T09:17:26Z</time>
      </trkpt>
      <trkpt lat="47.62509" lon="-0.23431">
        <ele>30.42</ele>
        <time>2014-04-13T09:17:31Z</time>
      </trkpt>
      <trkpt lat="47.62541" lon="-0.23424">
        <ele>29.94</ele>
        <time>2014-04-13T09:17:37Z</time>
      </trkpt>
      <trkpt lat="47.62569" lon="-0.23431">
        <ele>28.98</ele>
        <time>2014-04-13T09:17:43Z</time>
      </trkpt>
      <trkpt lat="47.62586" lon="-0.23444">
        <ele>28.98</ele>
        <time>2014-04-13T09:17:48Z</time>
      </trkpt>
      <trkpt lat="47.62606" lon="-0.23456">
        <ele>28.02</ele>
        <time>2014-04-13T09:17:54Z</time>
      </trkpt>
      <trkpt lat="47.62615" lon="-0.23461">
        <ele>28.5</ele>
        <time>2014-04-13T09:17:57Z</time>
      </trkpt>
      <trkpt lat="47.62627" lon="-0.23465">
        <ele>28.5</ele>
        <time>2014-04-13T09:18:02Z</time>
      </trkpt>
      <trkpt lat="47.62646" lon="-0.23472">
        <ele>28.5</ele>
        <time>2014-04-13T09:18:09Z</time>
      </trkpt>
      <trkpt lat="47.62653" lon="-0.23474">
        <ele>28.02</ele>
        <time>2014-04-13T09:18:11Z</time>
      </trkpt>
      <trkpt lat="47.62671" lon="-0.23479">
        <ele>27.53</ele>
        <time>2014-04-13T09:18:17Z</time>
      </trkpt>
      <trkpt lat="47.62687" lon="-0.23485">
        <ele>28.5</ele>
        <time>2014-04-13T09:18:23Z</time>
      </trkpt>
      <trkpt lat="47.62704" lon="-0.23486">
        <ele>27.53</ele>
        <time>2014-04-13T09:18:30Z</time>
      </trkpt>
      <trkpt lat="47.62723" lon="-0.23492">
        <ele>28.02</ele>
        <time>2014-04-13T09:18:36Z</time>
      </trkpt>
      <trkpt lat="47.6274" lon="-0.23497">
        <ele>28.5</ele>
        <time>2014-04-13T09:18:41Z</time>
      </trkpt>
      <trkpt lat="47.62761" lon="-0.23503">
        <ele>28.5</ele>
        <time>2014-04-13T09:18:47Z</time>
      </trkpt>
      <trkpt lat="47.62783" lon="-0.2351">
        <ele>29.46</ele>
        <time>2014-04-13T09:18:53Z</time>
      </trkpt>
      <trkpt lat="47.6281" lon="-0.2352">
        <ele>28.98</ele>
        <time>2014-04-13T09:19:00Z</time>
      </trkpt>
      <trkpt lat="47.62833" lon="-0.23527">
        <ele>28.98</ele>
        <time>2014-04-13T09:19:06Z</time>
      </trkpt>
      <trkpt lat="47.62855" lon="-0.23533">
        <ele>30.9</ele>
        <time>2014-04-13T09:19:12Z</time>
      </trkpt>
      <trkpt lat="47.62879" lon="-0.23541">
        <ele>29.46</ele>
        <time>2014-04-13T09:19:18Z</time>
      </trkpt>
      <trkpt lat="47.62899" lon="-0.23548">
        <ele>29.94</ele>
        <time>2014-04-13T09:19:23Z</time>
      </trkpt>
      <trkpt lat="47.62904" lon="-0.23549">
        <ele>29.94</ele>
        <time>2014-04-13T09:19:24Z</time>
      </trkpt>
      <trkpt lat="47.62931" lon="-0.2356">
        <ele>30.42</ele>
        <time>2014-04-13T09:19:30Z</time>
      </trkpt>
      <trkpt lat="47.62958" lon="-0.2357">
        <ele>30.9</ele>
        <time>2014-04-13T09:19:36Z</time>
      </trkpt>
      <trkpt lat="47.62982" lon="-0.23578">
        <ele>31.38</ele>
        <time>2014-04-13T09:19:42Z</time>
      </trkpt>
      <trkpt lat="47.63013" lon="-0.23589">
        <ele>31.86</ele>
        <time>2014-04-13T09:19:49Z</time>
      </trkpt>
      <trkpt lat="47.63042" lon="-0.23599">
        <ele>31.86</ele>
        <time>2014-04-13T09:19:56Z</time>
      </trkpt>
      <trkpt lat="47.6308" lon="-0.23612">
        <ele>31.86</ele>
        <time>2014-04-13T09:20:04Z</time>
      </trkpt>
      <trkpt lat="47.63111" lon="-0.2362">
        <ele>32.82</ele>
        <time>2014-04-13T09:20:12Z</time>
      </trkpt>
      <trkpt lat="47.63126" lon="-0.2362">
        <ele>32.34</ele>
        <time>2014-04-13T09:20:17Z</time>
      </trkpt>
      <trkpt lat="47.63137" lon="-0.23621">
        <ele>33.78</ele>
        <time>2014-04-13T09:20:20Z</time>
      </trkpt>
      <trkpt lat="47.63152" lon="-0.23623">
        <ele>33.3</ele>
        <time>2014-04-13T09:20:24Z</time>
      </trkpt>
      <trkpt lat="47.63164" lon="-0.23623">
        <ele>33.78</ele>
        <time>2014-04-13T09:20:27Z</time>
      </trkpt>
      <trkpt lat="47.63199" lon="-0.23623">
        <ele>32.82</ele>
        <time>2014-04-13T09:20:34Z</time>
      </trkpt>
      <trkpt lat="47.63215" lon="-0.23621">
        <ele>33.3</ele>
        <time>2014-04-13T09:20:37Z</time>
      </trkpt>
      <trkpt lat="47.63244" lon="-0.23621">
        <ele>33.3</ele>
        <time>2014-04-13T09:20:42Z</time>
      </trkpt>
      <trkpt lat="47.63277" lon="-0.2362">
        <ele>32.34</ele>
        <time>2014-04-13T09:20:47Z</time>
      </trkpt>
      <trkpt lat="47.63315" lon="-0.23619">
        <ele>31.38</ele>
        <time>2014-04-13T09:20:54Z</time>
      </trkpt>
      <trkpt lat="47.63369" lon="-0.23621">
        <ele>30.42</ele>
        <time>2014-04-13T09:21:02Z</time>
      </trkpt>
      <trkpt lat="47.63412" lon="-0.23619">
        <ele>30.42</ele>
        <time>2014-04-13T09:21:09Z</time>
      </trkpt>
      <trkpt lat="47.63418" lon="-0.23619">
        <ele>29.94</ele>
        <time>2014-04-13T09:21:10Z</time>
      </trkpt>
      <trkpt lat="47.6346" lon="-0.2362">
        <ele>30.42</ele>
        <time>2014-04-13T09:21:17Z</time>
      </trkpt>
      <trkpt lat="47.63501" lon="-0.23617">
        <ele>30.42</ele>
        <time>2014-04-13T09:21:24Z</time>
      </trkpt>
      <trkpt lat="47.63535" lon="-0.23617">
        <ele>31.38</ele>
        <time>2014-04-13T09:21:30Z</time>
      </trkpt>
      <trkpt lat="47.63551" lon="-0.23617">
        <ele>31.38</ele>
        <time>2014-04-13T09:21:33Z</time>
      </trkpt>
      <trkpt lat="47.63572" lon="-0.23616">
        <ele>31.38</ele>
        <time>2014-04-13T09:21:37Z</time>
      </trkpt>
      <trkpt lat="47.63605" lon="-0.23614">
        <ele>31.86</ele>
        <time>2014-04-13T09:21:44Z</time>
      </trkpt>
      <trkpt lat="47.63648" lon="-0.2361">
        <ele>33.3</ele>
        <time>2014-04-13T09:21:53Z</time>
      </trkpt>
      <trkpt lat="47.6368" lon="-0.23609">
        <ele>33.78</ele>
        <time>2014-04-13T09:22:01Z</time>
      </trkpt>
      <trkpt lat="47.63685" lon="-0.2361">
        <ele>33.78</ele>
        <time>2014-04-13T09:22:02Z</time>
      </trkpt>
      <trkpt lat="47.63712" lon="-0.23611">
        <ele>34.26</ele>
        <time>2014-04-13T09:22:08Z</time>
      </trkpt>
      <trkpt lat="47.63735" lon="-0.23609">
        <ele>33.78</ele>
        <time>2014-04-13T09:22:14Z</time>
      </trkpt>
      <trkpt lat="47.63756" lon="-0.23609">
        <ele>34.26</ele>
        <time>2014-04-13T09:22:19Z</time>
      </trkpt>
      <trkpt lat="47.63779" lon="-0.23607">
        <ele>34.26</ele>
        <time>2014-04-13T09:22:24Z</time>
      </trkpt>
      <trkpt lat="47.63798" lon="-0.23607">
        <ele>33.78</ele>
        <time>2014-04-13T09:22:28Z</time>
      </trkpt>
      <trkpt lat="47.63815" lon="-0.23608">
        <ele>33.78</ele>
        <time>2014-04-13T09:22:31Z</time>
      </trkpt>
      <trkpt lat="47.63831" lon="-0.23607">
        <ele>33.3</ele>
        <time>2014-04-13T09:22:34Z</time>
      </trkpt>
      <trkpt lat="47.6385" lon="-0.2362">
        <ele>32.82</ele>
        <time>2014-04-13T09:22:39Z</time>
      </trkpt>
      <trkpt lat="47.63847" lon="-0.2363">
        <ele>33.3</ele>
        <time>2014-04-13T09:22:41Z</time>
      </trkpt>
      <trkpt lat="47.63832" lon="-0.23664">
        <ele>33.3</ele>
        <time>2014-04-13T09:22:48Z</time>
      </trkpt>
      <trkpt lat="47.63819" lon="-0.237">
        <ele>34.26</ele>
        <time>2014-04-13T09:22:54Z</time>
      </trkpt>
      <trkpt lat="47.63804" lon="-0.23743">
        <ele>35.71</ele>
        <time>2014-04-13T09:23:02Z</time>
      </trkpt>
      <trkpt lat="47.63782" lon="-0.23796">
        <ele>36.19</ele>
        <time>2014-04-13T09:23:12Z</time>
      </trkpt>
      <trkpt lat="47.6377" lon="-0.23827">
        <ele>36.19</ele>
        <time>2014-04-13T09:23:19Z</time>
      </trkpt>
      <trkpt lat="47.63769" lon="-0.23832">
        <ele>36.67</ele>
        <time>2014-04-13T09:23:20Z</time>
      </trkpt>
      <trkpt lat="47.63757" lon="-0.23854">
        <ele>37.63</ele>
        <time>2014-04-13T09:23:27Z</time>
      </trkpt>
      <trkpt lat="47.63749" lon="-0.23875">
        <ele>38.11</ele>
        <time>2014-04-13T09:23:33Z</time>
      </trkpt>
      <trkpt lat="47.63745" lon="-0.2389">
        <ele>39.07</ele>
        <time>2014-04-13T09:23:37Z</time>
      </trkpt>
      <trkpt lat="47.6374" lon="-0.23907">
        <ele>39.55</ele>
        <time>2014-04-13T09:23:42Z</time>
      </trkpt>
      <trkpt lat="47.63731" lon="-0.23928">
        <ele>40.51</ele>
        <time>2014-04-13T09:23:49Z</time>
      </trkpt>
      <trkpt lat="47.63725" lon="-0.23939">
        <ele>41.95</ele>
        <time>2014-04-13T09:23:53Z</time>
      </trkpt>
      <trkpt lat="47.63716" lon="-0.23954">
        <ele>42.44</ele>
        <time>2014-04-13T09:23:59Z</time>
      </trkpt>
      <trkpt lat="47.63715" lon="-0.23957">
        <ele>41.95</ele>
        <time>2014-04-13T09:24:00Z</time>
      </trkpt>
      <trkpt lat="47.63707" lon="-0.23968">
        <ele>42.44</ele>
        <time>2014-04-13T09:24:06Z</time>
      </trkpt>
      <trkpt lat="47.63701" lon="-0.23979">
        <ele>42.92</ele>
        <time>2014-04-13T09:24:12Z</time>
      </trkpt>
      <trkpt lat="47.637" lon="-0.23982">
        <ele>43.88</ele>
        <time>2014-04-13T09:24:19Z</time>
      </trkpt>
      <trkpt lat="47.63697" lon="-0.23988">
        <ele>44.36</ele>
        <time>2014-04-13T09:24:24Z</time>
      </trkpt>
      <trkpt lat="47.63693" lon="-0.24002">
        <ele>44.36</ele>
        <time>2014-04-13T09:24:31Z</time>
      </trkpt>
      <trkpt lat="47.63688" lon="-0.24017">
        <ele>44.84</ele>
        <time>2014-04-13T09:24:38Z</time>
      </trkpt>
      <trkpt lat="47.63683" lon="-0.24027">
        <ele>45.8</ele>
        <time>2014-04-13T09:24:42Z</time>
      </trkpt>
      <trkpt lat="47.63678" lon="-0.24043">
        <ele>46.28</ele>
        <time>2014-04-13T09:24:48Z</time>
      </trkpt>
      <trkpt lat="47.63672" lon="-0.24062">
        <ele>46.76</ele>
        <time>2014-04-13T09:24:53Z</time>
      </trkpt>
      <trkpt lat="47.63668" lon="-0.24071">
        <ele>46.76</ele>
        <time>2014-04-13T09:24:56Z</time>
      </trkpt>
      <trkpt lat="47.63661" lon="-0.24088">
        <ele>48.68</ele>
        <time>2014-04-13T09:25:02Z</time>
      </trkpt>
      <trkpt lat="47.63653" lon="-0.24106">
        <ele>49.16</ele>
        <time>2014-04-13T09:25:09Z</time>
      </trkpt>
      <trkpt lat="47.63646" lon="-0.24123">
        <ele>49.16</ele>
        <time>2014-04-13T09:25:15Z</time>
      </trkpt>
      <trkpt lat="47.63641" lon="-0.24139">
        <ele>50.13</ele>
        <time>2014-04-13T09:25:21Z</time>
      </trkpt>
      <trkpt lat="47.6364" lon="-0.24142">
        <ele>50.13</ele>
        <time>2014-04-13T09:25:22Z</time>
      </trkpt>
      <trkpt lat="47.6363" lon="-0.24167">
        <ele>50.61</ele>
        <time>2014-04-13T09:25:30Z</time>
      </trkpt>
      <trkpt lat="47.63627" lon="-0.24174">
        <ele>51.09</ele>
        <time>2014-04-13T09:25:32Z</time>
      </trkpt>
      <trkpt lat="47.6362" lon="-0.24191">
        <ele>51.57</ele>
        <time>2014-04-13T09:25:37Z</time>
      </trkpt>
      <trkpt lat="47.63611" lon="-0.2421">
        <ele>51.57</ele>
        <time>2014-04-13T09:25:43Z</time>
      </trkpt>
      <trkpt lat="47.63601" lon="-0.24235">
        <ele>52.05</ele>
        <time>2014-04-13T09:25:50Z</time>
      </trkpt>
      <trkpt lat="47.63592" lon="-0.24255">
        <ele>52.05</ele>
        <time>2014-04-13T09:25:55Z</time>
      </trkpt>
      <trkpt lat="47.63579" lon="-0.24288">
        <ele>51.57</ele>
        <time>2014-04-13T09:26:02Z</time>
      </trkpt>
      <trkpt lat="47.63566" lon="-0.24318">
        <ele>52.53</ele>
        <time>2014-04-13T09:26:08Z</time>
      </trkpt>
      <trkpt lat="47.63552" lon="-0.24357">
        <ele>52.05</ele>
        <time>2014-04-13T09:26:15Z</time>
      </trkpt>
      <trkpt lat="47.63533" lon="-0.24395">
        <ele>52.05</ele>
        <time>2014-04-13T09:26:22Z</time>
      </trkpt>
      <trkpt lat="47.63516" lon="-0.2444">
        <ele>52.05</ele>
        <time>2014-04-13T09:26:29Z</time>
      </trkpt>
      <trkpt lat="47.63506" lon="-0.24465">
        <ele>51.57</ele>
        <time>2014-04-13T09:26:33Z</time>
      </trkpt>
      <trkpt lat="47.63482" lon="-0.24526">
        <ele>51.09</ele>
        <time>2014-04-13T09:26:42Z</time>
      </trkpt>
      <trkpt lat="47.63461" lon="-0.24577">
        <ele>50.13</ele>
        <time>2014-04-13T09:26:49Z</time>
      </trkpt>
      <trkpt lat="47.63438" lon="-0.2463">
        <ele>49.16</ele>
        <time>2014-04-13T09:26:56Z</time>
      </trkpt>
      <trkpt lat="47.63427" lon="-0.24656">
        <ele>50.13</ele>
        <time>2014-04-13T09:27:00Z</time>
      </trkpt>
      <trkpt lat="47.63405" lon="-0.24705">
        <ele>50.61</ele>
        <time>2014-04-13T09:27:08Z</time>
      </trkpt>
      <trkpt lat="47.63384" lon="-0.2475">
        <ele>52.05</ele>
        <time>2014-04-13T09:27:16Z</time>
      </trkpt>
      <trkpt lat="47.63379" lon="-0.24761">
        <ele>52.05</ele>
        <time>2014-04-13T09:27:18Z</time>
      </trkpt>
      <trkpt lat="47.63372" lon="-0.24778">
        <ele>52.53</ele>
        <time>2014-04-13T09:27:21Z</time>
      </trkpt>
      <trkpt lat="47.63348" lon="-0.24836">
        <ele>52.05</ele>
        <time>2014-04-13T09:27:31Z</time>
      </trkpt>
      <trkpt lat="47.63336" lon="-0.24873">
        <ele>52.05</ele>
        <time>2014-04-13T09:27:38Z</time>
      </trkpt>
      <trkpt lat="47.63344" lon="-0.24875">
        <ele>52.53</ele>
        <time>2014-04-13T09:27:42Z</time>
      </trkpt>
      <trkpt lat="47.63359" lon="-0.24858">
        <ele>52.53</ele>
        <time>2014-04-13T09:27:47Z</time>
      </trkpt>
      <trkpt lat="47.63375" lon="-0.24843">
        <ele>52.53</ele>
        <time>2014-04-13T09:27:51Z</time>
      </trkpt>
      <trkpt lat="47.63397" lon="-0.24822">
        <ele>53.01</ele>
        <time>2014-04-13T09:27:57Z</time>
      </trkpt>
      <trkpt lat="47.63429" lon="-0.24789">
        <ele>53.49</ele>
        <time>2014-04-13T09:28:06Z</time>
      </trkpt>
      <trkpt lat="47.63436" lon="-0.2478">
        <ele>53.49</ele>
        <time>2014-04-13T09:28:08Z</time>
      </trkpt>
      <trkpt lat="47.63456" lon="-0.24762">
        <ele>53.49</ele>
        <time>2014-04-13T09:28:12Z</time>
      </trkpt>
      <trkpt lat="47.63483" lon="-0.24735">
        <ele>52.53</ele>
        <time>2014-04-13T09:28:18Z</time>
      </trkpt>
      <trkpt lat="47.63509" lon="-0.24717">
        <ele>52.53</ele>
        <time>2014-04-13T09:28:24Z</time>
      </trkpt>
      <trkpt lat="47.63517" lon="-0.24708">
        <ele>52.53</ele>
        <time>2014-04-13T09:28:26Z</time>
      </trkpt>
      <trkpt lat="47.63551" lon="-0.24674">
        <ele>53.01</ele>
        <time>2014-04-13T09:28:34Z</time>
      </trkpt>
      <trkpt lat="47.63583" lon="-0.24644">
        <ele>53.01</ele>
        <time>2014-04-13T09:28:42Z</time>
      </trkpt>
      <trkpt lat="47.63615" lon="-0.24616">
        <ele>53.01</ele>
        <time>2014-04-13T09:28:49Z</time>
      </trkpt>
      <trkpt lat="47.63619" lon="-0.24613">
        <ele>52.53</ele>
        <time>2014-04-13T09:28:50Z</time>
      </trkpt>
      <trkpt lat="47.63627" lon="-0.24606">
        <ele>53.01</ele>
        <time>2014-04-13T09:28:52Z</time>
      </trkpt>
      <trkpt lat="47.6365" lon="-0.24587">
        <ele>53.01</ele>
        <time>2014-04-13T09:28:58Z</time>
      </trkpt>
      <trkpt lat="47.63684" lon="-0.24555">
        <ele>52.53</ele>
        <time>2014-04-13T09:29:07Z</time>
      </trkpt>
      <trkpt lat="47.63688" lon="-0.24551">
        <ele>52.53</ele>
        <time>2014-04-13T09:29:08Z</time>
      </trkpt>
      <trkpt lat="47.63711" lon="-0.2453">
        <ele>52.05</ele>
        <time>2014-04-13T09:29:15Z</time>
      </trkpt>
      <trkpt lat="47.63724" lon="-0.24516">
        <ele>52.53</ele>
        <time>2014-04-13T09:29:19Z</time>
      </trkpt>
      <trkpt lat="47.63735" lon="-0.24505">
        <ele>52.05</ele>
        <time>2014-04-13T09:29:22Z</time>
      </trkpt>
      <trkpt lat="47.63767" lon="-0.24472">
        <ele>51.57</ele>
        <time>2014-04-13T09:29:30Z</time>
      </trkpt>
      <trkpt lat="47.63771" lon="-0.24468">
        <ele>51.57</ele>
        <time>2014-04-13T09:29:31Z</time>
      </trkpt>
      <trkpt lat="47.63801" lon="-0.24439">
        <ele>51.09</ele>
        <time>2014-04-13T09:29:38Z</time>
      </trkpt>
      <trkpt lat="47.63805" lon="-0.24435">
        <ele>51.09</ele>
        <time>2014-04-13T09:29:39Z</time>
      </trkpt>
      <trkpt lat="47.63814" lon="-0.24426">
        <ele>51.09</ele>
        <time>2014-04-13T09:29:41Z</time>
      </trkpt>
      <trkpt lat="47.63839" lon="-0.24405">
        <ele>50.13</ele>
        <time>2014-04-13T09:29:46Z</time>
      </trkpt>
      <trkpt lat="47.63856" lon="-0.24388">
        <ele>50.61</ele>
        <time>2014-04-13T09:29:50Z</time>
      </trkpt>
      <trkpt lat="47.63865" lon="-0.2438">
        <ele>50.13</ele>
        <time>2014-04-13T09:29:52Z</time>
      </trkpt>
      <trkpt lat="47.63898" lon="-0.2435">
        <ele>50.13</ele>
        <time>2014-04-13T09:29:59Z</time>
      </trkpt>
      <trkpt lat="47.63913" lon="-0.24337">
        <ele>50.13</ele>
        <time>2014-04-13T09:30:02Z</time>
      </trkpt>
      <trkpt lat="47.63943" lon="-0.24311">
        <ele>49.16</ele>
        <time>2014-04-13T09:30:08Z</time>
      </trkpt>
      <trkpt lat="47.63979" lon="-0.2428">
        <ele>48.68</ele>
        <time>2014-04-13T09:30:15Z</time>
      </trkpt>
      <trkpt lat="47.63999" lon="-0.24263">
        <ele>48.68</ele>
        <time>2014-04-13T09:30:19Z</time>
      </trkpt>
      <trkpt lat="47.64013" lon="-0.2425">
        <ele>48.68</ele>
        <time>2014-04-13T09:30:22Z</time>
      </trkpt>
      <trkpt lat="47.64027" lon="-0.24238">
        <ele>48.68</ele>
        <time>2014-04-13T09:30:25Z</time>
      </trkpt>
      <trkpt lat="47.64064" lon="-0.24206">
        <ele>47.72</ele>
        <time>2014-04-13T09:30:33Z</time>
      </trkpt>
      <trkpt lat="47.64085" lon="-0.24186">
        <ele>45.8</ele>
        <time>2014-04-13T09:30:37Z</time>
      </trkpt>
      <trkpt lat="47.64122" lon="-0.24152">
        <ele>43.4</ele>
        <time>2014-04-13T09:30:42Z</time>
      </trkpt>
      <trkpt lat="47.64144" lon="-0.2413">
        <ele>41.95</ele>
        <time>2014-04-13T09:30:45Z</time>
      </trkpt>
      <trkpt lat="47.64184" lon="-0.24095">
        <ele>39.55</ele>
        <time>2014-04-13T09:30:50Z</time>
      </trkpt>
      <trkpt lat="47.64234" lon="-0.2405">
        <ele>37.15</ele>
        <time>2014-04-13T09:30:57Z</time>
      </trkpt>
      <trkpt lat="47.64269" lon="-0.24016">
        <ele>36.19</ele>
        <time>2014-04-13T09:31:03Z</time>
      </trkpt>
      <trkpt lat="47.64277" lon="-0.24009">
        <ele>35.71</ele>
        <time>2014-04-13T09:31:05Z</time>
      </trkpt>
      <trkpt lat="47.64286" lon="-0.24018">
        <ele>35.23</ele>
        <time>2014-04-13T09:31:10Z</time>
      </trkpt>
      <trkpt lat="47.64286" lon="-0.24023">
        <ele>35.23</ele>
        <time>2014-04-13T09:31:11Z</time>
      </trkpt>
      <trkpt lat="47.64283" lon="-0.24058">
        <ele>36.19</ele>
        <time>2014-04-13T09:31:17Z</time>
      </trkpt>
      <trkpt lat="47.64281" lon="-0.24078">
        <ele>36.19</ele>
        <time>2014-04-13T09:31:20Z</time>
      </trkpt>
      <trkpt lat="47.64278" lon="-0.24122">
        <ele>37.15</ele>
        <time>2014-04-13T09:31:27Z</time>
      </trkpt>
      <trkpt lat="47.64273" lon="-0.24151">
        <ele>37.15</ele>
        <time>2014-04-13T09:31:32Z</time>
      </trkpt>
      <trkpt lat="47.6427" lon="-0.24179">
        <ele>37.63</ele>
        <time>2014-04-13T09:31:37Z</time>
      </trkpt>
      <trkpt lat="47.64266" lon="-0.24217">
        <ele>39.07</ele>
        <time>2014-04-13T09:31:44Z</time>
      </trkpt>
      <trkpt lat="47.64262" lon="-0.24253">
        <ele>40.03</ele>
        <time>2014-04-13T09:31:51Z</time>
      </trkpt>
      <trkpt lat="47.64259" lon="-0.24275">
        <ele>40.99</ele>
        <time>2014-04-13T09:31:56Z</time>
      </trkpt>
      <trkpt lat="47.64256" lon="-0.24306">
        <ele>41.95</ele>
        <time>2014-04-13T09:32:03Z</time>
      </trkpt>
      <trkpt lat="47.64254" lon="-0.24334">
        <ele>42.92</ele>
        <time>2014-04-13T09:32:10Z</time>
      </trkpt>
      <trkpt lat="47.64252" lon="-0.24356">
        <ele>43.88</ele>
        <time>2014-04-13T09:32:16Z</time>
      </trkpt>
      <trkpt lat="47.6425" lon="-0.24387">
        <ele>43.88</ele>
        <time>2014-04-13T09:32:23Z</time>
      </trkpt>
      <trkpt lat="47.64246" lon="-0.24415">
        <ele>44.84</ele>
        <time>2014-04-13T09:32:29Z</time>
      </trkpt>
      <trkpt lat="47.64243" lon="-0.24433">
        <ele>45.32</ele>
        <time>2014-04-13T09:32:33Z</time>
      </trkpt>
      <trkpt lat="47.6424" lon="-0.24467">
        <ele>45.8</ele>
        <time>2014-04-13T09:32:40Z</time>
      </trkpt>
      <trkpt lat="47.64236" lon="-0.24502">
        <ele>45.8</ele>
        <time>2014-04-13T09:32:47Z</time>
      </trkpt>
      <trkpt lat="47.64234" lon="-0.24532">
        <ele>45.32</ele>
        <time>2014-04-13T09:32:53Z</time>
      </trkpt>
      <trkpt lat="47.64233" lon="-0.24538">
        <ele>45.8</ele>
        <time>2014-04-13T09:32:54Z</time>
      </trkpt>
      <trkpt lat="47.64231" lon="-0.24558">
        <ele>45.32</ele>
        <time>2014-04-13T09:32:57Z</time>
      </trkpt>
      <trkpt lat="47.64229" lon="-0.24572">
        <ele>45.32</ele>
        <time>2014-04-13T09:32:59Z</time>
      </trkpt>
      <trkpt lat="47.64224" lon="-0.24624">
        <ele>44.36</ele>
        <time>2014-04-13T09:33:06Z</time>
      </trkpt>
      <trkpt lat="47.6422" lon="-0.24666">
        <ele>40.51</ele>
        <time>2014-04-13T09:33:12Z</time>
      </trkpt>
      <trkpt lat="47.64212" lon="-0.24716">
        <ele>43.4</ele>
        <time>2014-04-13T09:33:20Z</time>
      </trkpt>
      <trkpt lat="47.6421" lon="-0.2473">
        <ele>43.88</ele>
        <time>2014-04-13T09:33:22Z</time>
      </trkpt>
      <trkpt lat="47.64206" lon="-0.24766">
        <ele>43.4</ele>
        <time>2014-04-13T09:33:27Z</time>
      </trkpt>
      <trkpt lat="47.64205" lon="-0.24796">
        <ele>42.92</ele>
        <time>2014-04-13T09:33:33Z</time>
      </trkpt>
      <trkpt lat="47.64204" lon="-0.24801">
        <ele>43.4</ele>
        <time>2014-04-13T09:33:34Z</time>
      </trkpt>
      <trkpt lat="47.642" lon="-0.24835">
        <ele>44.36</ele>
        <time>2014-04-13T09:33:39Z</time>
      </trkpt>
      <trkpt lat="47.64193" lon="-0.24891">
        <ele>44.36</ele>
        <time>2014-04-13T09:33:47Z</time>
      </trkpt>
      <trkpt lat="47.64192" lon="-0.24898">
        <ele>44.36</ele>
        <time>2014-04-13T09:33:48Z</time>
      </trkpt>
      <trkpt lat="47.64186" lon="-0.24939">
        <ele>44.84</ele>
        <time>2014-04-13T09:33:54Z</time>
      </trkpt>
      <trkpt lat="47.64185" lon="-0.2496">
        <ele>44.84</ele>
        <time>2014-04-13T09:33:57Z</time>
      </trkpt>
      <trkpt lat="47.64183" lon="-0.24975">
        <ele>44.84</ele>
        <time>2014-04-13T09:33:59Z</time>
      </trkpt>
      <trkpt lat="47.64178" lon="-0.25023">
        <ele>44.84</ele>
        <time>2014-04-13T09:34:05Z</time>
      </trkpt>
      <trkpt lat="47.64176" lon="-0.25039">
        <ele>44.84</ele>
        <time>2014-04-13T09:34:07Z</time>
      </trkpt>
      <trkpt lat="47.64171" lon="-0.25087">
        <ele>44.36</ele>
        <time>2014-04-13T09:34:13Z</time>
      </trkpt>
      <trkpt lat="47.6417" lon="-0.25095">
        <ele>44.84</ele>
        <time>2014-04-13T09:34:14Z</time>
      </trkpt>
      <trkpt lat="47.64167" lon="-0.25118">
        <ele>44.36</ele>
        <time>2014-04-13T09:34:17Z</time>
      </trkpt>
      <trkpt lat="47.64161" lon="-0.25184">
        <ele>44.36</ele>
        <time>2014-04-13T09:34:25Z</time>
      </trkpt>
      <trkpt lat="47.64158" lon="-0.25213">
        <ele>43.4</ele>
        <time>2014-04-13T09:34:29Z</time>
      </trkpt>
      <trkpt lat="47.64167" lon="-0.25226">
        <ele>42.44</ele>
        <time>2014-04-13T09:34:33Z</time>
      </trkpt>
      <trkpt lat="47.64174" lon="-0.25221">
        <ele>42.44</ele>
        <time>2014-04-13T09:34:37Z</time>
      </trkpt>
      <trkpt lat="47.64177" lon="-0.2522">
        <ele>42.44</ele>
        <time>2014-04-13T09:34:38Z</time>
      </trkpt>
      <trkpt lat="47.64186" lon="-0.25216">
        <ele>42.44</ele>
        <time>2014-04-13T09:34:40Z</time>
      </trkpt>
      <trkpt lat="47.64218" lon="-0.25195">
        <ele>41.95</ele>
        <time>2014-04-13T09:34:47Z</time>
      </trkpt>
      <trkpt lat="47.64242" lon="-0.25179">
        <ele>40.99</ele>
        <time>2014-04-13T09:34:51Z</time>
      </trkpt>
      <trkpt lat="47.64293" lon="-0.25148">
        <ele>40.03</ele>
        <time>2014-04-13T09:34:59Z</time>
      </trkpt>
      <trkpt lat="47.64332" lon="-0.25123">
        <ele>39.55</ele>
        <time>2014-04-13T09:35:05Z</time>
      </trkpt>
      <trkpt lat="47.64362" lon="-0.25103">
        <ele>39.55</ele>
        <time>2014-04-13T09:35:10Z</time>
      </trkpt>
      <trkpt lat="47.64406" lon="-0.25076">
        <ele>38.59</ele>
        <time>2014-04-13T09:35:17Z</time>
      </trkpt>
      <trkpt lat="47.64445" lon="-0.25049">
        <ele>38.11</ele>
        <time>2014-04-13T09:35:24Z</time>
      </trkpt>
      <trkpt lat="47.64487" lon="-0.25022">
        <ele>37.63</ele>
        <time>2014-04-13T09:35:31Z</time>
      </trkpt>
      <trkpt lat="47.64511" lon="-0.25008">
        <ele>37.15</ele>
        <time>2014-04-13T09:35:35Z</time>
      </trkpt>
      <trkpt lat="47.64551" lon="-0.24983">
        <ele>36.67</ele>
        <time>2014-04-13T09:35:42Z</time>
      </trkpt>
      <trkpt lat="47.64589" lon="-0.24956">
        <ele>36.19</ele>
        <time>2014-04-13T09:35:49Z</time>
      </trkpt>
      <trkpt lat="47.64599" lon="-0.24949">
        <ele>36.19</ele>
        <time>2014-04-13T09:35:51Z</time>
      </trkpt>
      <trkpt lat="47.64615" lon="-0.24953">
        <ele>36.19</ele>
        <time>2014-04-13T09:35:55Z</time>
      </trkpt>
      <trkpt lat="47.6464" lon="-0.25014">
        <ele>36.19</ele>
        <time>2014-04-13T09:36:04Z</time>
      </trkpt>
      <trkpt lat="47.64646" lon="-0.25029">
        <ele>36.19</ele>
        <time>2014-04-13T09:36:06Z</time>
      </trkpt>
      <trkpt lat="47.64668" lon="-0.25081">
        <ele>36.67</ele>
        <time>2014-04-13T09:36:13Z</time>
      </trkpt>
      <trkpt lat="47.64687" lon="-0.25125">
        <ele>36.19</ele>
        <time>2014-04-13T09:36:19Z</time>
      </trkpt>
      <trkpt lat="47.64709" lon="-0.25183">
        <ele>35.23</ele>
        <time>2014-04-13T09:36:26Z</time>
      </trkpt>
      <trkpt lat="47.64716" lon="-0.25198">
        <ele>34.26</ele>
        <time>2014-04-13T09:36:28Z</time>
      </trkpt>
      <trkpt lat="47.64728" lon="-0.25224">
        <ele>34.26</ele>
        <time>2014-04-13T09:36:31Z</time>
      </trkpt>
      <trkpt lat="47.64743" lon="-0.2526">
        <ele>32.34</ele>
        <time>2014-04-13T09:36:35Z</time>
      </trkpt>
      <trkpt lat="47.64764" lon="-0.25314">
        <ele>31.86</ele>
        <time>2014-04-13T09:36:41Z</time>
      </trkpt>
      <trkpt lat="47.64769" lon="-0.2533">
        <ele>31.86</ele>
        <time>2014-04-13T09:36:43Z</time>
      </trkpt>
      <trkpt lat="47.64778" lon="-0.25355">
        <ele>31.86</ele>
        <time>2014-04-13T09:36:46Z</time>
      </trkpt>
      <trkpt lat="47.6479" lon="-0.25379">
        <ele>31.38</ele>
        <time>2014-04-13T09:36:50Z</time>
      </trkpt>
      <trkpt lat="47.64803" lon="-0.25404">
        <ele>31.86</ele>
        <time>2014-04-13T09:36:54Z</time>
      </trkpt>
      <trkpt lat="47.64818" lon="-0.25433">
        <ele>32.82</ele>
        <time>2014-04-13T09:36:59Z</time>
      </trkpt>
      <trkpt lat="47.64841" lon="-0.25477">
        <ele>33.78</ele>
        <time>2014-04-13T09:37:07Z</time>
      </trkpt>
      <trkpt lat="47.64858" lon="-0.25511">
        <ele>35.23</ele>
        <time>2014-04-13T09:37:14Z</time>
      </trkpt>
      <trkpt lat="47.64872" lon="-0.25541">
        <ele>35.23</ele>
        <time>2014-04-13T09:37:20Z</time>
      </trkpt>
      <trkpt lat="47.64883" lon="-0.2557">
        <ele>35.71</ele>
        <time>2014-04-13T09:37:26Z</time>
      </trkpt>
      <trkpt lat="47.64892" lon="-0.25592">
        <ele>35.71</ele>
        <time>2014-04-13T09:37:30Z</time>
      </trkpt>
      <trkpt lat="47.64912" lon="-0.25626">
        <ele>37.15</ele>
        <time>2014-04-13T09:37:37Z</time>
      </trkpt>
      <trkpt lat="47.64923" lon="-0.25654">
        <ele>37.15</ele>
        <time>2014-04-13T09:37:42Z</time>
      </trkpt>
      <trkpt lat="47.64946" lon="-0.25688">
        <ele>37.63</ele>
        <time>2014-04-13T09:37:49Z</time>
      </trkpt>
      <trkpt lat="47.6495" lon="-0.25699">
        <ele>38.11</ele>
        <time>2014-04-13T09:37:51Z</time>
      </trkpt>
      <trkpt lat="47.64965" lon="-0.25734">
        <ele>38.11</ele>
        <time>2014-04-13T09:37:57Z</time>
      </trkpt>
      <trkpt lat="47.64979" lon="-0.25772">
        <ele>38.11</ele>
        <time>2014-04-13T09:38:03Z</time>
      </trkpt>
      <trkpt lat="47.64996" lon="-0.25804">
        <ele>37.63</ele>
        <time>2014-04-13T09:38:09Z</time>
      </trkpt>
      <trkpt lat="47.65011" lon="-0.25834">
        <ele>39.55</ele>
        <time>2014-04-13T09:38:15Z</time>
      </trkpt>
      <trkpt lat="47.65013" lon="-0.25838">
        <ele>39.07</ele>
        <time>2014-04-13T09:38:16Z</time>
      </trkpt>
      <trkpt lat="47.65009" lon="-0.25849">
        <ele>39.07</ele>
        <time>2014-04-13T09:38:20Z</time>
      </trkpt>
      <trkpt lat="47.64989" lon="-0.25845">
        <ele>39.07</ele>
        <time>2014-04-13T09:38:26Z</time>
      </trkpt>
      <trkpt lat="47.64985" lon="-0.25844">
        <ele>39.55</ele>
        <time>2014-04-13T09:38:27Z</time>
      </trkpt>
      <trkpt lat="47.64976" lon="-0.25841">
        <ele>39.07</ele>
        <time>2014-04-13T09:38:29Z</time>
      </trkpt>
      <trkpt lat="47.64954" lon="-0.25834">
        <ele>39.07</ele>
        <time>2014-04-13T09:38:34Z</time>
      </trkpt>
      <trkpt lat="47.6495" lon="-0.25832">
        <ele>39.07</ele>
        <time>2014-04-13T09:38:35Z</time>
      </trkpt>
      <trkpt lat="47.64919" lon="-0.25818">
        <ele>40.51</ele>
        <time>2014-04-13T09:38:43Z</time>
      </trkpt>
      <trkpt lat="47.64887" lon="-0.25803">
        <ele>40.99</ele>
        <time>2014-04-13T09:38:51Z</time>
      </trkpt>
      <trkpt lat="47.64878" lon="-0.25799">
        <ele>40.51</ele>
        <time>2014-04-13T09:38:53Z</time>
      </trkpt>
      <trkpt lat="47.64857" lon="-0.25791">
        <ele>40.51</ele>
        <time>2014-04-13T09:38:58Z</time>
      </trkpt>
      <trkpt lat="47.64852" lon="-0.25789">
        <ele>40.51</ele>
        <time>2014-04-13T09:38:59Z</time>
      </trkpt>
      <trkpt lat="47.64848" lon="-0.25786">
        <ele>40.51</ele>
        <time>2014-04-13T09:39:00Z</time>
      </trkpt>
      <trkpt lat="47.64811" lon="-0.25767">
        <ele>39.07</ele>
        <time>2014-04-13T09:39:07Z</time>
      </trkpt>
      <trkpt lat="47.64786" lon="-0.25756">
        <ele>39.07</ele>
        <time>2014-04-13T09:39:11Z</time>
      </trkpt>
      <trkpt lat="47.64774" lon="-0.2575">
        <ele>38.59</ele>
        <time>2014-04-13T09:39:13Z</time>
      </trkpt>
      <trkpt lat="47.64768" lon="-0.25747">
        <ele>38.11</ele>
        <time>2014-04-13T09:39:14Z</time>
      </trkpt>
      <trkpt lat="47.64756" lon="-0.25741">
        <ele>38.11</ele>
        <time>2014-04-13T09:39:16Z</time>
      </trkpt>
      <trkpt lat="47.64721" lon="-0.25723">
        <ele>37.63</ele>
        <time>2014-04-13T09:39:22Z</time>
      </trkpt>
      <trkpt lat="47.64686" lon="-0.25707">
        <ele>39.07</ele>
        <time>2014-04-13T09:39:29Z</time>
      </trkpt>
      <trkpt lat="47.64653" lon="-0.25684">
        <ele>38.59</ele>
        <time>2014-04-13T09:39:36Z</time>
      </trkpt>
      <trkpt lat="47.64638" lon="-0.25668">
        <ele>38.59</ele>
        <time>2014-04-13T09:39:39Z</time>
      </trkpt>
      <trkpt lat="47.64622" lon="-0.25645">
        <ele>38.11</ele>
        <time>2014-04-13T09:39:43Z</time>
      </trkpt>
      <trkpt lat="47.64598" lon="-0.2561">
        <ele>38.11</ele>
        <time>2014-04-13T09:39:50Z</time>
      </trkpt>
      <trkpt lat="47.64591" lon="-0.25601">
        <ele>37.63</ele>
        <time>2014-04-13T09:39:53Z</time>
      </trkpt>
      <trkpt lat="47.64591" lon="-0.25591">
        <ele>36.67</ele>
        <time>2014-04-13T09:39:57Z</time>
      </trkpt>
      <trkpt lat="47.64593" lon="-0.25587">
        <ele>36.19</ele>
        <time>2014-04-13T09:39:59Z</time>
      </trkpt>
      <trkpt lat="47.64594" lon="-0.25569">
        <ele>33.78</ele>
        <time>2014-04-13T09:40:05Z</time>
      </trkpt>
      <trkpt lat="47.6459" lon="-0.25563">
        <ele>33.3</ele>
        <time>2014-04-13T09:40:10Z</time>
      </trkpt>
      <trkpt lat="47.64589" lon="-0.25562">
        <ele>33.78</ele>
        <time>2014-04-13T09:40:16Z</time>
      </trkpt>
      <trkpt lat="47.64588" lon="-0.25558">
        <ele>33.3</ele>
        <time>2014-04-13T09:40:21Z</time>
      </trkpt>
      <trkpt lat="47.64584" lon="-0.25545">
        <ele>33.78</ele>
        <time>2014-04-13T09:40:28Z</time>
      </trkpt>
      <trkpt lat="47.64586" lon="-0.25532">
        <ele>32.82</ele>
        <time>2014-04-13T09:40:35Z</time>
      </trkpt>
      <trkpt lat="47.64583" lon="-0.25526">
        <ele>33.3</ele>
        <time>2014-04-13T09:40:42Z</time>
      </trkpt>
      <trkpt lat="47.64581" lon="-0.25524">
        <ele>33.3</ele>
        <time>2014-04-13T09:40:44Z</time>
      </trkpt>
      <trkpt lat="47.64579" lon="-0.25519">
        <ele>34.26</ele>
        <time>2014-04-13T09:40:49Z</time>
      </trkpt>
      <trkpt lat="47.64574" lon="-0.25514">
        <ele>35.23</ele>
        <time>2014-04-13T09:40:56Z</time>
      </trkpt>
      <trkpt lat="47.64572" lon="-0.25513">
        <ele>35.71</ele>
        <time>2014-04-13T09:41:02Z</time>
      </trkpt>
      <trkpt lat="47.64566" lon="-0.25511">
        <ele>36.67</ele>
        <time>2014-04-13T09:41:07Z</time>
      </trkpt>
      <trkpt lat="47.64557" lon="-0.25516">
        <ele>36.19</ele>
        <time>2014-04-13T09:41:12Z</time>
      </trkpt>
      <trkpt lat="47.64546" lon="-0.25521">
        <ele>37.15</ele>
        <time>2014-04-13T09:41:17Z</time>
      </trkpt>
      <trkpt lat="47.64544" lon="-0.25527">
        <ele>38.11</ele>
        <time>2014-04-13T09:41:22Z</time>
      </trkpt>
      <trkpt lat="47.64541" lon="-0.25527">
        <ele>38.11</ele>
        <time>2014-04-13T09:41:24Z</time>
      </trkpt>
      <trkpt lat="47.64539" lon="-0.25524">
        <ele>38.59</ele>
        <time>2014-04-13T09:41:26Z</time>
      </trkpt>
      <trkpt lat="47.6453" lon="-0.25512">
        <ele>38.11</ele>
        <time>2014-04-13T09:41:32Z</time>
      </trkpt>
      <trkpt lat="47.64525" lon="-0.25505">
        <ele>38.59</ele>
        <time>2014-04-13T09:41:36Z</time>
      </trkpt>
      <trkpt lat="47.64515" lon="-0.25508">
        <ele>39.07</ele>
        <time>2014-04-13T09:41:42Z</time>
      </trkpt>
      <trkpt lat="47.6451" lon="-0.25508">
        <ele>40.03</ele>
        <time>2014-04-13T09:41:45Z</time>
      </trkpt>
      <trkpt lat="47.64497" lon="-0.25524">
        <ele>39.07</ele>
        <time>2014-04-13T09:41:52Z</time>
      </trkpt>
      <trkpt lat="47.64498" lon="-0.25543">
        <ele>38.59</ele>
        <time>2014-04-13T09:41:56Z</time>
      </trkpt>
      <trkpt lat="47.64491" lon="-0.2556">
        <ele>38.11</ele>
        <time>2014-04-13T09:42:00Z</time>
      </trkpt>
      <trkpt lat="47.64474" lon="-0.256">
        <ele>37.63</ele>
        <time>2014-04-13T09:42:09Z</time>
      </trkpt>
      <trkpt lat="47.64457" lon="-0.25624">
        <ele>37.63</ele>
        <time>2014-04-13T09:42:16Z</time>
      </trkpt>
      <trkpt lat="47.64452" lon="-0.25644">
        <ele>38.11</ele>
        <time>2014-04-13T09:42:21Z</time>
      </trkpt>
      <trkpt lat="47.64433" lon="-0.25659">
        <ele>38.11</ele>
        <time>2014-04-13T09:42:28Z</time>
      </trkpt>
      <trkpt lat="47.64429" lon="-0.25663">
        <ele>38.11</ele>
        <time>2014-04-13T09:42:30Z</time>
      </trkpt>
      <trkpt lat="47.64412" lon="-0.25682">
        <ele>38.11</ele>
        <time>2014-04-13T09:42:37Z</time>
      </trkpt>
      <trkpt lat="47.64397" lon="-0.25691">
        <ele>37.63</ele>
        <time>2014-04-13T09:42:42Z</time>
      </trkpt>
      <trkpt lat="47.64377" lon="-0.25696">
        <ele>38.11</ele>
        <time>2014-04-13T09:42:48Z</time>
      </trkpt>
      <trkpt lat="47.64362" lon="-0.25685">
        <ele>37.63</ele>
        <time>2014-04-13T09:42:53Z</time>
      </trkpt>
      <trkpt lat="47.64343" lon="-0.25664">
        <ele>37.63</ele>
        <time>2014-04-13T09:43:00Z</time>
      </trkpt>
      <trkpt lat="47.64335" lon="-0.25654">
        <ele>38.11</ele>
        <time>2014-04-13T09:43:03Z</time>
      </trkpt>
      <trkpt lat="47.64325" lon="-0.25638">
        <ele>38.11</ele>
        <time>2014-04-13T09:43:09Z</time>
      </trkpt>
      <trkpt lat="47.64316" lon="-0.25634">
        <ele>38.11</ele>
        <time>2014-04-13T09:43:13Z</time>
      </trkpt>
      <trkpt lat="47.64308" lon="-0.25641">
        <ele>38.59</ele>
        <time>2014-04-13T09:43:18Z</time>
      </trkpt>
      <trkpt lat="47.64298" lon="-0.25674">
        <ele>38.59</ele>
        <time>2014-04-13T09:43:25Z</time>
      </trkpt>
      <trkpt lat="47.64288" lon="-0.25714">
        <ele>38.59</ele>
        <time>2014-04-13T09:43:32Z</time>
      </trkpt>
      <trkpt lat="47.64279" lon="-0.25757">
        <ele>39.07</ele>
        <time>2014-04-13T09:43:40Z</time>
      </trkpt>
      <trkpt lat="47.6427" lon="-0.25791">
        <ele>39.07</ele>
        <time>2014-04-13T09:43:46Z</time>
      </trkpt>
      <trkpt lat="47.64264" lon="-0.25809">
        <ele>39.07</ele>
        <time>2014-04-13T09:43:49Z</time>
      </trkpt>
      <trkpt lat="47.6426" lon="-0.25834">
        <ele>39.55</ele>
        <time>2014-04-13T09:43:53Z</time>
      </trkpt>
      <trkpt lat="47.64246" lon="-0.25889">
        <ele>39.07</ele>
        <time>2014-04-13T09:44:01Z</time>
      </trkpt>
      <trkpt lat="47.64237" lon="-0.25919">
        <ele>38.11</ele>
        <time>2014-04-13T09:44:05Z</time>
      </trkpt>
      <trkpt lat="47.64225" lon="-0.25944">
        <ele>38.59</ele>
        <time>2014-04-13T09:44:09Z</time>
      </trkpt>
      <trkpt lat="47.64211" lon="-0.25964">
        <ele>38.59</ele>
        <time>2014-04-13T09:44:15Z</time>
      </trkpt>
      <trkpt lat="47.64202" lon="-0.25974">
        <ele>38.59</ele>
        <time>2014-04-13T09:44:21Z</time>
      </trkpt>
      <trkpt lat="47.64187" lon="-0.25985">
        <ele>39.07</ele>
        <time>2014-04-13T09:44:27Z</time>
      </trkpt>
      <trkpt lat="47.64173" lon="-0.25986">
        <ele>39.55</ele>
        <time>2014-04-13T09:44:32Z</time>
      </trkpt>
      <trkpt lat="47.64156" lon="-0.25986">
        <ele>40.03</ele>
        <time>2014-04-13T09:44:37Z</time>
      </trkpt>
      <trkpt lat="47.64137" lon="-0.25985">
        <ele>40.99</ele>
        <time>2014-04-13T09:44:43Z</time>
      </trkpt>
      <trkpt lat="47.64118" lon="-0.25984">
        <ele>40.51</ele>
        <time>2014-04-13T09:44:48Z</time>
      </trkpt>
      <trkpt lat="47.64105" lon="-0.25979">
        <ele>41.47</ele>
        <time>2014-04-13T09:44:51Z</time>
      </trkpt>
      <trkpt lat="47.64078" lon="-0.2597">
        <ele>41.95</ele>
        <time>2014-04-13T09:44:58Z</time>
      </trkpt>
      <trkpt lat="47.64057" lon="-0.25962">
        <ele>42.92</ele>
        <time>2014-04-13T09:45:04Z</time>
      </trkpt>
      <trkpt lat="47.64031" lon="-0.25952">
        <ele>43.4</ele>
        <time>2014-04-13T09:45:11Z</time>
      </trkpt>
      <trkpt lat="47.63993" lon="-0.25937">
        <ele>43.88</ele>
        <time>2014-04-13T09:45:20Z</time>
      </trkpt>
      <trkpt lat="47.63986" lon="-0.25934">
        <ele>44.36</ele>
        <time>2014-04-13T09:45:22Z</time>
      </trkpt>
      <trkpt lat="47.63967" lon="-0.25923">
        <ele>45.32</ele>
        <time>2014-04-13T09:45:27Z</time>
      </trkpt>
      <trkpt lat="47.63934" lon="-0.25907">
        <ele>45.8</ele>
        <time>2014-04-13T09:45:35Z</time>
      </trkpt>
      <trkpt lat="47.63903" lon="-0.25893">
        <ele>46.28</ele>
        <time>2014-04-13T09:45:42Z</time>
      </trkpt>
      <trkpt lat="47.63899" lon="-0.25891">
        <ele>46.28</ele>
        <time>2014-04-13T09:45:43Z</time>
      </trkpt>
      <trkpt lat="47.63883" lon="-0.25883">
        <ele>46.28</ele>
        <time>2014-04-13T09:45:47Z</time>
      </trkpt>
      <trkpt lat="47.63853" lon="-0.2587">
        <ele>46.76</ele>
        <time>2014-04-13T09:45:54Z</time>
      </trkpt>
      <trkpt lat="47.63849" lon="-0.25869">
        <ele>46.76</ele>
        <time>2014-04-13T09:45:55Z</time>
      </trkpt>
      <trkpt lat="47.63808" lon="-0.2585">
        <ele>47.72</ele>
        <time>2014-04-13T09:46:04Z</time>
      </trkpt>
      <trkpt lat="47.6377" lon="-0.25835">
        <ele>47.72</ele>
        <time>2014-04-13T09:46:13Z</time>
      </trkpt>
      <trkpt lat="47.6373" lon="-0.25815">
        <ele>48.2</ele>
        <time>2014-04-13T09:46:22Z</time>
      </trkpt>
      <trkpt lat="47.63721" lon="-0.25811">
        <ele>47.72</ele>
        <time>2014-04-13T09:46:24Z</time>
      </trkpt>
      <trkpt lat="47.63697" lon="-0.25798">
        <ele>48.2</ele>
        <time>2014-04-13T09:46:30Z</time>
      </trkpt>
      <trkpt lat="47.63662" lon="-0.25786">
        <ele>48.68</ele>
        <time>2014-04-13T09:46:38Z</time>
      </trkpt>
      <trkpt lat="47.63653" lon="-0.25781">
        <ele>48.68</ele>
        <time>2014-04-13T09:46:40Z</time>
      </trkpt>
      <trkpt lat="47.63637" lon="-0.25773">
        <ele>48.68</ele>
        <time>2014-04-13T09:46:44Z</time>
      </trkpt>
      <trkpt lat="47.63616" lon="-0.25762">
        <ele>49.16</ele>
        <time>2014-04-13T09:46:49Z</time>
      </trkpt>
      <trkpt lat="47.63588" lon="-0.25749">
        <ele>49.65</ele>
        <time>2014-04-13T09:46:55Z</time>
      </trkpt>
      <trkpt lat="47.63558" lon="-0.25738">
        <ele>49.16</ele>
        <time>2014-04-13T09:47:02Z</time>
      </trkpt>
      <trkpt lat="47.63536" lon="-0.25728">
        <ele>49.65</ele>
        <time>2014-04-13T09:47:08Z</time>
      </trkpt>
      <trkpt lat="47.63508" lon="-0.25717">
        <ele>50.61</ele>
        <time>2014-04-13T09:47:15Z</time>
      </trkpt>
      <trkpt lat="47.63478" lon="-0.25702">
        <ele>51.09</ele>
        <time>2014-04-13T09:47:23Z</time>
      </trkpt>
      <trkpt lat="47.63465" lon="-0.25698">
        <ele>51.57</ele>
        <time>2014-04-13T09:47:28Z</time>
      </trkpt>
      <trkpt lat="47.63458" lon="-0.25698">
        <ele>52.05</ele>
        <time>2014-04-13T09:47:33Z</time>
      </trkpt>
      <trkpt lat="47.63442" lon="-0.25704">
        <ele>52.53</ele>
        <time>2014-04-13T09:47:38Z</time>
      </trkpt>
      <trkpt lat="47.6342" lon="-0.25718">
        <ele>52.53</ele>
        <time>2014-04-13T09:47:44Z</time>
      </trkpt>
      <trkpt lat="47.63397" lon="-0.25732">
        <ele>53.49</ele>
        <time>2014-04-13T09:47:50Z</time>
      </trkpt>
      <trkpt lat="47.63371" lon="-0.25748">
        <ele>53.97</ele>
        <time>2014-04-13T09:47:57Z</time>
      </trkpt>
      <trkpt lat="47.63343" lon="-0.25765">
        <ele>53.97</ele>
        <time>2014-04-13T09:48:04Z</time>
      </trkpt>
      <trkpt lat="47.63316" lon="-0.25783">
        <ele>53.97</ele>
        <time>2014-04-13T09:48:11Z</time>
      </trkpt>
      <trkpt lat="47.63292" lon="-0.25797">
        <ele>53.49</ele>
        <time>2014-04-13T09:48:17Z</time>
      </trkpt>
      <trkpt lat="47.63277" lon="-0.25808">
        <ele>53.97</ele>
        <time>2014-04-13T09:48:21Z</time>
      </trkpt>
      <trkpt lat="47.63236" lon="-0.25832">
        <ele>53.49</ele>
        <time>2014-04-13T09:48:30Z</time>
      </trkpt>
      <trkpt lat="47.63223" lon="-0.25839">
        <ele>53.01</ele>
        <time>2014-04-13T09:48:33Z</time>
      </trkpt>
      <trkpt lat="47.63204" lon="-0.25849">
        <ele>52.05</ele>
        <time>2014-04-13T09:48:37Z</time>
      </trkpt>
      <trkpt lat="47.63181" lon="-0.25864">
        <ele>52.53</ele>
        <time>2014-04-13T09:48:42Z</time>
      </trkpt>
      <trkpt lat="47.63172" lon="-0.25869">
        <ele>52.53</ele>
        <time>2014-04-13T09:48:44Z</time>
      </trkpt>
      <trkpt lat="47.63149" lon="-0.25884">
        <ele>52.53</ele>
        <time>2014-04-13T09:48:49Z</time>
      </trkpt>
      <trkpt lat="47.6313" lon="-0.25897">
        <ele>52.05</ele>
        <time>2014-04-13T09:48:53Z</time>
      </trkpt>
      <trkpt lat="47.631" lon="-0.25916">
        <ele>51.57</ele>
        <time>2014-04-13T09:48:59Z</time>
      </trkpt>
      <trkpt lat="47.63086" lon="-0.25927">
        <ele>51.57</ele>
        <time>2014-04-13T09:49:02Z</time>
      </trkpt>
      <trkpt lat="47.63068" lon="-0.25941">
        <ele>51.09</ele>
        <time>2014-04-13T09:49:06Z</time>
      </trkpt>
      <trkpt lat="47.63057" lon="-0.25946">
        <ele>51.57</ele>
        <time>2014-04-13T09:49:08Z</time>
      </trkpt>
      <trkpt lat="47.63038" lon="-0.25959">
        <ele>51.09</ele>
        <time>2014-04-13T09:49:12Z</time>
      </trkpt>
      <trkpt lat="47.6302" lon="-0.2597">
        <ele>51.09</ele>
        <time>2014-04-13T09:49:16Z</time>
      </trkpt>
      <trkpt lat="47.62993" lon="-0.25986">
        <ele>51.09</ele>
        <time>2014-04-13T09:49:22Z</time>
      </trkpt>
      <trkpt lat="47.62962" lon="-0.26005">
        <ele>51.09</ele>
        <time>2014-04-13T09:49:29Z</time>
      </trkpt>
      <trkpt lat="47.62946" lon="-0.26013">
        <ele>50.61</ele>
        <time>2014-04-13T09:49:32Z</time>
      </trkpt>
      <trkpt lat="47.62914" lon="-0.26034">
        <ele>50.13</ele>
        <time>2014-04-13T09:49:39Z</time>
      </trkpt>
      <trkpt lat="47.62881" lon="-0.26054">
        <ele>50.61</ele>
        <time>2014-04-13T09:49:46Z</time>
      </trkpt>
      <trkpt lat="47.62852" lon="-0.26073">
        <ele>50.61</ele>
        <time>2014-04-13T09:49:52Z</time>
      </trkpt>
      <trkpt lat="47.62835" lon="-0.26083">
        <ele>50.13</ele>
        <time>2014-04-13T09:49:55Z</time>
      </trkpt>
      <trkpt lat="47.62803" lon="-0.26106">
        <ele>49.16</ele>
        <time>2014-04-13T09:50:01Z</time>
      </trkpt>
      <trkpt lat="47.62776" lon="-0.26125">
        <ele>48.68</ele>
        <time>2014-04-13T09:50:07Z</time>
      </trkpt>
      <trkpt lat="47.62757" lon="-0.26138">
        <ele>48.68</ele>
        <time>2014-04-13T09:50:11Z</time>
      </trkpt>
      <trkpt lat="47.62721" lon="-0.26161">
        <ele>49.65</ele>
        <time>2014-04-13T09:50:18Z</time>
      </trkpt>
      <trkpt lat="47.62676" lon="-0.2619">
        <ele>48.68</ele>
        <time>2014-04-13T09:50:26Z</time>
      </trkpt>
      <trkpt lat="47.62654" lon="-0.26204">
        <ele>48.68</ele>
        <time>2014-04-13T09:50:30Z</time>
      </trkpt>
      <trkpt lat="47.62613" lon="-0.2623">
        <ele>48.2</ele>
        <time>2014-04-13T09:50:38Z</time>
      </trkpt>
      <trkpt lat="47.62594" lon="-0.26242">
        <ele>47.72</ele>
        <time>2014-04-13T09:50:42Z</time>
      </trkpt>
      <trkpt lat="47.62566" lon="-0.26255">
        <ele>47.24</ele>
        <time>2014-04-13T09:50:48Z</time>
      </trkpt>
      <trkpt lat="47.62532" lon="-0.26274">
        <ele>47.24</ele>
        <time>2014-04-13T09:50:56Z</time>
      </trkpt>
      <trkpt lat="47.62513" lon="-0.26286">
        <ele>46.28</ele>
        <time>2014-04-13T09:51:01Z</time>
      </trkpt>
      <trkpt lat="47.62489" lon="-0.263">
        <ele>45.8</ele>
        <time>2014-04-13T09:51:07Z</time>
      </trkpt>
      <trkpt lat="47.62463" lon="-0.26317">
        <ele>46.28</ele>
        <time>2014-04-13T09:51:14Z</time>
      </trkpt>
      <trkpt lat="47.62442" lon="-0.26328">
        <ele>46.76</ele>
        <time>2014-04-13T09:51:20Z</time>
      </trkpt>
      <trkpt lat="47.62425" lon="-0.26339">
        <ele>47.24</ele>
        <time>2014-04-13T09:51:25Z</time>
      </trkpt>
      <trkpt lat="47.62413" lon="-0.26349">
        <ele>46.76</ele>
        <time>2014-04-13T09:51:28Z</time>
      </trkpt>
      <trkpt lat="47.62388" lon="-0.26368">
        <ele>46.76</ele>
        <time>2014-04-13T09:51:34Z</time>
      </trkpt>
      <trkpt lat="47.62373" lon="-0.26385">
        <ele>46.76</ele>
        <time>2014-04-13T09:51:38Z</time>
      </trkpt>
      <trkpt lat="47.62356" lon="-0.26402">
        <ele>47.24</ele>
        <time>2014-04-13T09:51:42Z</time>
      </trkpt>
      <trkpt lat="47.62344" lon="-0.26425">
        <ele>46.76</ele>
        <time>2014-04-13T09:51:46Z</time>
      </trkpt>
      <trkpt lat="47.62325" lon="-0.26461">
        <ele>47.24</ele>
        <time>2014-04-13T09:51:53Z</time>
      </trkpt>
      <trkpt lat="47.62319" lon="-0.26475">
        <ele>47.72</ele>
        <time>2014-04-13T09:51:56Z</time>
      </trkpt>
      <trkpt lat="47.62304" lon="-0.26503">
        <ele>47.72</ele>
        <time>2014-04-13T09:52:02Z</time>
      </trkpt>
      <trkpt lat="47.62296" lon="-0.26518">
        <ele>48.2</ele>
        <time>2014-04-13T09:52:05Z</time>
      </trkpt>
      <trkpt lat="47.62281" lon="-0.26549">
        <ele>48.68</ele>
        <time>2014-04-13T09:52:11Z</time>
      </trkpt>
      <trkpt lat="47.62267" lon="-0.26574">
        <ele>48.68</ele>
        <time>2014-04-13T09:52:16Z</time>
      </trkpt>
      <trkpt lat="47.62251" lon="-0.26607">
        <ele>49.16</ele>
        <time>2014-04-13T09:52:23Z</time>
      </trkpt>
      <trkpt lat="47.62236" lon="-0.26634">
        <ele>49.65</ele>
        <time>2014-04-13T09:52:29Z</time>
      </trkpt>
      <trkpt lat="47.62228" lon="-0.26654">
        <ele>50.13</ele>
        <time>2014-04-13T09:52:33Z</time>
      </trkpt>
      <trkpt lat="47.62219" lon="-0.26674">
        <ele>50.13</ele>
        <time>2014-04-13T09:52:37Z</time>
      </trkpt>
      <trkpt lat="47.62214" lon="-0.26684">
        <ele>49.65</ele>
        <time>2014-04-13T09:52:39Z</time>
      </trkpt>
      <trkpt lat="47.62202" lon="-0.26706">
        <ele>50.13</ele>
        <time>2014-04-13T09:52:43Z</time>
      </trkpt>
      <trkpt lat="47.62181" lon="-0.26748">
        <ele>50.61</ele>
        <time>2014-04-13T09:52:51Z</time>
      </trkpt>
      <trkpt lat="47.62167" lon="-0.26774">
        <ele>51.09</ele>
        <time>2014-04-13T09:52:57Z</time>
      </trkpt>
      <trkpt lat="47.62153" lon="-0.26805">
        <ele>51.57</ele>
        <time>2014-04-13T09:53:03Z</time>
      </trkpt>
      <trkpt lat="47.6215" lon="-0.2681">
        <ele>51.57</ele>
        <time>2014-04-13T09:53:04Z</time>
      </trkpt>
      <trkpt lat="47.62138" lon="-0.26832">
        <ele>51.57</ele>
        <time>2014-04-13T09:53:08Z</time>
      </trkpt>
      <trkpt lat="47.62119" lon="-0.2687">
        <ele>51.09</ele>
        <time>2014-04-13T09:53:15Z</time>
      </trkpt>
      <trkpt lat="47.62108" lon="-0.26889">
        <ele>51.09</ele>
        <time>2014-04-13T09:53:19Z</time>
      </trkpt>
      <trkpt lat="47.62084" lon="-0.26937">
        <ele>51.09</ele>
        <time>2014-04-13T09:53:28Z</time>
      </trkpt>
      <trkpt lat="47.62073" lon="-0.26959">
        <ele>51.57</ele>
        <time>2014-04-13T09:53:32Z</time>
      </trkpt>
      <trkpt lat="47.62061" lon="-0.26982">
        <ele>51.57</ele>
        <time>2014-04-13T09:53:36Z</time>
      </trkpt>
      <trkpt lat="47.62051" lon="-0.27003">
        <ele>52.05</ele>
        <time>2014-04-13T09:53:40Z</time>
      </trkpt>
      <trkpt lat="47.62043" lon="-0.27019">
        <ele>52.05</ele>
        <time>2014-04-13T09:53:43Z</time>
      </trkpt>
      <trkpt lat="47.62028" lon="-0.27044">
        <ele>51.57</ele>
        <time>2014-04-13T09:53:48Z</time>
      </trkpt>
      <trkpt lat="47.6202" lon="-0.27061">
        <ele>51.57</ele>
        <time>2014-04-13T09:53:51Z</time>
      </trkpt>
      <trkpt lat="47.62005" lon="-0.27093">
        <ele>51.57</ele>
        <time>2014-04-13T09:53:57Z</time>
      </trkpt>
      <trkpt lat="47.61989" lon="-0.27128">
        <ele>51.57</ele>
        <time>2014-04-13T09:54:04Z</time>
      </trkpt>
      <trkpt lat="47.61976" lon="-0.27154">
        <ele>51.57</ele>
        <time>2014-04-13T09:54:10Z</time>
      </trkpt>
      <trkpt lat="47.61972" lon="-0.27162">
        <ele>51.57</ele>
        <time>2014-04-13T09:54:14Z</time>
      </trkpt>
      <trkpt lat="47.61963" lon="-0.27183">
        <ele>51.57</ele>
        <time>2014-04-13T09:54:19Z</time>
      </trkpt>
      <trkpt lat="47.61957" lon="-0.27193">
        <ele>52.05</ele>
        <time>2014-04-13T09:54:21Z</time>
      </trkpt>
      <trkpt lat="47.61931" lon="-0.27243">
        <ele>52.53</ele>
        <time>2014-04-13T09:54:30Z</time>
      </trkpt>
      <trkpt lat="47.61908" lon="-0.27288">
        <ele>52.05</ele>
        <time>2014-04-13T09:54:38Z</time>
      </trkpt>
      <trkpt lat="47.61899" lon="-0.27304">
        <ele>52.05</ele>
        <time>2014-04-13T09:54:41Z</time>
      </trkpt>
      <trkpt lat="47.61883" lon="-0.27329">
        <ele>51.57</ele>
        <time>2014-04-13T09:54:46Z</time>
      </trkpt>
      <trkpt lat="47.6187" lon="-0.27357">
        <ele>51.57</ele>
        <time>2014-04-13T09:54:51Z</time>
      </trkpt>
      <trkpt lat="47.61844" lon="-0.27408">
        <ele>50.61</ele>
        <time>2014-04-13T09:55:00Z</time>
      </trkpt>
      <trkpt lat="47.61833" lon="-0.27431">
        <ele>50.61</ele>
        <time>2014-04-13T09:55:04Z</time>
      </trkpt>
      <trkpt lat="47.61822" lon="-0.27453">
        <ele>50.61</ele>
        <time>2014-04-13T09:55:08Z</time>
      </trkpt>
      <trkpt lat="47.61809" lon="-0.27476">
        <ele>50.61</ele>
        <time>2014-04-13T09:55:12Z</time>
      </trkpt>
      <trkpt lat="47.61803" lon="-0.27487">
        <ele>50.13</ele>
        <time>2014-04-13T09:55:14Z</time>
      </trkpt>
      <trkpt lat="47.61773" lon="-0.27549">
        <ele>50.13</ele>
        <time>2014-04-13T09:55:24Z</time>
      </trkpt>
      <trkpt lat="47.61737" lon="-0.27619">
        <ele>49.16</ele>
        <time>2014-04-13T09:55:35Z</time>
      </trkpt>
      <trkpt lat="47.61707" lon="-0.27678">
        <ele>49.16</ele>
        <time>2014-04-13T09:55:44Z</time>
      </trkpt>
      <trkpt lat="47.61687" lon="-0.27719">
        <ele>48.68</ele>
        <time>2014-04-13T09:55:50Z</time>
      </trkpt>
      <trkpt lat="47.6166" lon="-0.2777">
        <ele>48.2</ele>
        <time>2014-04-13T09:55:58Z</time>
      </trkpt>
      <trkpt lat="47.61628" lon="-0.27835">
        <ele>47.72</ele>
        <time>2014-04-13T09:56:07Z</time>
      </trkpt>
      <trkpt lat="47.61599" lon="-0.27896">
        <ele>46.76</ele>
        <time>2014-04-13T09:56:15Z</time>
      </trkpt>
      <trkpt lat="47.61565" lon="-0.27965">
        <ele>46.28</ele>
        <time>2014-04-13T09:56:24Z</time>
      </trkpt>
      <trkpt lat="47.61558" lon="-0.27981">
        <ele>46.28</ele>
        <time>2014-04-13T09:56:26Z</time>
      </trkpt>
      <trkpt lat="47.61517" lon="-0.28062">
        <ele>45.32</ele>
        <time>2014-04-13T09:56:36Z</time>
      </trkpt>
      <trkpt lat="47.6148" lon="-0.28133">
        <ele>43.4</ele>
        <time>2014-04-13T09:56:45Z</time>
      </trkpt>
      <trkpt lat="47.61449" lon="-0.28195">
        <ele>43.4</ele>
        <time>2014-04-13T09:56:53Z</time>
      </trkpt>
      <trkpt lat="47.61415" lon="-0.28261">
        <ele>42.92</ele>
        <time>2014-04-13T09:57:02Z</time>
      </trkpt>
      <trkpt lat="47.61411" lon="-0.28268">
        <ele>42.92</ele>
        <time>2014-04-13T09:57:03Z</time>
      </trkpt>
      <trkpt lat="47.61384" lon="-0.28322">
        <ele>41.47</ele>
        <time>2014-04-13T09:57:11Z</time>
      </trkpt>
      <trkpt lat="47.61376" lon="-0.28345">
        <ele>40.99</ele>
        <time>2014-04-13T09:57:16Z</time>
      </trkpt>
      <trkpt lat="47.61365" lon="-0.28352">
        <ele>40.99</ele>
        <time>2014-04-13T09:57:20Z</time>
      </trkpt>
      <trkpt lat="47.61327" lon="-0.28355">
        <ele>41.47</ele>
        <time>2014-04-13T09:57:28Z</time>
      </trkpt>
      <trkpt lat="47.61317" lon="-0.28358">
        <ele>41.47</ele>
        <time>2014-04-13T09:57:30Z</time>
      </trkpt>
      <trkpt lat="47.61264" lon="-0.28387">
        <ele>40.99</ele>
        <time>2014-04-13T09:57:40Z</time>
      </trkpt>
      <trkpt lat="47.61243" lon="-0.28401">
        <ele>41.95</ele>
        <time>2014-04-13T09:57:44Z</time>
      </trkpt>
      <trkpt lat="47.61197" lon="-0.28437">
        <ele>40.99</ele>
        <time>2014-04-13T09:57:53Z</time>
      </trkpt>
      <trkpt lat="47.61142" lon="-0.28476">
        <ele>41.47</ele>
        <time>2014-04-13T09:58:03Z</time>
      </trkpt>
      <trkpt lat="47.61116" lon="-0.28496">
        <ele>40.99</ele>
        <time>2014-04-13T09:58:08Z</time>
      </trkpt>
      <trkpt lat="47.61068" lon="-0.28529">
        <ele>40.99</ele>
        <time>2014-04-13T09:58:17Z</time>
      </trkpt>
      <trkpt lat="47.61039" lon="-0.28553">
        <ele>40.99</ele>
        <time>2014-04-13T09:58:23Z</time>
      </trkpt>
      <trkpt lat="47.61013" lon="-0.28558">
        <ele>40.99</ele>
        <time>2014-04-13T09:58:28Z</time>
      </trkpt>
      <trkpt lat="47.61003" lon="-0.28547">
        <ele>41.47</ele>
        <time>2014-04-13T09:58:31Z</time>
      </trkpt>
      <trkpt lat="47.61002" lon="-0.28498">
        <ele>41.95</ele>
        <time>2014-04-13T09:58:38Z</time>
      </trkpt>
      <trkpt lat="47.60999" lon="-0.28478">
        <ele>41.47</ele>
        <time>2014-04-13T09:58:41Z</time>
      </trkpt>
      <trkpt lat="47.60982" lon="-0.28426">
        <ele>42.44</ele>
        <time>2014-04-13T09:58:49Z</time>
      </trkpt>
      <trkpt lat="47.60979" lon="-0.28419">
        <ele>41.95</ele>
        <time>2014-04-13T09:58:50Z</time>
      </trkpt>
      <trkpt lat="47.60972" lon="-0.28399">
        <ele>41.47</ele>
        <time>2014-04-13T09:58:53Z</time>
      </trkpt>
      <trkpt lat="47.60949" lon="-0.28351">
        <ele>41.95</ele>
        <time>2014-04-13T09:59:01Z</time>
      </trkpt>
      <trkpt lat="47.60931" lon="-0.28312">
        <ele>42.44</ele>
        <time>2014-04-13T09:59:07Z</time>
      </trkpt>
      <trkpt lat="47.60925" lon="-0.28299">
        <ele>42.44</ele>
        <time>2014-04-13T09:59:09Z</time>
      </trkpt>
      <trkpt lat="47.60917" lon="-0.28283">
        <ele>42.44</ele>
        <time>2014-04-13T09:59:12Z</time>
      </trkpt>
      <trkpt lat="47.609" lon="-0.28254">
        <ele>42.44</ele>
        <time>2014-04-13T09:59:18Z</time>
      </trkpt>
      <trkpt lat="47.6087" lon="-0.28229">
        <ele>42.44</ele>
        <time>2014-04-13T09:59:25Z</time>
      </trkpt>
      <trkpt lat="47.60843" lon="-0.28213">
        <ele>42.44</ele>
        <time>2014-04-13T09:59:32Z</time>
      </trkpt>
      <trkpt lat="47.6082" lon="-0.28204">
        <ele>42.92</ele>
        <time>2014-04-13T09:59:38Z</time>
      </trkpt>
      <trkpt lat="47.60793" lon="-0.28192">
        <ele>43.4</ele>
        <time>2014-04-13T09:59:46Z</time>
      </trkpt>
      <trkpt lat="47.60772" lon="-0.2818">
        <ele>44.84</ele>
        <time>2014-04-13T09:59:53Z</time>
      </trkpt>
      <trkpt lat="47.60752" lon="-0.28169">
        <ele>44.36</ele>
        <time>2014-04-13T09:59:59Z</time>
      </trkpt>
      <trkpt lat="47.60734" lon="-0.28156">
        <ele>44.84</ele>
        <time>2014-04-13T10:00:05Z</time>
      </trkpt>
      <trkpt lat="47.60715" lon="-0.28149">
        <ele>45.32</ele>
        <time>2014-04-13T10:00:11Z</time>
      </trkpt>
      <trkpt lat="47.60693" lon="-0.28141">
        <ele>45.32</ele>
        <time>2014-04-13T10:00:18Z</time>
      </trkpt>
      <trkpt lat="47.60676" lon="-0.28136">
        <ele>45.8</ele>
        <time>2014-04-13T10:00:24Z</time>
      </trkpt>
      <trkpt lat="47.60655" lon="-0.28135">
        <ele>46.76</ele>
        <time>2014-04-13T10:00:31Z</time>
      </trkpt>
      <trkpt lat="47.60634" lon="-0.28129">
        <ele>46.76</ele>
        <time>2014-04-13T10:00:37Z</time>
      </trkpt>
      <trkpt lat="47.60608" lon="-0.28115">
        <ele>47.24</ele>
        <time>2014-04-13T10:00:45Z</time>
      </trkpt>
      <trkpt lat="47.60584" lon="-0.28099">
        <ele>47.72</ele>
        <time>2014-04-13T10:00:52Z</time>
      </trkpt>
      <trkpt lat="47.60561" lon="-0.28088">
        <ele>48.2</ele>
        <time>2014-04-13T10:00:59Z</time>
      </trkpt>
      <trkpt lat="47.60541" lon="-0.28076">
        <ele>48.2</ele>
        <time>2014-04-13T10:01:05Z</time>
      </trkpt>
      <trkpt lat="47.60528" lon="-0.2807">
        <ele>48.2</ele>
        <time>2014-04-13T10:01:09Z</time>
      </trkpt>
      <trkpt lat="47.60121" lon="-0.28583">
        <ele>63.58</ele>
        <time>2014-04-13T10:05:59Z</time>
      </trkpt>
      <trkpt lat="47.6012" lon="-0.28571">
        <ele>65.03</ele>
        <time>2014-04-13T10:06:07Z</time>
      </trkpt>
      <trkpt lat="47.6012" lon="-0.28567">
        <ele>65.51</ele>
        <time>2014-04-13T10:06:13Z</time>
      </trkpt>
      <trkpt lat="47.60119" lon="-0.2855">
        <ele>65.03</ele>
        <time>2014-04-13T10:06:19Z</time>
      </trkpt>
      <trkpt lat="47.60116" lon="-0.28528">
        <ele>63.58</ele>
        <time>2014-04-13T10:06:22Z</time>
      </trkpt>
      <trkpt lat="47.60111" lon="-0.28509">
        <ele>62.62</ele>
        <time>2014-04-13T10:06:24Z</time>
      </trkpt>
      <trkpt lat="47.60102" lon="-0.28489">
        <ele>61.18</ele>
        <time>2014-04-13T10:06:26Z</time>
      </trkpt>
      <trkpt lat="47.6009" lon="-0.28468">
        <ele>59.74</ele>
        <time>2014-04-13T10:06:28Z</time>
      </trkpt>
      <trkpt lat="47.60072" lon="-0.28412">
        <ele>55.41</ele>
        <time>2014-04-13T10:06:32Z</time>
      </trkpt>
      <trkpt lat="47.60063" lon="-0.28363">
        <ele>52.05</ele>
        <time>2014-04-13T10:06:35Z</time>
      </trkpt>
      <trkpt lat="47.60052" lon="-0.28291">
        <ele>48.68</ele>
        <time>2014-04-13T10:06:39Z</time>
      </trkpt>
      <trkpt lat="47.60044" lon="-0.28236">
        <ele>45.8</ele>
        <time>2014-04-13T10:06:42Z</time>
      </trkpt>
      <trkpt lat="47.60036" lon="-0.28186">
        <ele>41.95</ele>
        <time>2014-04-13T10:06:45Z</time>
      </trkpt>
      <trkpt lat="47.60034" lon="-0.28172">
        <ele>40.99</ele>
        <time>2014-04-13T10:06:46Z</time>
      </trkpt>
      <trkpt lat="47.60022" lon="-0.28144">
        <ele>39.55</ele>
        <time>2014-04-13T10:06:50Z</time>
      </trkpt>
      <trkpt lat="47.60013" lon="-0.2815">
        <ele>39.07</ele>
        <time>2014-04-13T10:06:53Z</time>
      </trkpt>
      <trkpt lat="47.59998" lon="-0.2817">
        <ele>39.07</ele>
        <time>2014-04-13T10:06:59Z</time>
      </trkpt>
      <trkpt lat="47.59976" lon="-0.28215">
        <ele>39.07</ele>
        <time>2014-04-13T10:07:08Z</time>
      </trkpt>
      <trkpt lat="47.59971" lon="-0.28226">
        <ele>40.03</ele>
        <time>2014-04-13T10:07:10Z</time>
      </trkpt>
      <trkpt lat="47.59961" lon="-0.28248">
        <ele>40.51</ele>
        <time>2014-04-13T10:07:14Z</time>
      </trkpt>
      <trkpt lat="47.59952" lon="-0.2827">
        <ele>40.99</ele>
        <time>2014-04-13T10:07:18Z</time>
      </trkpt>
      <trkpt lat="47.59935" lon="-0.28324">
        <ele>41.95</ele>
        <time>2014-04-13T10:07:28Z</time>
      </trkpt>
      <trkpt lat="47.5992" lon="-0.28368">
        <ele>42.44</ele>
        <time>2014-04-13T10:07:36Z</time>
      </trkpt>
      <trkpt lat="47.59915" lon="-0.28384">
        <ele>42.92</ele>
        <time>2014-04-13T10:07:39Z</time>
      </trkpt>
      <trkpt lat="47.59902" lon="-0.28421">
        <ele>42.92</ele>
        <time>2014-04-13T10:07:46Z</time>
      </trkpt>
      <trkpt lat="47.59884" lon="-0.28465">
        <ele>43.88</ele>
        <time>2014-04-13T10:07:55Z</time>
      </trkpt>
      <trkpt lat="47.59863" lon="-0.28499">
        <ele>44.84</ele>
        <time>2014-04-13T10:08:03Z</time>
      </trkpt>
      <trkpt lat="47.59857" lon="-0.28507">
        <ele>45.32</ele>
        <time>2014-04-13T10:08:05Z</time>
      </trkpt>
      <trkpt lat="47.59847" lon="-0.28517">
        <ele>45.32</ele>
        <time>2014-04-13T10:08:08Z</time>
      </trkpt>
      <trkpt lat="47.59811" lon="-0.28553">
        <ele>44.84</ele>
        <time>2014-04-13T10:08:17Z</time>
      </trkpt>
      <trkpt lat="47.5977" lon="-0.2858">
        <ele>43.88</ele>
        <time>2014-04-13T10:08:25Z</time>
      </trkpt>
      <trkpt lat="47.59731" lon="-0.28606">
        <ele>43.88</ele>
        <time>2014-04-13T10:08:33Z</time>
      </trkpt>
      <trkpt lat="47.59686" lon="-0.28631">
        <ele>44.36</ele>
        <time>2014-04-13T10:08:42Z</time>
      </trkpt>
      <trkpt lat="47.5965" lon="-0.28649">
        <ele>44.36</ele>
        <time>2014-04-13T10:08:49Z</time>
      </trkpt>
      <trkpt lat="47.59614" lon="-0.28685">
        <ele>44.36</ele>
        <time>2014-04-13T10:08:57Z</time>
      </trkpt>
      <trkpt lat="47.59589" lon="-0.28721">
        <ele>44.84</ele>
        <time>2014-04-13T10:09:04Z</time>
      </trkpt>
      <trkpt lat="47.59564" lon="-0.28756">
        <ele>45.32</ele>
        <time>2014-04-13T10:09:11Z</time>
      </trkpt>
      <trkpt lat="47.59535" lon="-0.28796">
        <ele>46.28</ele>
        <time>2014-04-13T10:09:19Z</time>
      </trkpt>
      <trkpt lat="47.59526" lon="-0.2881">
        <ele>46.28</ele>
        <time>2014-04-13T10:09:22Z</time>
      </trkpt>
      <trkpt lat="47.59513" lon="-0.28832">
        <ele>46.28</ele>
        <time>2014-04-13T10:09:26Z</time>
      </trkpt>
      <trkpt lat="47.59504" lon="-0.28847">
        <ele>46.28</ele>
        <time>2014-04-13T10:09:29Z</time>
      </trkpt>
      <trkpt lat="47.59484" lon="-0.28883">
        <ele>46.28</ele>
        <time>2014-04-13T10:09:36Z</time>
      </trkpt>
      <trkpt lat="47.59462" lon="-0.28892">
        <ele>46.28</ele>
        <time>2014-04-13T10:09:41Z</time>
      </trkpt>
      <trkpt lat="47.59417" lon="-0.28876">
        <ele>44.84</ele>
        <time>2014-04-13T10:09:49Z</time>
      </trkpt>
      <trkpt lat="47.59391" lon="-0.28858">
        <ele>45.32</ele>
        <time>2014-04-13T10:09:54Z</time>
      </trkpt>
      <trkpt lat="47.59376" lon="-0.28848">
        <ele>44.84</ele>
        <time>2014-04-13T10:09:57Z</time>
      </trkpt>
      <trkpt lat="47.59346" lon="-0.28837">
        <ele>45.32</ele>
        <time>2014-04-13T10:10:03Z</time>
      </trkpt>
      <trkpt lat="47.59325" lon="-0.28836">
        <ele>45.32</ele>
        <time>2014-04-13T10:10:07Z</time>
      </trkpt>
      <trkpt lat="47.59279" lon="-0.28839">
        <ele>46.28</ele>
        <time>2014-04-13T10:10:16Z</time>
      </trkpt>
      <trkpt lat="47.5923" lon="-0.28841">
        <ele>46.76</ele>
        <time>2014-04-13T10:10:26Z</time>
      </trkpt>
      <trkpt lat="47.59212" lon="-0.28842">
        <ele>46.76</ele>
        <time>2014-04-13T10:10:30Z</time>
      </trkpt>
      <trkpt lat="47.59187" lon="-0.28849">
        <ele>47.72</ele>
        <time>2014-04-13T10:10:37Z</time>
      </trkpt>
      <trkpt lat="47.5916" lon="-0.28858">
        <ele>48.68</ele>
        <time>2014-04-13T10:10:46Z</time>
      </trkpt>
      <trkpt lat="47.59144" lon="-0.28865">
        <ele>49.65</ele>
        <time>2014-04-13T10:10:53Z</time>
      </trkpt>
      <trkpt lat="47.59133" lon="-0.28874">
        <ele>50.61</ele>
        <time>2014-04-13T10:11:00Z</time>
      </trkpt>
      <trkpt lat="47.59122" lon="-0.28879">
        <ele>52.05</ele>
        <time>2014-04-13T10:11:07Z</time>
      </trkpt>
      <trkpt lat="47.5911" lon="-0.28882">
        <ele>53.97</ele>
        <time>2014-04-13T10:11:15Z</time>
      </trkpt>
      <trkpt lat="47.59106" lon="-0.28882">
        <ele>54.93</ele>
        <time>2014-04-13T10:11:17Z</time>
      </trkpt>
      <trkpt lat="47.59101" lon="-0.28884">
        <ele>55.89</ele>
        <time>2014-04-13T10:11:21Z</time>
      </trkpt>
      <trkpt lat="47.59095" lon="-0.28885">
        <ele>56.86</ele>
        <time>2014-04-13T10:11:25Z</time>
      </trkpt>
      <trkpt lat="47.59083" lon="-0.28887">
        <ele>57.82</ele>
        <time>2014-04-13T10:11:33Z</time>
      </trkpt>
      <trkpt lat="47.59081" lon="-0.28887">
        <ele>57.34</ele>
        <time>2014-04-13T10:11:34Z</time>
      </trkpt>
      <trkpt lat="47.59067" lon="-0.2889">
        <ele>58.78</ele>
        <time>2014-04-13T10:11:43Z</time>
      </trkpt>
      <trkpt lat="47.59055" lon="-0.28893">
        <ele>59.74</ele>
        <time>2014-04-13T10:11:50Z</time>
      </trkpt>
      <trkpt lat="47.59037" lon="-0.28896">
        <ele>60.22</ele>
        <time>2014-04-13T10:12:00Z</time>
      </trkpt>
      <trkpt lat="47.59021" lon="-0.28898">
        <ele>60.22</ele>
        <time>2014-04-13T10:12:08Z</time>
      </trkpt>
      <trkpt lat="47.58996" lon="-0.28904">
        <ele>60.7</ele>
        <time>2014-04-13T10:12:17Z</time>
      </trkpt>
      <trkpt lat="47.58975" lon="-0.2891">
        <ele>60.7</ele>
        <time>2014-04-13T10:12:25Z</time>
      </trkpt>
      <trkpt lat="47.58949" lon="-0.28913">
        <ele>60.7</ele>
        <time>2014-04-13T10:12:33Z</time>
      </trkpt>
      <trkpt lat="47.58911" lon="-0.28922">
        <ele>61.18</ele>
        <time>2014-04-13T10:12:43Z</time>
      </trkpt>
      <trkpt lat="47.58907" lon="-0.28923">
        <ele>60.7</ele>
        <time>2014-04-13T10:12:44Z</time>
      </trkpt>
      <trkpt lat="47.5887" lon="-0.2894">
        <ele>61.18</ele>
        <time>2014-04-13T10:12:53Z</time>
      </trkpt>
      <trkpt lat="47.58838" lon="-0.28955">
        <ele>60.7</ele>
        <time>2014-04-13T10:13:01Z</time>
      </trkpt>
      <trkpt lat="47.58832" lon="-0.28954">
        <ele>60.7</ele>
        <time>2014-04-13T10:13:03Z</time>
      </trkpt>
      <trkpt lat="47.58817" lon="-0.28931">
        <ele>60.22</ele>
        <time>2014-04-13T10:13:09Z</time>
      </trkpt>
      <trkpt lat="47.58779" lon="-0.2889">
        <ele>60.7</ele>
        <time>2014-04-13T10:13:19Z</time>
      </trkpt>
      <trkpt lat="47.58771" lon="-0.28884">
        <ele>59.74</ele>
        <time>2014-04-13T10:13:21Z</time>
      </trkpt>
      <trkpt lat="47.58751" lon="-0.28883">
        <ele>60.22</ele>
        <time>2014-04-13T10:13:25Z</time>
      </trkpt>
      <trkpt lat="47.58708" lon="-0.28926">
        <ele>58.78</ele>
        <time>2014-04-13T10:13:35Z</time>
      </trkpt>
      <trkpt lat="47.58687" lon="-0.28953">
        <ele>59.26</ele>
        <time>2014-04-13T10:13:40Z</time>
      </trkpt>
      <trkpt lat="47.58673" lon="-0.28979">
        <ele>58.78</ele>
        <time>2014-04-13T10:13:44Z</time>
      </trkpt>
      <trkpt lat="47.58648" lon="-0.29039">
        <ele>58.3</ele>
        <time>2014-04-13T10:13:52Z</time>
      </trkpt>
      <trkpt lat="47.58621" lon="-0.29098">
        <ele>57.34</ele>
        <time>2014-04-13T10:14:00Z</time>
      </trkpt>
      <trkpt lat="47.58594" lon="-0.29146">
        <ele>57.34</ele>
        <time>2014-04-13T10:14:07Z</time>
      </trkpt>
      <trkpt lat="47.58589" lon="-0.29152">
        <ele>56.86</ele>
        <time>2014-04-13T10:14:08Z</time>
      </trkpt>
      <trkpt lat="47.58579" lon="-0.29162">
        <ele>56.86</ele>
        <time>2014-04-13T10:14:10Z</time>
      </trkpt>
      <trkpt lat="47.58564" lon="-0.29196">
        <ele>56.86</ele>
        <time>2014-04-13T10:14:15Z</time>
      </trkpt>
      <trkpt lat="47.58556" lon="-0.29225">
        <ele>56.37</ele>
        <time>2014-04-13T10:14:19Z</time>
      </trkpt>
      <trkpt lat="47.58549" lon="-0.29269">
        <ele>57.34</ele>
        <time>2014-04-13T10:14:25Z</time>
      </trkpt>
      <trkpt lat="47.58544" lon="-0.29299">
        <ele>57.34</ele>
        <time>2014-04-13T10:14:29Z</time>
      </trkpt>
      <trkpt lat="47.58534" lon="-0.29371">
        <ele>57.34</ele>
        <time>2014-04-13T10:14:39Z</time>
      </trkpt>
      <trkpt lat="47.58529" lon="-0.29434">
        <ele>56.86</ele>
        <time>2014-04-13T10:14:47Z</time>
      </trkpt>
      <trkpt lat="47.58525" lon="-0.29491">
        <ele>55.89</ele>
        <time>2014-04-13T10:14:54Z</time>
      </trkpt>
      <trkpt lat="47.58519" lon="-0.29541">
        <ele>55.89</ele>
        <time>2014-04-13T10:15:01Z</time>
      </trkpt>
      <trkpt lat="47.58516" lon="-0.29554">
        <ele>55.89</ele>
        <time>2014-04-13T10:15:03Z</time>
      </trkpt>
      <trkpt lat="47.58509" lon="-0.29573">
        <ele>55.41</ele>
        <time>2014-04-13T10:15:06Z</time>
      </trkpt>
      <trkpt lat="47.58495" lon="-0.29588">
        <ele>55.41</ele>
        <time>2014-04-13T10:15:10Z</time>
      </trkpt>
      <trkpt lat="47.58481" lon="-0.29603">
        <ele>54.93</ele>
        <time>2014-04-13T10:15:14Z</time>
      </trkpt>
      <trkpt lat="47.58446" lon="-0.29638">
        <ele>53.97</ele>
        <time>2014-04-13T10:15:24Z</time>
      </trkpt>
      <trkpt lat="47.58434" lon="-0.29649">
        <ele>53.49</ele>
        <time>2014-04-13T10:15:27Z</time>
      </trkpt>
      <trkpt lat="47.58398" lon="-0.29678">
        <ele>52.05</ele>
        <time>2014-04-13T10:15:35Z</time>
      </trkpt>
      <trkpt lat="47.58389" lon="-0.29687">
        <ele>51.09</ele>
        <time>2014-04-13T10:15:37Z</time>
      </trkpt>
      <trkpt lat="47.58374" lon="-0.29713">
        <ele>49.65</ele>
        <time>2014-04-13T10:15:42Z</time>
      </trkpt>
      <trkpt lat="47.58365" lon="-0.29731">
        <ele>48.2</ele>
        <time>2014-04-13T10:15:45Z</time>
      </trkpt>
      <trkpt lat="47.58357" lon="-0.29751">
        <ele>47.24</ele>
        <time>2014-04-13T10:15:49Z</time>
      </trkpt>
      <trkpt lat="47.58353" lon="-0.29763">
        <ele>47.24</ele>
        <time>2014-04-13T10:15:51Z</time>
      </trkpt>
      <trkpt lat="47.58336" lon="-0.29816">
        <ele>46.76</ele>
        <time>2014-04-13T10:15:58Z</time>
      </trkpt>
      <trkpt lat="47.58324" lon="-0.29845">
        <ele>46.28</ele>
        <time>2014-04-13T10:16:02Z</time>
      </trkpt>
      <trkpt lat="47.58311" lon="-0.29871">
        <ele>46.28</ele>
        <time>2014-04-13T10:16:06Z</time>
      </trkpt>
      <trkpt lat="47.58301" lon="-0.29888">
        <ele>45.8</ele>
        <time>2014-04-13T10:16:09Z</time>
      </trkpt>
      <trkpt lat="47.58281" lon="-0.29926">
        <ele>46.76</ele>
        <time>2014-04-13T10:16:16Z</time>
      </trkpt>
      <trkpt lat="47.58275" lon="-0.29939">
        <ele>46.28</ele>
        <time>2014-04-13T10:16:18Z</time>
      </trkpt>
      <trkpt lat="47.58267" lon="-0.29961">
        <ele>46.28</ele>
        <time>2014-04-13T10:16:21Z</time>
      </trkpt>
      <trkpt lat="47.58247" lon="-0.30018">
        <ele>45.8</ele>
        <time>2014-04-13T10:16:29Z</time>
      </trkpt>
      <trkpt lat="47.58227" lon="-0.30075">
        <ele>45.32</ele>
        <time>2014-04-13T10:16:37Z</time>
      </trkpt>
      <trkpt lat="47.58213" lon="-0.30114">
        <ele>45.32</ele>
        <time>2014-04-13T10:16:42Z</time>
      </trkpt>
      <trkpt lat="47.58201" lon="-0.30145">
        <ele>44.84</ele>
        <time>2014-04-13T10:16:46Z</time>
      </trkpt>
      <trkpt lat="47.5819" lon="-0.30175">
        <ele>44.84</ele>
        <time>2014-04-13T10:16:50Z</time>
      </trkpt>
      <trkpt lat="47.58184" lon="-0.3019">
        <ele>44.36</ele>
        <time>2014-04-13T10:16:52Z</time>
      </trkpt>
      <trkpt lat="47.58169" lon="-0.30234">
        <ele>44.84</ele>
        <time>2014-04-13T10:16:58Z</time>
      </trkpt>
      <trkpt lat="47.58156" lon="-0.30248">
        <ele>45.32</ele>
        <time>2014-04-13T10:17:02Z</time>
      </trkpt>
      <trkpt lat="47.58119" lon="-0.30252">
        <ele>44.84</ele>
        <time>2014-04-13T10:17:10Z</time>
      </trkpt>
      <trkpt lat="47.58111" lon="-0.30253">
        <ele>45.32</ele>
        <time>2014-04-13T10:17:12Z</time>
      </trkpt>
      <trkpt lat="47.58069" lon="-0.30256">
        <ele>45.8</ele>
        <time>2014-04-13T10:17:22Z</time>
      </trkpt>
      <trkpt lat="47.58037" lon="-0.30256">
        <ele>46.76</ele>
        <time>2014-04-13T10:17:30Z</time>
      </trkpt>
      <trkpt lat="47.58008" lon="-0.30253">
        <ele>46.76</ele>
        <time>2014-04-13T10:17:38Z</time>
      </trkpt>
      <trkpt lat="47.57986" lon="-0.30248">
        <ele>47.24</ele>
        <time>2014-04-13T10:17:45Z</time>
      </trkpt>
      <trkpt lat="47.57965" lon="-0.30246">
        <ele>48.2</ele>
        <time>2014-04-13T10:17:53Z</time>
      </trkpt>
      <trkpt lat="47.57945" lon="-0.30241">
        <ele>49.16</ele>
        <time>2014-04-13T10:18:01Z</time>
      </trkpt>
      <trkpt lat="47.57929" lon="-0.30237">
        <ele>51.57</ele>
        <time>2014-04-13T10:18:08Z</time>
      </trkpt>
      <trkpt lat="47.57914" lon="-0.3023">
        <ele>53.01</ele>
        <time>2014-04-13T10:18:15Z</time>
      </trkpt>
      <trkpt lat="47.57901" lon="-0.30218">
        <ele>54.45</ele>
        <time>2014-04-13T10:18:23Z</time>
      </trkpt>
      <trkpt lat="47.57892" lon="-0.30206">
        <ele>54.93</ele>
        <time>2014-04-13T10:18:30Z</time>
      </trkpt>
      <trkpt lat="47.57882" lon="-0.30193">
        <ele>56.37</ele>
        <time>2014-04-13T10:18:37Z</time>
      </trkpt>
      <trkpt lat="47.57872" lon="-0.3018">
        <ele>56.37</ele>
        <time>2014-04-13T10:18:44Z</time>
      </trkpt>
      <trkpt lat="47.57861" lon="-0.30168">
        <ele>56.37</ele>
        <time>2014-04-13T10:18:50Z</time>
      </trkpt>
      <trkpt lat="47.57847" lon="-0.30147">
        <ele>56.86</ele>
        <time>2014-04-13T10:18:57Z</time>
      </trkpt>
      <trkpt lat="47.57835" lon="-0.30122">
        <ele>56.37</ele>
        <time>2014-04-13T10:19:03Z</time>
      </trkpt>
      <trkpt lat="47.57823" lon="-0.30091">
        <ele>55.89</ele>
        <time>2014-04-13T10:19:09Z</time>
      </trkpt>
      <trkpt lat="47.57805" lon="-0.30051">
        <ele>55.41</ele>
        <time>2014-04-13T10:19:17Z</time>
      </trkpt>
      <trkpt lat="47.57791" lon="-0.30015">
        <ele>55.41</ele>
        <time>2014-04-13T10:19:23Z</time>
      </trkpt>
      <trkpt lat="47.57784" lon="-0.29994">
        <ele>55.41</ele>
        <time>2014-04-13T10:19:26Z</time>
      </trkpt>
      <trkpt lat="47.57775" lon="-0.29958">
        <ele>54.45</ele>
        <time>2014-04-13T10:19:32Z</time>
      </trkpt>
      <trkpt lat="47.57765" lon="-0.29937">
        <ele>54.45</ele>
        <time>2014-04-13T10:19:37Z</time>
      </trkpt>
      <trkpt lat="47.57749" lon="-0.29935">
        <ele>54.45</ele>
        <time>2014-04-13T10:19:42Z</time>
      </trkpt>
      <trkpt lat="47.57745" lon="-0.29938">
        <ele>54.45</ele>
        <time>2014-04-13T10:19:43Z</time>
      </trkpt>
      <trkpt lat="47.57709" lon="-0.29966">
        <ele>55.89</ele>
        <time>2014-04-13T10:19:53Z</time>
      </trkpt>
      <trkpt lat="47.57684" lon="-0.29995">
        <ele>57.34</ele>
        <time>2014-04-13T10:20:01Z</time>
      </trkpt>
      <trkpt lat="47.57674" lon="-0.30024">
        <ele>57.82</ele>
        <time>2014-04-13T10:20:07Z</time>
      </trkpt>
      <trkpt lat="47.57662" lon="-0.3005">
        <ele>59.26</ele>
        <time>2014-04-13T10:20:14Z</time>
      </trkpt>
      <trkpt lat="47.57649" lon="-0.30071">
        <ele>60.7</ele>
        <time>2014-04-13T10:20:22Z</time>
      </trkpt>
      <trkpt lat="47.57639" lon="-0.30096">
        <ele>62.14</ele>
        <time>2014-04-13T10:20:30Z</time>
      </trkpt>
      <trkpt lat="47.57634" lon="-0.30113">
        <ele>63.1</ele>
        <time>2014-04-13T10:20:37Z</time>
      </trkpt>
      <trkpt lat="47.57624" lon="-0.30135">
        <ele>64.07</ele>
        <time>2014-04-13T10:20:45Z</time>
      </trkpt>
      <trkpt lat="47.57614" lon="-0.30162">
        <ele>61.66</ele>
        <time>2014-04-13T10:20:50Z</time>
      </trkpt>
      <trkpt lat="47.57611" lon="-0.30168">
        <ele>61.18</ele>
        <time>2014-04-13T10:20:51Z</time>
      </trkpt>
      <trkpt lat="47.57606" lon="-0.30181">
        <ele>61.18</ele>
        <time>2014-04-13T10:20:53Z</time>
      </trkpt>
      <trkpt lat="47.57601" lon="-0.30228">
        <ele>59.74</ele>
        <time>2014-04-13T10:20:58Z</time>
      </trkpt>
      <trkpt lat="47.57606" lon="-0.3032">
        <ele>56.37</ele>
        <time>2014-04-13T10:21:06Z</time>
      </trkpt>
      <trkpt lat="47.57607" lon="-0.30333">
        <ele>55.89</ele>
        <time>2014-04-13T10:21:07Z</time>
      </trkpt>
      <trkpt lat="47.57598" lon="-0.3038">
        <ele>54.45</ele>
        <time>2014-04-13T10:21:11Z</time>
      </trkpt>
      <trkpt lat="47.57593" lon="-0.30392">
        <ele>53.97</ele>
        <time>2014-04-13T10:21:12Z</time>
      </trkpt>
      <trkpt lat="47.57581" lon="-0.30425">
        <ele>53.01</ele>
        <time>2014-04-13T10:21:15Z</time>
      </trkpt>
      <trkpt lat="47.57578" lon="-0.30453">
        <ele>51.57</ele>
        <time>2014-04-13T10:21:18Z</time>
      </trkpt>
      <trkpt lat="47.57586" lon="-0.3048">
        <ele>51.09</ele>
        <time>2014-04-13T10:21:21Z</time>
      </trkpt>
      <trkpt lat="47.57599" lon="-0.30503">
        <ele>51.09</ele>
        <time>2014-04-13T10:21:24Z</time>
      </trkpt>
      <trkpt lat="47.57621" lon="-0.30553">
        <ele>50.13</ele>
        <time>2014-04-13T10:21:30Z</time>
      </trkpt>
      <trkpt lat="47.57635" lon="-0.30633">
        <ele>48.68</ele>
        <time>2014-04-13T10:21:38Z</time>
      </trkpt>
      <trkpt lat="47.57638" lon="-0.30704">
        <ele>48.2</ele>
        <time>2014-04-13T10:21:45Z</time>
      </trkpt>
      <trkpt lat="47.57635" lon="-0.30813">
        <ele>48.2</ele>
        <time>2014-04-13T10:21:56Z</time>
      </trkpt>
      <trkpt lat="47.57643" lon="-0.30898">
        <ele>46.28</ele>
        <time>2014-04-13T10:22:04Z</time>
      </trkpt>
      <trkpt lat="47.57653" lon="-0.30977">
        <ele>45.32</ele>
        <time>2014-04-13T10:22:11Z</time>
      </trkpt>
      <trkpt lat="47.57671" lon="-0.31056">
        <ele>44.36</ele>
        <time>2014-04-13T10:22:19Z</time>
      </trkpt>
      <trkpt lat="47.57695" lon="-0.31132">
        <ele>43.4</ele>
        <time>2014-04-13T10:22:27Z</time>
      </trkpt>
      <trkpt lat="47.57729" lon="-0.31242">
        <ele>41.47</ele>
        <time>2014-04-13T10:22:38Z</time>
      </trkpt>
      <trkpt lat="47.57771" lon="-0.31378">
        <ele>40.03</ele>
        <time>2014-04-13T10:22:51Z</time>
      </trkpt>
      <trkpt lat="47.57787" lon="-0.31461">
        <ele>39.55</ele>
        <time>2014-04-13T10:22:59Z</time>
      </trkpt>
      <trkpt lat="47.57811" lon="-0.31582">
        <ele>37.63</ele>
        <time>2014-04-13T10:23:11Z</time>
      </trkpt>
      <trkpt lat="47.57834" lon="-0.31708">
        <ele>36.19</ele>
        <time>2014-04-13T10:23:24Z</time>
      </trkpt>
      <trkpt lat="47.57853" lon="-0.31773">
        <ele>35.71</ele>
        <time>2014-04-13T10:23:31Z</time>
      </trkpt>
      <trkpt lat="47.5788" lon="-0.31866">
        <ele>34.74</ele>
        <time>2014-04-13T10:23:41Z</time>
      </trkpt>
      <trkpt lat="47.57892" lon="-0.31918">
        <ele>34.26</ele>
        <time>2014-04-13T10:23:47Z</time>
      </trkpt>
      <trkpt lat="47.57901" lon="-0.31944">
        <ele>33.78</ele>
        <time>2014-04-13T10:23:53Z</time>
      </trkpt>
      <trkpt lat="47.57905" lon="-0.3199">
        <ele>33.3</ele>
        <time>2014-04-13T10:24:01Z</time>
      </trkpt>
      <trkpt lat="47.57909" lon="-0.3204">
        <ele>34.26</ele>
        <time>2014-04-13T10:24:08Z</time>
      </trkpt>
      <trkpt lat="47.57915" lon="-0.32096">
        <ele>34.26</ele>
        <time>2014-04-13T10:24:16Z</time>
      </trkpt>
      <trkpt lat="47.57923" lon="-0.32148">
        <ele>34.74</ele>
        <time>2014-04-13T10:24:24Z</time>
      </trkpt>
      <trkpt lat="47.57927" lon="-0.32179">
        <ele>34.74</ele>
        <time>2014-04-13T10:24:29Z</time>
      </trkpt>
      <trkpt lat="47.5792" lon="-0.32198">
        <ele>34.74</ele>
        <time>2014-04-13T10:24:33Z</time>
      </trkpt>
      <trkpt lat="47.57916" lon="-0.322">
        <ele>35.23</ele>
        <time>2014-04-13T10:24:34Z</time>
      </trkpt>
      <trkpt lat="47.57894" lon="-0.32213">
        <ele>36.67</ele>
        <time>2014-04-13T10:24:41Z</time>
      </trkpt>
      <trkpt lat="47.57868" lon="-0.32222">
        <ele>37.63</ele>
        <time>2014-04-13T10:24:49Z</time>
      </trkpt>
      <trkpt lat="47.57836" lon="-0.32236">
        <ele>39.07</ele>
        <time>2014-04-13T10:24:59Z</time>
      </trkpt>
      <trkpt lat="47.57818" lon="-0.32244">
        <ele>40.03</ele>
        <time>2014-04-13T10:25:05Z</time>
      </trkpt>
      <trkpt lat="47.57818" lon="-0.32261">
        <ele>40.99</ele>
        <time>2014-04-13T10:25:10Z</time>
      </trkpt>
      <trkpt lat="47.57819" lon="-0.32265">
        <ele>41.47</ele>
        <time>2014-04-13T10:25:11Z</time>
      </trkpt>
      <trkpt lat="47.57826" lon="-0.32318">
        <ele>41.95</ele>
        <time>2014-04-13T10:25:22Z</time>
      </trkpt>
      <trkpt lat="47.57831" lon="-0.32364">
        <ele>41.47</ele>
        <time>2014-04-13T10:25:30Z</time>
      </trkpt>
      <trkpt lat="47.57834" lon="-0.3241">
        <ele>39.55</ele>
        <time>2014-04-13T10:25:36Z</time>
      </trkpt>
      <trkpt lat="47.57839" lon="-0.32448">
        <ele>38.11</ele>
        <time>2014-04-13T10:25:41Z</time>
      </trkpt>
      <trkpt lat="47.57832" lon="-0.32479">
        <ele>38.11</ele>
        <time>2014-04-13T10:25:46Z</time>
      </trkpt>
      <trkpt lat="47.57829" lon="-0.32489">
        <ele>38.11</ele>
        <time>2014-04-13T10:25:48Z</time>
      </trkpt>
      <trkpt lat="47.57817" lon="-0.32503">
        <ele>38.11</ele>
        <time>2014-04-13T10:25:52Z</time>
      </trkpt>
      <trkpt lat="47.5781" lon="-0.32505">
        <ele>38.59</ele>
        <time>2014-04-13T10:25:54Z</time>
      </trkpt>
      <trkpt lat="47.57807" lon="-0.32514">
        <ele>40.03</ele>
        <time>2014-04-13T10:25:58Z</time>
      </trkpt>
      <trkpt lat="47.57808" lon="-0.32516">
        <ele>40.51</ele>
        <time>2014-04-13T10:26:01Z</time>
      </trkpt>
      <trkpt lat="47.57808" lon="-0.3252">
        <ele>40.51</ele>
        <time>2014-04-13T10:26:03Z</time>
      </trkpt>
      <trkpt lat="47.5781" lon="-0.32534">
        <ele>42.44</ele>
        <time>2014-04-13T10:26:10Z</time>
      </trkpt>
      <trkpt lat="47.57812" lon="-0.32552">
        <ele>43.4</ele>
        <time>2014-04-13T10:26:18Z</time>
      </trkpt>
      <trkpt lat="47.57812" lon="-0.32555">
        <ele>43.88</ele>
        <time>2014-04-13T10:26:19Z</time>
      </trkpt>
      <trkpt lat="47.57814" lon="-0.32578">
        <ele>45.8</ele>
        <time>2014-04-13T10:26:27Z</time>
      </trkpt>
      <trkpt lat="47.57813" lon="-0.32592">
        <ele>46.76</ele>
        <time>2014-04-13T10:26:32Z</time>
      </trkpt>
      <trkpt lat="47.57804" lon="-0.32601">
        <ele>47.24</ele>
        <time>2014-04-13T10:26:38Z</time>
      </trkpt>
      <trkpt lat="47.57784" lon="-0.32599">
        <ele>48.2</ele>
        <time>2014-04-13T10:26:47Z</time>
      </trkpt>
      <trkpt lat="47.57776" lon="-0.32608">
        <ele>48.68</ele>
        <time>2014-04-13T10:26:52Z</time>
      </trkpt>
      <trkpt lat="47.57774" lon="-0.32629">
        <ele>49.65</ele>
        <time>2014-04-13T10:27:01Z</time>
      </trkpt>
      <trkpt lat="47.57773" lon="-0.32631">
        <ele>49.16</ele>
        <time>2014-04-13T10:27:06Z</time>
      </trkpt>
      <trkpt lat="47.5777" lon="-0.32636">
        <ele>49.65</ele>
        <time>2014-04-13T10:27:13Z</time>
      </trkpt>
      <trkpt lat="47.5777" lon="-0.32637">
        <ele>50.13</ele>
        <time>2014-04-13T10:27:20Z</time>
      </trkpt>
      <trkpt lat="47.5777" lon="-0.32637">
        <ele>50.13</ele>
        <time>2014-04-13T10:27:33Z</time>
      </trkpt>
      <trkpt lat="47.5777" lon="-0.32637">
        <ele>49.65</ele>
        <time>2014-04-13T10:27:43Z</time>
      </trkpt>
      <trkpt lat="47.5777" lon="-0.32637">
        <ele>50.13</ele>
        <time>2014-04-13T10:28:04Z</time>
      </trkpt>
      <trkpt lat="47.57769" lon="-0.32636">
        <ele>50.13</ele>
        <time>2014-04-13T10:28:11Z</time>
      </trkpt>
      <trkpt lat="47.57768" lon="-0.32636">
        <ele>50.61</ele>
        <time>2014-04-13T10:28:20Z</time>
      </trkpt>
      <trkpt lat="47.57768" lon="-0.32636">
        <ele>50.13</ele>
        <time>2014-04-13T10:28:39Z</time>
      </trkpt>
      <trkpt lat="47.57768" lon="-0.32636">
        <ele>49.65</ele>
        <time>2014-04-13T10:28:58Z</time>
      </trkpt>
      <trkpt lat="47.57768" lon="-0.32636">
        <ele>49.65</ele>
        <time>2014-04-13T10:29:16Z</time>
      </trkpt>
      <trkpt lat="47.57768" lon="-0.32636">
        <ele>50.13</ele>
        <time>2014-04-13T10:29:35Z</time>
      </trkpt>
      <trkpt lat="47.57768" lon="-0.32636">
        <ele>50.13</ele>
        <time>2014-04-13T10:29:51Z</time>
      </trkpt>
      <trkpt lat="47.57768" lon="-0.32636">
        <ele>50.61</ele>
        <time>2014-04-13T10:30:08Z</time>
      </trkpt>
      <trkpt lat="47.57768" lon="-0.32636">
        <ele>51.09</ele>
        <time>2014-04-13T10:30:22Z</time>
      </trkpt>
      <trkpt lat="47.57768" lon="-0.32636">
        <ele>51.09</ele>
        <time>2014-04-13T10:30:41Z</time>
      </trkpt>
      <trkpt lat="47.57768" lon="-0.32636">
        <ele>51.09</ele>
        <time>2014-04-13T10:30:52Z</time>
      </trkpt>
      <trkpt lat="47.57768" lon="-0.32636">
        <ele>51.09</ele>
        <time>2014-04-13T10:30:57Z</time>
      </trkpt>
      <trkpt lat="47.57768" lon="-0.32636">
        <ele>51.57</ele>
        <time>2014-04-13T10:31:11Z</time>
      </trkpt>
    </trkseg>
  </trk>
</gpx>